<?xml version="1.0" encoding="UTF-8" standalone="no" ?>
<gpx xmlns="http://www.topografix.com/GPX/1/1" xmlns:xsi="http://www.w3.org/2001/XMLSchema-instance" xsi:schemaLocation="http://www.topografix.com/GPX/1/1 http://www.topografix.com/GPX/1/1/gpx.xsd" version="1.1" creator="VisuGPX - https://www.visugpx.com">
  <metadata>
    <name>Vendredi 28 août 26</name>
  </metadata>
  <trk>
    <name><![CDATA[vendredi 28 août 26]]></name>
    <extensions>
      <line xmlns="http://www.topografix.com/GPX/gpx_style/0/2">
        <width>7</width>
      </line>
    </extensions>
    <trkseg>
      <trkpt lat="43.38655" lon="-1.66336">
        <ele>3.9</ele>
        <time>2026-08-23T11:43:35.000Z</time>
      </trkpt>
      <trkpt lat="43.38654" lon="-1.66328">
        <ele>4</ele>
        <time>2026-08-23T11:43:36.000Z</time>
      </trkpt>
      <trkpt lat="43.38636" lon="-1.66325">
        <ele>3.9</ele>
        <time>2026-08-23T11:43:39.000Z</time>
      </trkpt>
      <trkpt lat="43.38617" lon="-1.66317">
        <ele>3.4</ele>
        <time>2026-08-23T11:43:43.000Z</time>
      </trkpt>
      <trkpt lat="43.386" lon="-1.66303">
        <ele>1</ele>
        <time>2026-08-23T11:43:46.000Z</time>
      </trkpt>
      <trkpt lat="43.3857" lon="-1.66267">
        <ele>2</ele>
        <time>2026-08-23T11:43:53.000Z</time>
      </trkpt>
      <trkpt lat="43.38503" lon="-1.66208">
        <ele>4</ele>
        <time>2026-08-23T11:44:08.000Z</time>
      </trkpt>
      <trkpt lat="43.38496" lon="-1.66199">
        <ele>5</ele>
        <time>2026-08-23T11:44:09.000Z</time>
      </trkpt>
      <trkpt lat="43.38487" lon="-1.66173">
        <ele>5</ele>
        <time>2026-08-23T11:44:13.000Z</time>
      </trkpt>
      <trkpt lat="43.38484" lon="-1.66174">
        <ele>5</ele>
        <time>2026-08-23T11:44:14.000Z</time>
      </trkpt>
      <trkpt lat="43.3848" lon="-1.66172">
        <ele>5</ele>
        <time>2026-08-23T11:44:14.000Z</time>
      </trkpt>
      <trkpt lat="43.38478" lon="-1.66167">
        <ele>6</ele>
        <time>2026-08-23T11:44:15.000Z</time>
      </trkpt>
      <trkpt lat="43.38477" lon="-1.66161">
        <ele>5</ele>
        <time>2026-08-23T11:44:16.000Z</time>
      </trkpt>
      <trkpt lat="43.38479" lon="-1.66155">
        <ele>5</ele>
        <time>2026-08-23T11:44:17.000Z</time>
      </trkpt>
      <trkpt lat="43.38462" lon="-1.66121">
        <ele>5</ele>
        <time>2026-08-23T11:44:22.000Z</time>
      </trkpt>
      <trkpt lat="43.38445" lon="-1.66095">
        <ele>5</ele>
        <time>2026-08-23T11:44:27.000Z</time>
      </trkpt>
      <trkpt lat="43.38347" lon="-1.65961">
        <ele>6</ele>
        <time>2026-08-23T11:44:51.000Z</time>
      </trkpt>
      <trkpt lat="43.3834" lon="-1.65943">
        <ele>6</ele>
        <time>2026-08-23T11:44:54.000Z</time>
      </trkpt>
      <trkpt lat="43.38336" lon="-1.65944">
        <ele>6</ele>
        <time>2026-08-23T11:44:54.000Z</time>
      </trkpt>
      <trkpt lat="43.3833" lon="-1.65941">
        <ele>6</ele>
        <time>2026-08-23T11:44:56.000Z</time>
      </trkpt>
      <trkpt lat="43.38328" lon="-1.65932">
        <ele>6</ele>
        <time>2026-08-23T11:44:57.000Z</time>
      </trkpt>
      <trkpt lat="43.3833" lon="-1.65928">
        <ele>6</ele>
        <time>2026-08-23T11:44:57.000Z</time>
      </trkpt>
      <trkpt lat="43.38324" lon="-1.65923">
        <ele>6</ele>
        <time>2026-08-23T11:44:59.000Z</time>
      </trkpt>
      <trkpt lat="43.38309" lon="-1.65902">
        <ele>5</ele>
        <time>2026-08-23T11:45:03.000Z</time>
      </trkpt>
      <trkpt lat="43.38298" lon="-1.65877">
        <ele>4</ele>
        <time>2026-08-23T11:45:06.000Z</time>
      </trkpt>
      <trkpt lat="43.38234" lon="-1.65703">
        <ele>4</ele>
        <time>2026-08-23T11:45:32.000Z</time>
      </trkpt>
      <trkpt lat="43.38233" lon="-1.65687">
        <ele>4</ele>
        <time>2026-08-23T11:45:34.000Z</time>
      </trkpt>
      <trkpt lat="43.38236" lon="-1.65679">
        <ele>4</ele>
        <time>2026-08-23T11:45:35.000Z</time>
      </trkpt>
      <trkpt lat="43.38351" lon="-1.65522">
        <ele>4</ele>
        <time>2026-08-23T11:46:04.000Z</time>
      </trkpt>
      <trkpt lat="43.38357" lon="-1.65509">
        <ele>4</ele>
        <time>2026-08-23T11:46:06.000Z</time>
      </trkpt>
      <trkpt lat="43.38352" lon="-1.65508">
        <ele>4</ele>
        <time>2026-08-23T11:46:06.000Z</time>
      </trkpt>
      <trkpt lat="43.38328" lon="-1.65473">
        <ele>4</ele>
        <time>2026-08-23T11:46:13.000Z</time>
      </trkpt>
      <trkpt lat="43.38325" lon="-1.65465">
        <ele>4</ele>
        <time>2026-08-23T11:46:14.000Z</time>
      </trkpt>
      <trkpt lat="43.38326" lon="-1.65462">
        <ele>4</ele>
        <time>2026-08-23T11:46:14.000Z</time>
      </trkpt>
      <trkpt lat="43.3832" lon="-1.65459">
        <ele>4</ele>
        <time>2026-08-23T11:46:15.000Z</time>
      </trkpt>
      <trkpt lat="43.38322" lon="-1.6545">
        <ele>4</ele>
        <time>2026-08-23T11:46:17.000Z</time>
      </trkpt>
      <trkpt lat="43.38304" lon="-1.65441">
        <ele>4</ele>
        <time>2026-08-23T11:46:20.000Z</time>
      </trkpt>
      <trkpt lat="43.38277" lon="-1.65441">
        <ele>4</ele>
        <time>2026-08-23T11:46:25.000Z</time>
      </trkpt>
      <trkpt lat="43.38251" lon="-1.6544">
        <ele>3</ele>
        <time>2026-08-23T11:46:29.000Z</time>
      </trkpt>
      <trkpt lat="43.38233" lon="-1.65437">
        <ele>3</ele>
        <time>2026-08-23T11:46:33.000Z</time>
      </trkpt>
      <trkpt lat="43.38212" lon="-1.65437">
        <ele>3</ele>
        <time>2026-08-23T11:46:36.000Z</time>
      </trkpt>
      <trkpt lat="43.38213" lon="-1.65407">
        <ele>3</ele>
        <time>2026-08-23T11:46:40.000Z</time>
      </trkpt>
      <trkpt lat="43.38212" lon="-1.65399">
        <ele>3</ele>
        <time>2026-08-23T11:46:41.000Z</time>
      </trkpt>
      <trkpt lat="43.38165" lon="-1.6533">
        <ele>3</ele>
        <time>2026-08-23T11:46:54.000Z</time>
      </trkpt>
      <trkpt lat="43.38156" lon="-1.65315">
        <ele>3</ele>
        <time>2026-08-23T11:46:56.000Z</time>
      </trkpt>
      <trkpt lat="43.38151" lon="-1.653">
        <ele>3</ele>
        <time>2026-08-23T11:46:58.000Z</time>
      </trkpt>
      <trkpt lat="43.38154" lon="-1.65181">
        <ele>5</ele>
        <time>2026-08-23T11:47:14.000Z</time>
      </trkpt>
      <trkpt lat="43.38156" lon="-1.65169">
        <ele>5</ele>
        <time>2026-08-23T11:47:15.000Z</time>
      </trkpt>
      <trkpt lat="43.3826" lon="-1.6503">
        <ele>7</ele>
        <time>2026-08-23T11:47:41.000Z</time>
      </trkpt>
      <trkpt lat="43.38276" lon="-1.65016">
        <ele>9</ele>
        <time>2026-08-23T11:47:44.000Z</time>
      </trkpt>
      <trkpt lat="43.3826" lon="-1.64971">
        <ele>8</ele>
        <time>2026-08-23T11:47:51.000Z</time>
      </trkpt>
      <trkpt lat="43.38254" lon="-1.64945">
        <ele>8</ele>
        <time>2026-08-23T11:47:54.000Z</time>
      </trkpt>
      <trkpt lat="43.38252" lon="-1.64928">
        <ele>8</ele>
        <time>2026-08-23T11:47:57.000Z</time>
      </trkpt>
      <trkpt lat="43.38255" lon="-1.6488">
        <ele>9</ele>
        <time>2026-08-23T11:48:03.000Z</time>
      </trkpt>
      <trkpt lat="43.38279" lon="-1.64626">
        <ele>7</ele>
        <time>2026-08-23T11:48:36.000Z</time>
      </trkpt>
      <trkpt lat="43.3828" lon="-1.64595">
        <ele>8</ele>
        <time>2026-08-23T11:48:40.000Z</time>
      </trkpt>
      <trkpt lat="43.38277" lon="-1.64488">
        <ele>10</ele>
        <time>2026-08-23T11:48:54.000Z</time>
      </trkpt>
      <trkpt lat="43.38273" lon="-1.64494">
        <ele>10</ele>
        <time>2026-08-23T11:48:55.000Z</time>
      </trkpt>
      <trkpt lat="43.3827" lon="-1.64444">
        <ele>8</ele>
        <time>2026-08-23T11:49:01.000Z</time>
      </trkpt>
      <trkpt lat="43.3826" lon="-1.64385">
        <ele>7</ele>
        <time>2026-08-23T11:49:09.000Z</time>
      </trkpt>
      <trkpt lat="43.38253" lon="-1.64362">
        <ele>6</ele>
        <time>2026-08-23T11:49:12.000Z</time>
      </trkpt>
      <trkpt lat="43.3824" lon="-1.64332">
        <ele>5</ele>
        <time>2026-08-23T11:49:17.000Z</time>
      </trkpt>
      <trkpt lat="43.38223" lon="-1.64306">
        <ele>5</ele>
        <time>2026-08-23T11:49:22.000Z</time>
      </trkpt>
      <trkpt lat="43.38195" lon="-1.64276">
        <ele>5</ele>
        <time>2026-08-23T11:49:28.000Z</time>
      </trkpt>
      <trkpt lat="43.38126" lon="-1.64211">
        <ele>6</ele>
        <time>2026-08-23T11:49:43.000Z</time>
      </trkpt>
      <trkpt lat="43.38116" lon="-1.64196">
        <ele>6</ele>
        <time>2026-08-23T11:49:45.000Z</time>
      </trkpt>
      <trkpt lat="43.38063" lon="-1.6408">
        <ele>8</ele>
        <time>2026-08-23T11:50:03.000Z</time>
      </trkpt>
      <trkpt lat="43.3805" lon="-1.6406">
        <ele>9</ele>
        <time>2026-08-23T11:50:07.000Z</time>
      </trkpt>
      <trkpt lat="43.37973" lon="-1.63985">
        <ele>7</ele>
        <time>2026-08-23T11:50:23.000Z</time>
      </trkpt>
      <trkpt lat="43.37937" lon="-1.63953">
        <ele>7</ele>
        <time>2026-08-23T11:50:31.000Z</time>
      </trkpt>
      <trkpt lat="43.37837" lon="-1.63856">
        <ele>7</ele>
        <time>2026-08-23T11:50:53.000Z</time>
      </trkpt>
      <trkpt lat="43.37779" lon="-1.63797">
        <ele>8</ele>
        <time>2026-08-23T11:51:06.000Z</time>
      </trkpt>
      <trkpt lat="43.37756" lon="-1.63783">
        <ele>8</ele>
        <time>2026-08-23T11:51:10.000Z</time>
      </trkpt>
      <trkpt lat="43.37745" lon="-1.6378">
        <ele>8</ele>
        <time>2026-08-23T11:51:12.000Z</time>
      </trkpt>
      <trkpt lat="43.37639" lon="-1.63786">
        <ele>6</ele>
        <time>2026-08-23T11:51:31.000Z</time>
      </trkpt>
      <trkpt lat="43.37631" lon="-1.63787">
        <ele>6</ele>
        <time>2026-08-23T11:51:32.000Z</time>
      </trkpt>
      <trkpt lat="43.37621" lon="-1.63799">
        <ele>6</ele>
        <time>2026-08-23T11:51:35.000Z</time>
      </trkpt>
      <trkpt lat="43.37616" lon="-1.63802">
        <ele>5</ele>
        <time>2026-08-23T11:51:36.000Z</time>
      </trkpt>
      <trkpt lat="43.3755" lon="-1.63806">
        <ele>5</ele>
        <time>2026-08-23T11:51:47.000Z</time>
      </trkpt>
      <trkpt lat="43.37537" lon="-1.6382">
        <ele>4</ele>
        <time>2026-08-23T11:51:50.000Z</time>
      </trkpt>
      <trkpt lat="43.37522" lon="-1.6382">
        <ele>4</ele>
        <time>2026-08-23T11:51:53.000Z</time>
      </trkpt>
      <trkpt lat="43.37516" lon="-1.63818">
        <ele>4</ele>
        <time>2026-08-23T11:51:54.000Z</time>
      </trkpt>
      <trkpt lat="43.37513" lon="-1.63814">
        <ele>4</ele>
        <time>2026-08-23T11:51:55.000Z</time>
      </trkpt>
      <trkpt lat="43.3751" lon="-1.63791">
        <ele>4</ele>
        <time>2026-08-23T11:51:58.000Z</time>
      </trkpt>
      <trkpt lat="43.37445" lon="-1.63794">
        <ele>4</ele>
        <time>2026-08-23T11:52:09.000Z</time>
      </trkpt>
      <trkpt lat="43.37409" lon="-1.63788">
        <ele>4</ele>
        <time>2026-08-23T11:52:16.000Z</time>
      </trkpt>
      <trkpt lat="43.37111" lon="-1.63806">
        <ele>5</ele>
        <time>2026-08-23T11:53:09.000Z</time>
      </trkpt>
      <trkpt lat="43.37085" lon="-1.63801">
        <ele>6</ele>
        <time>2026-08-23T11:53:14.000Z</time>
      </trkpt>
      <trkpt lat="43.37067" lon="-1.63794">
        <ele>6</ele>
        <time>2026-08-23T11:53:17.000Z</time>
      </trkpt>
      <trkpt lat="43.36753" lon="-1.63597">
        <ele>7</ele>
        <time>2026-08-23T11:54:18.000Z</time>
      </trkpt>
      <trkpt lat="43.36709" lon="-1.63582">
        <ele>8</ele>
        <time>2026-08-23T11:54:26.000Z</time>
      </trkpt>
      <trkpt lat="43.36675" lon="-1.63576">
        <ele>8</ele>
        <time>2026-08-23T11:54:33.000Z</time>
      </trkpt>
      <trkpt lat="43.36638" lon="-1.63578">
        <ele>7</ele>
        <time>2026-08-23T11:54:39.000Z</time>
      </trkpt>
      <trkpt lat="43.36595" lon="-1.63589">
        <ele>5</ele>
        <time>2026-08-23T11:54:47.000Z</time>
      </trkpt>
      <trkpt lat="43.36349" lon="-1.63669">
        <ele>7</ele>
        <time>2026-08-23T11:55:32.000Z</time>
      </trkpt>
      <trkpt lat="43.36308" lon="-1.63673">
        <ele>7</ele>
        <time>2026-08-23T11:55:39.000Z</time>
      </trkpt>
      <trkpt lat="43.36277" lon="-1.63671">
        <ele>6</ele>
        <time>2026-08-23T11:55:45.000Z</time>
      </trkpt>
      <trkpt lat="43.36255" lon="-1.63666">
        <ele>6</ele>
        <time>2026-08-23T11:55:49.000Z</time>
      </trkpt>
      <trkpt lat="43.36097" lon="-1.63603">
        <ele>5</ele>
        <time>2026-08-23T11:56:18.000Z</time>
      </trkpt>
      <trkpt lat="43.36075" lon="-1.63589">
        <ele>5</ele>
        <time>2026-08-23T11:56:22.000Z</time>
      </trkpt>
      <trkpt lat="43.36061" lon="-1.63577">
        <ele>5</ele>
        <time>2026-08-23T11:56:25.000Z</time>
      </trkpt>
      <trkpt lat="43.36039" lon="-1.63549">
        <ele>6</ele>
        <time>2026-08-23T11:56:31.000Z</time>
      </trkpt>
      <trkpt lat="43.36029" lon="-1.63531">
        <ele>6</ele>
        <time>2026-08-23T11:56:33.000Z</time>
      </trkpt>
      <trkpt lat="43.36014" lon="-1.63501">
        <ele>6</ele>
        <time>2026-08-23T11:56:38.000Z</time>
      </trkpt>
      <trkpt lat="43.35995" lon="-1.63453">
        <ele>8</ele>
        <time>2026-08-23T11:56:45.000Z</time>
      </trkpt>
      <trkpt lat="43.35984" lon="-1.63434">
        <ele>8</ele>
        <time>2026-08-23T11:56:48.000Z</time>
      </trkpt>
      <trkpt lat="43.35935" lon="-1.63358">
        <ele>9</ele>
        <time>2026-08-23T11:57:02.000Z</time>
      </trkpt>
      <trkpt lat="43.35921" lon="-1.63341">
        <ele>8</ele>
        <time>2026-08-23T11:57:05.000Z</time>
      </trkpt>
      <trkpt lat="43.35859" lon="-1.6328">
        <ele>9</ele>
        <time>2026-08-23T11:57:18.000Z</time>
      </trkpt>
      <trkpt lat="43.35789" lon="-1.63219">
        <ele>9</ele>
        <time>2026-08-23T11:57:33.000Z</time>
      </trkpt>
      <trkpt lat="43.3575" lon="-1.63192">
        <ele>7</ele>
        <time>2026-08-23T11:57:41.000Z</time>
      </trkpt>
      <trkpt lat="43.35673" lon="-1.63163">
        <ele>6</ele>
        <time>2026-08-23T11:57:55.000Z</time>
      </trkpt>
      <trkpt lat="43.35667" lon="-1.63163">
        <ele>6</ele>
        <time>2026-08-23T11:57:56.000Z</time>
      </trkpt>
      <trkpt lat="43.35663" lon="-1.63166">
        <ele>6</ele>
        <time>2026-08-23T11:57:57.000Z</time>
      </trkpt>
      <trkpt lat="43.35657" lon="-1.63166">
        <ele>6</ele>
        <time>2026-08-23T11:57:58.000Z</time>
      </trkpt>
      <trkpt lat="43.35638" lon="-1.63154">
        <ele>6</ele>
        <time>2026-08-23T11:58:02.000Z</time>
      </trkpt>
      <trkpt lat="43.3544" lon="-1.63097">
        <ele>6</ele>
        <time>2026-08-23T11:58:38.000Z</time>
      </trkpt>
      <trkpt lat="43.35403" lon="-1.63082">
        <ele>7</ele>
        <time>2026-08-23T11:58:45.000Z</time>
      </trkpt>
      <trkpt lat="43.35386" lon="-1.63073">
        <ele>7</ele>
        <time>2026-08-23T11:58:48.000Z</time>
      </trkpt>
      <trkpt lat="43.3535" lon="-1.63044">
        <ele>7</ele>
        <time>2026-08-23T11:58:55.000Z</time>
      </trkpt>
      <trkpt lat="43.35306" lon="-1.62998">
        <ele>6</ele>
        <time>2026-08-23T11:59:05.000Z</time>
      </trkpt>
      <trkpt lat="43.35289" lon="-1.62974">
        <ele>6</ele>
        <time>2026-08-23T11:59:10.000Z</time>
      </trkpt>
      <trkpt lat="43.35268" lon="-1.62932">
        <ele>6</ele>
        <time>2026-08-23T11:59:16.000Z</time>
      </trkpt>
      <trkpt lat="43.35255" lon="-1.629">
        <ele>6</ele>
        <time>2026-08-23T11:59:21.000Z</time>
      </trkpt>
      <trkpt lat="43.35207" lon="-1.62759">
        <ele>8</ele>
        <time>2026-08-23T11:59:41.000Z</time>
      </trkpt>
      <trkpt lat="43.35118" lon="-1.62528">
        <ele>12</ele>
        <time>2026-08-23T12:00:15.000Z</time>
      </trkpt>
      <trkpt lat="43.35108" lon="-1.62493">
        <ele>11</ele>
        <time>2026-08-23T12:00:20.000Z</time>
      </trkpt>
      <trkpt lat="43.35103" lon="-1.62461">
        <ele>10</ele>
        <time>2026-08-23T12:00:24.000Z</time>
      </trkpt>
      <trkpt lat="43.35103" lon="-1.62402">
        <ele>11</ele>
        <time>2026-08-23T12:00:32.000Z</time>
      </trkpt>
      <trkpt lat="43.35109" lon="-1.62334">
        <ele>10</ele>
        <time>2026-08-23T12:00:40.000Z</time>
      </trkpt>
      <trkpt lat="43.35118" lon="-1.62308">
        <ele>11</ele>
        <time>2026-08-23T12:00:44.000Z</time>
      </trkpt>
      <trkpt lat="43.35127" lon="-1.62289">
        <ele>11</ele>
        <time>2026-08-23T12:00:47.000Z</time>
      </trkpt>
      <trkpt lat="43.35181" lon="-1.62185">
        <ele>11</ele>
        <time>2026-08-23T12:01:04.000Z</time>
      </trkpt>
      <trkpt lat="43.35201" lon="-1.62157">
        <ele>12</ele>
        <time>2026-08-23T12:01:09.000Z</time>
      </trkpt>
      <trkpt lat="43.35214" lon="-1.62143">
        <ele>12</ele>
        <time>2026-08-23T12:01:12.000Z</time>
      </trkpt>
      <trkpt lat="43.3524" lon="-1.62126">
        <ele>14</ele>
        <time>2026-08-23T12:01:17.000Z</time>
      </trkpt>
      <trkpt lat="43.35407" lon="-1.6206">
        <ele>21</ele>
        <time>2026-08-23T12:01:48.000Z</time>
      </trkpt>
      <trkpt lat="43.35432" lon="-1.62045">
        <ele>21</ele>
        <time>2026-08-23T12:01:53.000Z</time>
      </trkpt>
      <trkpt lat="43.35486" lon="-1.62001">
        <ele>18</ele>
        <time>2026-08-23T12:02:04.000Z</time>
      </trkpt>
      <trkpt lat="43.35515" lon="-1.61963">
        <ele>18</ele>
        <time>2026-08-23T12:02:11.000Z</time>
      </trkpt>
      <trkpt lat="43.35787" lon="-1.61535">
        <ele>14</ele>
        <time>2026-08-23T12:03:24.000Z</time>
      </trkpt>
      <trkpt lat="43.35815" lon="-1.61503">
        <ele>12</ele>
        <time>2026-08-23T12:03:31.000Z</time>
      </trkpt>
      <trkpt lat="43.35913" lon="-1.61419">
        <ele>16</ele>
        <time>2026-08-23T12:03:51.000Z</time>
      </trkpt>
      <trkpt lat="43.35934" lon="-1.61396">
        <ele>16</ele>
        <time>2026-08-23T12:03:56.000Z</time>
      </trkpt>
      <trkpt lat="43.36033" lon="-1.61268">
        <ele>11</ele>
        <time>2026-08-23T12:04:20.000Z</time>
      </trkpt>
      <trkpt lat="43.36051" lon="-1.61238">
        <ele>11</ele>
        <time>2026-08-23T12:04:25.000Z</time>
      </trkpt>
      <trkpt lat="43.36075" lon="-1.61188">
        <ele>12</ele>
        <time>2026-08-23T12:04:33.000Z</time>
      </trkpt>
      <trkpt lat="43.36091" lon="-1.61139">
        <ele>13</ele>
        <time>2026-08-23T12:04:40.000Z</time>
      </trkpt>
      <trkpt lat="43.36101" lon="-1.61078">
        <ele>15</ele>
        <time>2026-08-23T12:04:48.000Z</time>
      </trkpt>
      <trkpt lat="43.36105" lon="-1.61018">
        <ele>17</ele>
        <time>2026-08-23T12:04:56.000Z</time>
      </trkpt>
      <trkpt lat="43.36113" lon="-1.60838">
        <ele>16</ele>
        <time>2026-08-23T12:05:19.000Z</time>
      </trkpt>
      <trkpt lat="43.36119" lon="-1.6075">
        <ele>18</ele>
        <time>2026-08-23T12:05:31.000Z</time>
      </trkpt>
      <trkpt lat="43.36118" lon="-1.60724">
        <ele>18</ele>
        <time>2026-08-23T12:05:34.000Z</time>
      </trkpt>
      <trkpt lat="43.36104" lon="-1.60585">
        <ele>18</ele>
        <time>2026-08-23T12:05:52.000Z</time>
      </trkpt>
      <trkpt lat="43.36102" lon="-1.60551">
        <ele>17</ele>
        <time>2026-08-23T12:05:57.000Z</time>
      </trkpt>
      <trkpt lat="43.36102" lon="-1.60518">
        <ele>17</ele>
        <time>2026-08-23T12:06:01.000Z</time>
      </trkpt>
      <trkpt lat="43.36103" lon="-1.60494">
        <ele>17</ele>
        <time>2026-08-23T12:06:04.000Z</time>
      </trkpt>
      <trkpt lat="43.36109" lon="-1.60462">
        <ele>16</ele>
        <time>2026-08-23T12:06:08.000Z</time>
      </trkpt>
      <trkpt lat="43.36126" lon="-1.60409">
        <ele>15</ele>
        <time>2026-08-23T12:06:16.000Z</time>
      </trkpt>
      <trkpt lat="43.36138" lon="-1.60384">
        <ele>15</ele>
        <time>2026-08-23T12:06:20.000Z</time>
      </trkpt>
      <trkpt lat="43.36153" lon="-1.60362">
        <ele>14</ele>
        <time>2026-08-23T12:06:24.000Z</time>
      </trkpt>
      <trkpt lat="43.36173" lon="-1.60338">
        <ele>13</ele>
        <time>2026-08-23T12:06:28.000Z</time>
      </trkpt>
      <trkpt lat="43.36211" lon="-1.60302">
        <ele>16</ele>
        <time>2026-08-23T12:06:36.000Z</time>
      </trkpt>
      <trkpt lat="43.36264" lon="-1.60257">
        <ele>19</ele>
        <time>2026-08-23T12:06:48.000Z</time>
      </trkpt>
      <trkpt lat="43.36299" lon="-1.60225">
        <ele>21</ele>
        <time>2026-08-23T12:06:55.000Z</time>
      </trkpt>
      <trkpt lat="43.36316" lon="-1.60201">
        <ele>20</ele>
        <time>2026-08-23T12:06:59.000Z</time>
      </trkpt>
      <trkpt lat="43.36336" lon="-1.60166">
        <ele>16</ele>
        <time>2026-08-23T12:07:05.000Z</time>
      </trkpt>
      <trkpt lat="43.36371" lon="-1.60073">
        <ele>15</ele>
        <time>2026-08-23T12:07:19.000Z</time>
      </trkpt>
      <trkpt lat="43.36387" lon="-1.60042">
        <ele>15</ele>
        <time>2026-08-23T12:07:24.000Z</time>
      </trkpt>
      <trkpt lat="43.36404" lon="-1.60015">
        <ele>14</ele>
        <time>2026-08-23T12:07:28.000Z</time>
      </trkpt>
      <trkpt lat="43.36418" lon="-1.59996">
        <ele>13</ele>
        <time>2026-08-23T12:07:32.000Z</time>
      </trkpt>
      <trkpt lat="43.36447" lon="-1.59965">
        <ele>14</ele>
        <time>2026-08-23T12:07:38.000Z</time>
      </trkpt>
      <trkpt lat="43.36476" lon="-1.5994">
        <ele>14</ele>
        <time>2026-08-23T12:07:44.000Z</time>
      </trkpt>
      <trkpt lat="43.36533" lon="-1.59897">
        <ele>16</ele>
        <time>2026-08-23T12:07:56.000Z</time>
      </trkpt>
      <trkpt lat="43.36549" lon="-1.59873">
        <ele>17</ele>
        <time>2026-08-23T12:08:00.000Z</time>
      </trkpt>
      <trkpt lat="43.36562" lon="-1.59843">
        <ele>18</ele>
        <time>2026-08-23T12:08:05.000Z</time>
      </trkpt>
      <trkpt lat="43.36567" lon="-1.59809">
        <ele>18</ele>
        <time>2026-08-23T12:08:09.000Z</time>
      </trkpt>
      <trkpt lat="43.36588" lon="-1.59546">
        <ele>11</ele>
        <time>2026-08-23T12:08:43.000Z</time>
      </trkpt>
      <trkpt lat="43.36592" lon="-1.59482">
        <ele>9</ele>
        <time>2026-08-23T12:08:52.000Z</time>
      </trkpt>
      <trkpt lat="43.36589" lon="-1.5943">
        <ele>9</ele>
        <time>2026-08-23T12:08:58.000Z</time>
      </trkpt>
      <trkpt lat="43.36581" lon="-1.59376">
        <ele>9</ele>
        <time>2026-08-23T12:09:06.000Z</time>
      </trkpt>
      <trkpt lat="43.36482" lon="-1.59044">
        <ele>9</ele>
        <time>2026-08-23T12:09:52.000Z</time>
      </trkpt>
      <trkpt lat="43.3646" lon="-1.58976">
        <ele>11</ele>
        <time>2026-08-23T12:10:02.000Z</time>
      </trkpt>
      <trkpt lat="43.36444" lon="-1.58941">
        <ele>12</ele>
        <time>2026-08-23T12:10:07.000Z</time>
      </trkpt>
      <trkpt lat="43.36427" lon="-1.58913">
        <ele>13</ele>
        <time>2026-08-23T12:10:12.000Z</time>
      </trkpt>
      <trkpt lat="43.36402" lon="-1.58885">
        <ele>17</ele>
        <time>2026-08-23T12:10:17.000Z</time>
      </trkpt>
      <trkpt lat="43.36308" lon="-1.58801">
        <ele>19</ele>
        <time>2026-08-23T12:10:37.000Z</time>
      </trkpt>
      <trkpt lat="43.3628" lon="-1.58766">
        <ele>18</ele>
        <time>2026-08-23T12:10:44.000Z</time>
      </trkpt>
      <trkpt lat="43.36257" lon="-1.58723">
        <ele>14</ele>
        <time>2026-08-23T12:10:51.000Z</time>
      </trkpt>
      <trkpt lat="43.36164" lon="-1.58429">
        <ele>12</ele>
        <time>2026-08-23T12:11:32.000Z</time>
      </trkpt>
      <trkpt lat="43.36139" lon="-1.58363">
        <ele>12</ele>
        <time>2026-08-23T12:11:42.000Z</time>
      </trkpt>
      <trkpt lat="43.36129" lon="-1.58341">
        <ele>12</ele>
        <time>2026-08-23T12:11:45.000Z</time>
      </trkpt>
      <trkpt lat="43.36109" lon="-1.58303">
        <ele>12</ele>
        <time>2026-08-23T12:11:51.000Z</time>
      </trkpt>
      <trkpt lat="43.36003" lon="-1.58148">
        <ele>11</ele>
        <time>2026-08-23T12:12:19.000Z</time>
      </trkpt>
      <trkpt lat="43.35894" lon="-1.57993">
        <ele>11</ele>
        <time>2026-08-23T12:12:47.000Z</time>
      </trkpt>
      <trkpt lat="43.35882" lon="-1.57972">
        <ele>11</ele>
        <time>2026-08-23T12:12:50.000Z</time>
      </trkpt>
      <trkpt lat="43.35852" lon="-1.57913">
        <ele>12</ele>
        <time>2026-08-23T12:13:00.000Z</time>
      </trkpt>
      <trkpt lat="43.35838" lon="-1.57869">
        <ele>11</ele>
        <time>2026-08-23T12:13:06.000Z</time>
      </trkpt>
      <trkpt lat="43.35807" lon="-1.5772">
        <ele>12</ele>
        <time>2026-08-23T12:13:26.000Z</time>
      </trkpt>
      <trkpt lat="43.35782" lon="-1.57586">
        <ele>13</ele>
        <time>2026-08-23T12:13:44.000Z</time>
      </trkpt>
      <trkpt lat="43.35779" lon="-1.57552">
        <ele>13</ele>
        <time>2026-08-23T12:13:48.000Z</time>
      </trkpt>
      <trkpt lat="43.35779" lon="-1.57526">
        <ele>13</ele>
        <time>2026-08-23T12:13:52.000Z</time>
      </trkpt>
      <trkpt lat="43.35774" lon="-1.5748">
        <ele>13</ele>
        <time>2026-08-23T12:13:58.000Z</time>
      </trkpt>
      <trkpt lat="43.3577" lon="-1.57476">
        <ele>13</ele>
        <time>2026-08-23T12:13:59.000Z</time>
      </trkpt>
      <trkpt lat="43.35768" lon="-1.57469">
        <ele>13</ele>
        <time>2026-08-23T12:14:00.000Z</time>
      </trkpt>
      <trkpt lat="43.35771" lon="-1.57459">
        <ele>13</ele>
        <time>2026-08-23T12:14:01.000Z</time>
      </trkpt>
      <trkpt lat="43.35767" lon="-1.57433">
        <ele>13</ele>
        <time>2026-08-23T12:14:04.000Z</time>
      </trkpt>
      <trkpt lat="43.35763" lon="-1.57418">
        <ele>13</ele>
        <time>2026-08-23T12:14:06.000Z</time>
      </trkpt>
      <trkpt lat="43.35745" lon="-1.57225">
        <ele>14</ele>
        <time>2026-08-23T12:14:32.000Z</time>
      </trkpt>
      <trkpt lat="43.3574" lon="-1.57189">
        <ele>15</ele>
        <time>2026-08-23T12:14:36.000Z</time>
      </trkpt>
      <trkpt lat="43.35733" lon="-1.5716">
        <ele>15</ele>
        <time>2026-08-23T12:14:40.000Z</time>
      </trkpt>
      <trkpt lat="43.35723" lon="-1.57132">
        <ele>15</ele>
        <time>2026-08-23T12:14:44.000Z</time>
      </trkpt>
      <trkpt lat="43.35625" lon="-1.56922">
        <ele>17</ele>
        <time>2026-08-23T12:15:17.000Z</time>
      </trkpt>
      <trkpt lat="43.35597" lon="-1.56872">
        <ele>17</ele>
        <time>2026-08-23T12:15:25.000Z</time>
      </trkpt>
      <trkpt lat="43.35588" lon="-1.56851">
        <ele>17</ele>
        <time>2026-08-23T12:15:28.000Z</time>
      </trkpt>
      <trkpt lat="43.35586" lon="-1.56839">
        <ele>17</ele>
        <time>2026-08-23T12:15:30.000Z</time>
      </trkpt>
      <trkpt lat="43.35585" lon="-1.56813">
        <ele>17</ele>
        <time>2026-08-23T12:15:33.000Z</time>
      </trkpt>
      <trkpt lat="43.35589" lon="-1.56787">
        <ele>17</ele>
        <time>2026-08-23T12:15:36.000Z</time>
      </trkpt>
      <trkpt lat="43.35608" lon="-1.56729">
        <ele>18</ele>
        <time>2026-08-23T12:15:45.000Z</time>
      </trkpt>
      <trkpt lat="43.35617" lon="-1.56692">
        <ele>19</ele>
        <time>2026-08-23T12:15:50.000Z</time>
      </trkpt>
      <trkpt lat="43.35625" lon="-1.56642">
        <ele>19</ele>
        <time>2026-08-23T12:15:56.000Z</time>
      </trkpt>
      <trkpt lat="43.35624" lon="-1.56615">
        <ele>19</ele>
        <time>2026-08-23T12:16:00.000Z</time>
      </trkpt>
      <trkpt lat="43.35619" lon="-1.56612">
        <ele>19</ele>
        <time>2026-08-23T12:16:01.000Z</time>
      </trkpt>
      <trkpt lat="43.35615" lon="-1.56601">
        <ele>19</ele>
        <time>2026-08-23T12:16:02.000Z</time>
      </trkpt>
      <trkpt lat="43.35617" lon="-1.56593">
        <ele>19</ele>
        <time>2026-08-23T12:16:03.000Z</time>
      </trkpt>
      <trkpt lat="43.35621" lon="-1.56588">
        <ele>19</ele>
        <time>2026-08-23T12:16:04.000Z</time>
      </trkpt>
      <trkpt lat="43.35624" lon="-1.56587">
        <ele>19</ele>
        <time>2026-08-23T12:16:05.000Z</time>
      </trkpt>
      <trkpt lat="43.35622" lon="-1.56558">
        <ele>19</ele>
        <time>2026-08-23T12:16:09.000Z</time>
      </trkpt>
      <trkpt lat="43.35622" lon="-1.56509">
        <ele>19</ele>
        <time>2026-08-23T12:16:15.000Z</time>
      </trkpt>
      <trkpt lat="43.35615" lon="-1.56214">
        <ele>19</ele>
        <time>2026-08-23T12:16:53.000Z</time>
      </trkpt>
      <trkpt lat="43.35617" lon="-1.5617">
        <ele>19</ele>
        <time>2026-08-23T12:16:59.000Z</time>
      </trkpt>
      <trkpt lat="43.35623" lon="-1.56133">
        <ele>18</ele>
        <time>2026-08-23T12:17:04.000Z</time>
      </trkpt>
      <trkpt lat="43.35625" lon="-1.56126">
        <ele>18</ele>
        <time>2026-08-23T12:17:05.000Z</time>
      </trkpt>
      <trkpt lat="43.35635" lon="-1.56106">
        <ele>18</ele>
        <time>2026-08-23T12:17:08.000Z</time>
      </trkpt>
      <trkpt lat="43.35652" lon="-1.56086">
        <ele>18</ele>
        <time>2026-08-23T12:17:12.000Z</time>
      </trkpt>
      <trkpt lat="43.35721" lon="-1.56041">
        <ele>19</ele>
        <time>2026-08-23T12:17:25.000Z</time>
      </trkpt>
      <trkpt lat="43.3573" lon="-1.56032">
        <ele>19</ele>
        <time>2026-08-23T12:17:27.000Z</time>
      </trkpt>
      <trkpt lat="43.35734" lon="-1.56023">
        <ele>19</ele>
        <time>2026-08-23T12:17:29.000Z</time>
      </trkpt>
      <trkpt lat="43.35739" lon="-1.56006">
        <ele>18</ele>
        <time>2026-08-23T12:17:31.000Z</time>
      </trkpt>
      <trkpt lat="43.35737" lon="-1.55994">
        <ele>17</ele>
        <time>2026-08-23T12:17:33.000Z</time>
      </trkpt>
      <trkpt lat="43.35741" lon="-1.55983">
        <ele>17</ele>
        <time>2026-08-23T12:17:34.000Z</time>
      </trkpt>
      <trkpt lat="43.35745" lon="-1.55978">
        <ele>17</ele>
        <time>2026-08-23T12:17:35.000Z</time>
      </trkpt>
      <trkpt lat="43.35751" lon="-1.55976">
        <ele>17</ele>
        <time>2026-08-23T12:17:36.000Z</time>
      </trkpt>
      <trkpt lat="43.35756" lon="-1.55977">
        <ele>17</ele>
        <time>2026-08-23T12:17:37.000Z</time>
      </trkpt>
      <trkpt lat="43.35774" lon="-1.55958">
        <ele>18</ele>
        <time>2026-08-23T12:17:41.000Z</time>
      </trkpt>
      <trkpt lat="43.35781" lon="-1.55938">
        <ele>18</ele>
        <time>2026-08-23T12:17:44.000Z</time>
      </trkpt>
      <trkpt lat="43.35785" lon="-1.55918">
        <ele>18</ele>
        <time>2026-08-23T12:17:47.000Z</time>
      </trkpt>
      <trkpt lat="43.35787" lon="-1.55898">
        <ele>20</ele>
        <time>2026-08-23T12:17:50.000Z</time>
      </trkpt>
      <trkpt lat="43.3578" lon="-1.55666">
        <ele>23</ele>
        <time>2026-08-23T12:18:20.000Z</time>
      </trkpt>
      <trkpt lat="43.35781" lon="-1.55641">
        <ele>23</ele>
        <time>2026-08-23T12:18:23.000Z</time>
      </trkpt>
      <trkpt lat="43.35784" lon="-1.55615">
        <ele>23</ele>
        <time>2026-08-23T12:18:26.000Z</time>
      </trkpt>
      <trkpt lat="43.35793" lon="-1.55578">
        <ele>24</ele>
        <time>2026-08-23T12:18:31.000Z</time>
      </trkpt>
      <trkpt lat="43.35797" lon="-1.55542">
        <ele>25</ele>
        <time>2026-08-23T12:18:36.000Z</time>
      </trkpt>
      <trkpt lat="43.35798" lon="-1.55504">
        <ele>25</ele>
        <time>2026-08-23T12:18:41.000Z</time>
      </trkpt>
      <trkpt lat="43.35769" lon="-1.55301">
        <ele>22</ele>
        <time>2026-08-23T12:19:08.000Z</time>
      </trkpt>
      <trkpt lat="43.35763" lon="-1.55276">
        <ele>22</ele>
        <time>2026-08-23T12:19:11.000Z</time>
      </trkpt>
      <trkpt lat="43.35757" lon="-1.55264">
        <ele>22</ele>
        <time>2026-08-23T12:19:13.000Z</time>
      </trkpt>
      <trkpt lat="43.3574" lon="-1.55234">
        <ele>22</ele>
        <time>2026-08-23T12:19:18.000Z</time>
      </trkpt>
      <trkpt lat="43.35705" lon="-1.55184">
        <ele>22</ele>
        <time>2026-08-23T12:19:27.000Z</time>
      </trkpt>
      <trkpt lat="43.35676" lon="-1.55133">
        <ele>21</ele>
        <time>2026-08-23T12:19:35.000Z</time>
      </trkpt>
      <trkpt lat="43.35639" lon="-1.55061">
        <ele>22</ele>
        <time>2026-08-23T12:19:47.000Z</time>
      </trkpt>
      <trkpt lat="43.35753" lon="-1.54939">
        <ele>27</ele>
        <time>2026-08-23T12:20:12.000Z</time>
      </trkpt>
      <trkpt lat="43.35784" lon="-1.54901">
        <ele>30</ele>
        <time>2026-08-23T12:20:20.000Z</time>
      </trkpt>
      <trkpt lat="43.35848" lon="-1.54788">
        <ele>35</ele>
        <time>2026-08-23T12:20:38.000Z</time>
      </trkpt>
      <trkpt lat="43.35856" lon="-1.54778">
        <ele>36</ele>
        <time>2026-08-23T12:20:40.000Z</time>
      </trkpt>
      <trkpt lat="43.35883" lon="-1.5476">
        <ele>39</ele>
        <time>2026-08-23T12:20:46.000Z</time>
      </trkpt>
      <trkpt lat="43.3601" lon="-1.54708">
        <ele>53</ele>
        <time>2026-08-23T12:21:09.000Z</time>
      </trkpt>
      <trkpt lat="43.36026" lon="-1.54699">
        <ele>55</ele>
        <time>2026-08-23T12:21:12.000Z</time>
      </trkpt>
      <trkpt lat="43.36068" lon="-1.54671">
        <ele>58</ele>
        <time>2026-08-23T12:21:20.000Z</time>
      </trkpt>
      <trkpt lat="43.36199" lon="-1.54619">
        <ele>67</ele>
        <time>2026-08-23T12:21:45.000Z</time>
      </trkpt>
      <trkpt lat="43.36233" lon="-1.54606">
        <ele>67</ele>
        <time>2026-08-23T12:21:51.000Z</time>
      </trkpt>
      <trkpt lat="43.36274" lon="-1.54596">
        <ele>69</ele>
        <time>2026-08-23T12:21:58.000Z</time>
      </trkpt>
      <trkpt lat="43.3629" lon="-1.54587">
        <ele>70</ele>
        <time>2026-08-23T12:22:01.000Z</time>
      </trkpt>
      <trkpt lat="43.36304" lon="-1.54576">
        <ele>72</ele>
        <time>2026-08-23T12:22:04.000Z</time>
      </trkpt>
      <trkpt lat="43.3632" lon="-1.54556">
        <ele>76</ele>
        <time>2026-08-23T12:22:08.000Z</time>
      </trkpt>
      <trkpt lat="43.36338" lon="-1.54516">
        <ele>82</ele>
        <time>2026-08-23T12:22:14.000Z</time>
      </trkpt>
      <trkpt lat="43.36347" lon="-1.54511">
        <ele>83</ele>
        <time>2026-08-23T12:22:16.000Z</time>
      </trkpt>
      <trkpt lat="43.3637" lon="-1.54515">
        <ele>84</ele>
        <time>2026-08-23T12:22:20.000Z</time>
      </trkpt>
      <trkpt lat="43.36384" lon="-1.54515">
        <ele>85</ele>
        <time>2026-08-23T12:22:23.000Z</time>
      </trkpt>
      <trkpt lat="43.36529" lon="-1.54476">
        <ele>90</ele>
        <time>2026-08-23T12:22:49.000Z</time>
      </trkpt>
      <trkpt lat="43.36539" lon="-1.54346">
        <ele>90</ele>
        <time>2026-08-23T12:23:06.000Z</time>
      </trkpt>
      <trkpt lat="43.36522" lon="-1.54318">
        <ele>91</ele>
        <time>2026-08-23T12:23:11.000Z</time>
      </trkpt>
      <trkpt lat="43.36492" lon="-1.54318">
        <ele>95</ele>
        <time>2026-08-23T12:23:16.000Z</time>
      </trkpt>
      <trkpt lat="43.36468" lon="-1.54315">
        <ele>97</ele>
        <time>2026-08-23T12:23:20.000Z</time>
      </trkpt>
      <trkpt lat="43.36454" lon="-1.5431">
        <ele>99</ele>
        <time>2026-08-23T12:23:23.000Z</time>
      </trkpt>
      <trkpt lat="43.36434" lon="-1.54296">
        <ele>100</ele>
        <time>2026-08-23T12:23:27.000Z</time>
      </trkpt>
      <trkpt lat="43.36422" lon="-1.54277">
        <ele>101</ele>
        <time>2026-08-23T12:23:30.000Z</time>
      </trkpt>
      <trkpt lat="43.36416" lon="-1.54258">
        <ele>100</ele>
        <time>2026-08-23T12:23:33.000Z</time>
      </trkpt>
      <trkpt lat="43.36416" lon="-1.54232">
        <ele>99</ele>
        <time>2026-08-23T12:23:36.000Z</time>
      </trkpt>
      <trkpt lat="43.36438" lon="-1.54039">
        <ele>95</ele>
        <time>2026-08-23T12:24:01.000Z</time>
      </trkpt>
      <trkpt lat="43.3644" lon="-1.53976">
        <ele>96</ele>
        <time>2026-08-23T12:24:09.000Z</time>
      </trkpt>
      <trkpt lat="43.36451" lon="-1.53875">
        <ele>99</ele>
        <time>2026-08-23T12:24:23.000Z</time>
      </trkpt>
      <trkpt lat="43.36453" lon="-1.53796">
        <ele>99</ele>
        <time>2026-08-23T12:24:33.000Z</time>
      </trkpt>
      <trkpt lat="43.36458" lon="-1.5377">
        <ele>99</ele>
        <time>2026-08-23T12:24:36.000Z</time>
      </trkpt>
      <trkpt lat="43.36486" lon="-1.53691">
        <ele>98</ele>
        <time>2026-08-23T12:24:48.000Z</time>
      </trkpt>
      <trkpt lat="43.36504" lon="-1.53627">
        <ele>97</ele>
        <time>2026-08-23T12:24:57.000Z</time>
      </trkpt>
      <trkpt lat="43.36507" lon="-1.53566">
        <ele>97</ele>
        <time>2026-08-23T12:25:05.000Z</time>
      </trkpt>
      <trkpt lat="43.36496" lon="-1.53439">
        <ele>104</ele>
        <time>2026-08-23T12:25:21.000Z</time>
      </trkpt>
      <trkpt lat="43.36463" lon="-1.53252">
        <ele>108</ele>
        <time>2026-08-23T12:25:46.000Z</time>
      </trkpt>
      <trkpt lat="43.36424" lon="-1.53">
        <ele>110</ele>
        <time>2026-08-23T12:26:19.000Z</time>
      </trkpt>
      <trkpt lat="43.3641" lon="-1.52925">
        <ele>115</ele>
        <time>2026-08-23T12:26:29.000Z</time>
      </trkpt>
      <trkpt lat="43.36402" lon="-1.52897">
        <ele>114</ele>
        <time>2026-08-23T12:26:33.000Z</time>
      </trkpt>
      <trkpt lat="43.3639" lon="-1.52871">
        <ele>114</ele>
        <time>2026-08-23T12:26:37.000Z</time>
      </trkpt>
      <trkpt lat="43.36341" lon="-1.52783">
        <ele>117</ele>
        <time>2026-08-23T12:26:52.000Z</time>
      </trkpt>
      <trkpt lat="43.36322" lon="-1.52743">
        <ele>118</ele>
        <time>2026-08-23T12:26:58.000Z</time>
      </trkpt>
      <trkpt lat="43.36305" lon="-1.5269">
        <ele>120</ele>
        <time>2026-08-23T12:27:05.000Z</time>
      </trkpt>
      <trkpt lat="43.36299" lon="-1.52656">
        <ele>123</ele>
        <time>2026-08-23T12:27:10.000Z</time>
      </trkpt>
      <trkpt lat="43.36298" lon="-1.52625">
        <ele>125</ele>
        <time>2026-08-23T12:27:14.000Z</time>
      </trkpt>
      <trkpt lat="43.36335" lon="-1.52415">
        <ele>132</ele>
        <time>2026-08-23T12:27:42.000Z</time>
      </trkpt>
      <trkpt lat="43.36342" lon="-1.52397">
        <ele>132</ele>
        <time>2026-08-23T12:27:44.000Z</time>
      </trkpt>
      <trkpt lat="43.36356" lon="-1.52376">
        <ele>132</ele>
        <time>2026-08-23T12:27:48.000Z</time>
      </trkpt>
      <trkpt lat="43.3638" lon="-1.52351">
        <ele>132</ele>
        <time>2026-08-23T12:27:53.000Z</time>
      </trkpt>
      <trkpt lat="43.36417" lon="-1.52323">
        <ele>131</ele>
        <time>2026-08-23T12:28:01.000Z</time>
      </trkpt>
      <trkpt lat="43.36446" lon="-1.52304">
        <ele>130</ele>
        <time>2026-08-23T12:28:07.000Z</time>
      </trkpt>
      <trkpt lat="43.36473" lon="-1.5229">
        <ele>130</ele>
        <time>2026-08-23T12:28:12.000Z</time>
      </trkpt>
      <trkpt lat="43.36506" lon="-1.52278">
        <ele>131</ele>
        <time>2026-08-23T12:28:18.000Z</time>
      </trkpt>
      <trkpt lat="43.36523" lon="-1.52274">
        <ele>133</ele>
        <time>2026-08-23T12:28:21.000Z</time>
      </trkpt>
      <trkpt lat="43.36534" lon="-1.52277">
        <ele>133</ele>
        <time>2026-08-23T12:28:23.000Z</time>
      </trkpt>
      <trkpt lat="43.36545" lon="-1.52284">
        <ele>134</ele>
        <time>2026-08-23T12:28:25.000Z</time>
      </trkpt>
      <trkpt lat="43.36555" lon="-1.52297">
        <ele>134</ele>
        <time>2026-08-23T12:28:27.000Z</time>
      </trkpt>
      <trkpt lat="43.36591" lon="-1.52379">
        <ele>132</ele>
        <time>2026-08-23T12:28:40.000Z</time>
      </trkpt>
      <trkpt lat="43.36599" lon="-1.52391">
        <ele>132</ele>
        <time>2026-08-23T12:28:42.000Z</time>
      </trkpt>
      <trkpt lat="43.36609" lon="-1.52398">
        <ele>132</ele>
        <time>2026-08-23T12:28:44.000Z</time>
      </trkpt>
      <trkpt lat="43.3662" lon="-1.52401">
        <ele>133</ele>
        <time>2026-08-23T12:28:46.000Z</time>
      </trkpt>
      <trkpt lat="43.3663" lon="-1.52398">
        <ele>134</ele>
        <time>2026-08-23T12:28:48.000Z</time>
      </trkpt>
      <trkpt lat="43.36641" lon="-1.52391">
        <ele>135</ele>
        <time>2026-08-23T12:28:50.000Z</time>
      </trkpt>
      <trkpt lat="43.36655" lon="-1.52375">
        <ele>137</ele>
        <time>2026-08-23T12:28:53.000Z</time>
      </trkpt>
      <trkpt lat="43.36668" lon="-1.52369">
        <ele>138</ele>
        <time>2026-08-23T12:28:56.000Z</time>
      </trkpt>
      <trkpt lat="43.36702" lon="-1.52364">
        <ele>137</ele>
        <time>2026-08-23T12:29:02.000Z</time>
      </trkpt>
      <trkpt lat="43.36717" lon="-1.52356">
        <ele>137</ele>
        <time>2026-08-23T12:29:05.000Z</time>
      </trkpt>
      <trkpt lat="43.36755" lon="-1.52327">
        <ele>140</ele>
        <time>2026-08-23T12:29:12.000Z</time>
      </trkpt>
      <trkpt lat="43.36764" lon="-1.52325">
        <ele>141</ele>
        <time>2026-08-23T12:29:14.000Z</time>
      </trkpt>
      <trkpt lat="43.36773" lon="-1.52329">
        <ele>142</ele>
        <time>2026-08-23T12:29:16.000Z</time>
      </trkpt>
      <trkpt lat="43.36779" lon="-1.52335">
        <ele>142</ele>
        <time>2026-08-23T12:29:17.000Z</time>
      </trkpt>
      <trkpt lat="43.36787" lon="-1.5235">
        <ele>142</ele>
        <time>2026-08-23T12:29:19.000Z</time>
      </trkpt>
      <trkpt lat="43.36799" lon="-1.52394">
        <ele>140</ele>
        <time>2026-08-23T12:29:25.000Z</time>
      </trkpt>
      <trkpt lat="43.36817" lon="-1.52434">
        <ele>140</ele>
        <time>2026-08-23T12:29:32.000Z</time>
      </trkpt>
      <trkpt lat="43.36831" lon="-1.52476">
        <ele>140</ele>
        <time>2026-08-23T12:29:37.000Z</time>
      </trkpt>
      <trkpt lat="43.36841" lon="-1.52544">
        <ele>141</ele>
        <time>2026-08-23T12:29:46.000Z</time>
      </trkpt>
      <trkpt lat="43.36833" lon="-1.52584">
        <ele>140</ele>
        <time>2026-08-23T12:29:52.000Z</time>
      </trkpt>
      <trkpt lat="43.36833" lon="-1.52616">
        <ele>139</ele>
        <time>2026-08-23T12:29:56.000Z</time>
      </trkpt>
      <trkpt lat="43.36841" lon="-1.52631">
        <ele>139</ele>
        <time>2026-08-23T12:29:58.000Z</time>
      </trkpt>
      <trkpt lat="43.36853" lon="-1.52645">
        <ele>139</ele>
        <time>2026-08-23T12:30:01.000Z</time>
      </trkpt>
      <trkpt lat="43.36867" lon="-1.52655">
        <ele>139</ele>
        <time>2026-08-23T12:30:04.000Z</time>
      </trkpt>
      <trkpt lat="43.36882" lon="-1.52658">
        <ele>139</ele>
        <time>2026-08-23T12:30:07.000Z</time>
      </trkpt>
      <trkpt lat="43.36908" lon="-1.52652">
        <ele>141</ele>
        <time>2026-08-23T12:30:11.000Z</time>
      </trkpt>
      <trkpt lat="43.36952" lon="-1.52605">
        <ele>142</ele>
        <time>2026-08-23T12:30:21.000Z</time>
      </trkpt>
      <trkpt lat="43.37005" lon="-1.52582">
        <ele>141</ele>
        <time>2026-08-23T12:30:31.000Z</time>
      </trkpt>
      <trkpt lat="43.3703" lon="-1.52563">
        <ele>141</ele>
        <time>2026-08-23T12:30:36.000Z</time>
      </trkpt>
      <trkpt lat="43.37046" lon="-1.52546">
        <ele>141</ele>
        <time>2026-08-23T12:30:40.000Z</time>
      </trkpt>
      <trkpt lat="43.37057" lon="-1.52524">
        <ele>141</ele>
        <time>2026-08-23T12:30:43.000Z</time>
      </trkpt>
      <trkpt lat="43.37064" lon="-1.52497">
        <ele>141</ele>
        <time>2026-08-23T12:30:47.000Z</time>
      </trkpt>
      <trkpt lat="43.37068" lon="-1.52455">
        <ele>141</ele>
        <time>2026-08-23T12:30:52.000Z</time>
      </trkpt>
      <trkpt lat="43.37071" lon="-1.52361">
        <ele>143</ele>
        <time>2026-08-23T12:31:05.000Z</time>
      </trkpt>
      <trkpt lat="43.37078" lon="-1.52342">
        <ele>143</ele>
        <time>2026-08-23T12:31:07.000Z</time>
      </trkpt>
      <trkpt lat="43.37089" lon="-1.52331">
        <ele>142</ele>
        <time>2026-08-23T12:31:10.000Z</time>
      </trkpt>
      <trkpt lat="43.37124" lon="-1.52316">
        <ele>138</ele>
        <time>2026-08-23T12:31:16.000Z</time>
      </trkpt>
      <trkpt lat="43.37147" lon="-1.52301">
        <ele>136</ele>
        <time>2026-08-23T12:31:21.000Z</time>
      </trkpt>
      <trkpt lat="43.37178" lon="-1.52275">
        <ele>134</ele>
        <time>2026-08-23T12:31:27.000Z</time>
      </trkpt>
      <trkpt lat="43.37235" lon="-1.52208">
        <ele>137</ele>
        <time>2026-08-23T12:31:41.000Z</time>
      </trkpt>
      <trkpt lat="43.37257" lon="-1.52177">
        <ele>139</ele>
        <time>2026-08-23T12:31:46.000Z</time>
      </trkpt>
      <trkpt lat="43.37271" lon="-1.52149">
        <ele>139</ele>
        <time>2026-08-23T12:31:51.000Z</time>
      </trkpt>
      <trkpt lat="43.37283" lon="-1.52118">
        <ele>138</ele>
        <time>2026-08-23T12:31:55.000Z</time>
      </trkpt>
      <trkpt lat="43.37289" lon="-1.52082">
        <ele>138</ele>
        <time>2026-08-23T12:32:00.000Z</time>
      </trkpt>
      <trkpt lat="43.37287" lon="-1.52055">
        <ele>138</ele>
        <time>2026-08-23T12:32:04.000Z</time>
      </trkpt>
      <trkpt lat="43.37275" lon="-1.52001">
        <ele>138</ele>
        <time>2026-08-23T12:32:11.000Z</time>
      </trkpt>
      <trkpt lat="43.37258" lon="-1.51934">
        <ele>139</ele>
        <time>2026-08-23T12:32:20.000Z</time>
      </trkpt>
      <trkpt lat="43.37239" lon="-1.51887">
        <ele>140</ele>
        <time>2026-08-23T12:32:27.000Z</time>
      </trkpt>
      <trkpt lat="43.37228" lon="-1.51845">
        <ele>139</ele>
        <time>2026-08-23T12:32:33.000Z</time>
      </trkpt>
      <trkpt lat="43.37229" lon="-1.518">
        <ele>139</ele>
        <time>2026-08-23T12:32:39.000Z</time>
      </trkpt>
      <trkpt lat="43.37249" lon="-1.51722">
        <ele>139</ele>
        <time>2026-08-23T12:32:49.000Z</time>
      </trkpt>
      <trkpt lat="43.37263" lon="-1.51685">
        <ele>138</ele>
        <time>2026-08-23T12:32:55.000Z</time>
      </trkpt>
      <trkpt lat="43.37279" lon="-1.51656">
        <ele>137</ele>
        <time>2026-08-23T12:32:59.000Z</time>
      </trkpt>
      <trkpt lat="43.373" lon="-1.51641">
        <ele>137</ele>
        <time>2026-08-23T12:33:04.000Z</time>
      </trkpt>
      <trkpt lat="43.37384" lon="-1.51611">
        <ele>134</ele>
        <time>2026-08-23T12:33:19.000Z</time>
      </trkpt>
      <trkpt lat="43.374" lon="-1.51603">
        <ele>134</ele>
        <time>2026-08-23T12:33:22.000Z</time>
      </trkpt>
      <trkpt lat="43.37411" lon="-1.51588">
        <ele>135</ele>
        <time>2026-08-23T12:33:25.000Z</time>
      </trkpt>
      <trkpt lat="43.37423" lon="-1.51565">
        <ele>134</ele>
        <time>2026-08-23T12:33:28.000Z</time>
      </trkpt>
      <trkpt lat="43.37427" lon="-1.51539">
        <ele>134</ele>
        <time>2026-08-23T12:33:32.000Z</time>
      </trkpt>
      <trkpt lat="43.37438" lon="-1.51436">
        <ele>133</ele>
        <time>2026-08-23T12:33:45.000Z</time>
      </trkpt>
      <trkpt lat="43.37448" lon="-1.51363">
        <ele>132</ele>
        <time>2026-08-23T12:33:55.000Z</time>
      </trkpt>
      <trkpt lat="43.37452" lon="-1.51326">
        <ele>131</ele>
        <time>2026-08-23T12:34:00.000Z</time>
      </trkpt>
      <trkpt lat="43.37452" lon="-1.51292">
        <ele>132</ele>
        <time>2026-08-23T12:34:04.000Z</time>
      </trkpt>
      <trkpt lat="43.37454" lon="-1.51254">
        <ele>132</ele>
        <time>2026-08-23T12:34:09.000Z</time>
      </trkpt>
      <trkpt lat="43.37462" lon="-1.51223">
        <ele>132</ele>
        <time>2026-08-23T12:34:13.000Z</time>
      </trkpt>
      <trkpt lat="43.37487" lon="-1.51176">
        <ele>134</ele>
        <time>2026-08-23T12:34:21.000Z</time>
      </trkpt>
      <trkpt lat="43.37498" lon="-1.51158">
        <ele>135</ele>
        <time>2026-08-23T12:34:24.000Z</time>
      </trkpt>
      <trkpt lat="43.37508" lon="-1.51147">
        <ele>136</ele>
        <time>2026-08-23T12:34:26.000Z</time>
      </trkpt>
      <trkpt lat="43.37523" lon="-1.51135">
        <ele>136</ele>
        <time>2026-08-23T12:34:29.000Z</time>
      </trkpt>
      <trkpt lat="43.37543" lon="-1.5113">
        <ele>136</ele>
        <time>2026-08-23T12:34:33.000Z</time>
      </trkpt>
      <trkpt lat="43.37576" lon="-1.51129">
        <ele>136</ele>
        <time>2026-08-23T12:34:39.000Z</time>
      </trkpt>
      <trkpt lat="43.37596" lon="-1.51133">
        <ele>136</ele>
        <time>2026-08-23T12:34:42.000Z</time>
      </trkpt>
      <trkpt lat="43.37641" lon="-1.51154">
        <ele>135</ele>
        <time>2026-08-23T12:34:51.000Z</time>
      </trkpt>
      <trkpt lat="43.37666" lon="-1.51152">
        <ele>136</ele>
        <time>2026-08-23T12:34:55.000Z</time>
      </trkpt>
      <trkpt lat="43.3768" lon="-1.51144">
        <ele>136</ele>
        <time>2026-08-23T12:34:58.000Z</time>
      </trkpt>
      <trkpt lat="43.37693" lon="-1.51128">
        <ele>136</ele>
        <time>2026-08-23T12:35:01.000Z</time>
      </trkpt>
      <trkpt lat="43.37704" lon="-1.51106">
        <ele>137</ele>
        <time>2026-08-23T12:35:05.000Z</time>
      </trkpt>
      <trkpt lat="43.37723" lon="-1.51051">
        <ele>137</ele>
        <time>2026-08-23T12:35:12.000Z</time>
      </trkpt>
      <trkpt lat="43.37737" lon="-1.51026">
        <ele>136</ele>
        <time>2026-08-23T12:35:17.000Z</time>
      </trkpt>
      <trkpt lat="43.37768" lon="-1.50997">
        <ele>135</ele>
        <time>2026-08-23T12:35:23.000Z</time>
      </trkpt>
      <trkpt lat="43.37838" lon="-1.50848">
        <ele>132</ele>
        <time>2026-08-23T12:35:46.000Z</time>
      </trkpt>
      <trkpt lat="43.37847" lon="-1.50819">
        <ele>132</ele>
        <time>2026-08-23T12:35:50.000Z</time>
      </trkpt>
      <trkpt lat="43.37859" lon="-1.50665">
        <ele>129</ele>
        <time>2026-08-23T12:36:10.000Z</time>
      </trkpt>
      <trkpt lat="43.37871" lon="-1.50596">
        <ele>128</ele>
        <time>2026-08-23T12:36:19.000Z</time>
      </trkpt>
      <trkpt lat="43.37875" lon="-1.50531">
        <ele>128</ele>
        <time>2026-08-23T12:36:28.000Z</time>
      </trkpt>
      <trkpt lat="43.37867" lon="-1.50466">
        <ele>127</ele>
        <time>2026-08-23T12:36:36.000Z</time>
      </trkpt>
      <trkpt lat="43.37871" lon="-1.5045">
        <ele>127</ele>
        <time>2026-08-23T12:36:39.000Z</time>
      </trkpt>
      <trkpt lat="43.37878" lon="-1.50441">
        <ele>128</ele>
        <time>2026-08-23T12:36:40.000Z</time>
      </trkpt>
      <trkpt lat="43.3789" lon="-1.50437">
        <ele>128</ele>
        <time>2026-08-23T12:36:42.000Z</time>
      </trkpt>
      <trkpt lat="43.37906" lon="-1.50439">
        <ele>129</ele>
        <time>2026-08-23T12:36:45.000Z</time>
      </trkpt>
      <trkpt lat="43.37933" lon="-1.50453">
        <ele>129</ele>
        <time>2026-08-23T12:36:50.000Z</time>
      </trkpt>
      <trkpt lat="43.37947" lon="-1.50456">
        <ele>129</ele>
        <time>2026-08-23T12:36:53.000Z</time>
      </trkpt>
      <trkpt lat="43.37963" lon="-1.50452">
        <ele>129</ele>
        <time>2026-08-23T12:36:56.000Z</time>
      </trkpt>
      <trkpt lat="43.37996" lon="-1.50438">
        <ele>128</ele>
        <time>2026-08-23T12:37:02.000Z</time>
      </trkpt>
      <trkpt lat="43.38017" lon="-1.50433">
        <ele>128</ele>
        <time>2026-08-23T12:37:06.000Z</time>
      </trkpt>
      <trkpt lat="43.38125" lon="-1.5043">
        <ele>127</ele>
        <time>2026-08-23T12:37:25.000Z</time>
      </trkpt>
      <trkpt lat="43.3815" lon="-1.50433">
        <ele>127</ele>
        <time>2026-08-23T12:37:29.000Z</time>
      </trkpt>
      <trkpt lat="43.3826" lon="-1.50458">
        <ele>127</ele>
        <time>2026-08-23T12:37:49.000Z</time>
      </trkpt>
      <trkpt lat="43.38306" lon="-1.50472">
        <ele>127</ele>
        <time>2026-08-23T12:37:58.000Z</time>
      </trkpt>
      <trkpt lat="43.3834" lon="-1.50488">
        <ele>126</ele>
        <time>2026-08-23T12:38:04.000Z</time>
      </trkpt>
      <trkpt lat="43.38504" lon="-1.5058">
        <ele>126</ele>
        <time>2026-08-23T12:38:36.000Z</time>
      </trkpt>
      <trkpt lat="43.38525" lon="-1.50587">
        <ele>126</ele>
        <time>2026-08-23T12:38:39.000Z</time>
      </trkpt>
      <trkpt lat="43.3854" lon="-1.50587">
        <ele>125</ele>
        <time>2026-08-23T12:38:42.000Z</time>
      </trkpt>
      <trkpt lat="43.38575" lon="-1.50578">
        <ele>123</ele>
        <time>2026-08-23T12:38:48.000Z</time>
      </trkpt>
      <trkpt lat="43.38597" lon="-1.50576">
        <ele>121</ele>
        <time>2026-08-23T12:38:52.000Z</time>
      </trkpt>
      <trkpt lat="43.38611" lon="-1.50577">
        <ele>121</ele>
        <time>2026-08-23T12:38:55.000Z</time>
      </trkpt>
      <trkpt lat="43.38628" lon="-1.50587">
        <ele>121</ele>
        <time>2026-08-23T12:38:58.000Z</time>
      </trkpt>
      <trkpt lat="43.38673" lon="-1.50618">
        <ele>121</ele>
        <time>2026-08-23T12:39:07.000Z</time>
      </trkpt>
      <trkpt lat="43.38731" lon="-1.5064">
        <ele>119</ele>
        <time>2026-08-23T12:39:18.000Z</time>
      </trkpt>
      <trkpt lat="43.38751" lon="-1.50652">
        <ele>119</ele>
        <time>2026-08-23T12:39:22.000Z</time>
      </trkpt>
      <trkpt lat="43.38779" lon="-1.50691">
        <ele>118</ele>
        <time>2026-08-23T12:39:29.000Z</time>
      </trkpt>
      <trkpt lat="43.38883" lon="-1.50871">
        <ele>106</ele>
        <time>2026-08-23T12:39:59.000Z</time>
      </trkpt>
      <trkpt lat="43.38896" lon="-1.50886">
        <ele>105</ele>
        <time>2026-08-23T12:40:02.000Z</time>
      </trkpt>
      <trkpt lat="43.38913" lon="-1.50897">
        <ele>105</ele>
        <time>2026-08-23T12:40:05.000Z</time>
      </trkpt>
      <trkpt lat="43.38993" lon="-1.50922">
        <ele>104</ele>
        <time>2026-08-23T12:40:19.000Z</time>
      </trkpt>
      <trkpt lat="43.39025" lon="-1.50929">
        <ele>104</ele>
        <time>2026-08-23T12:40:25.000Z</time>
      </trkpt>
      <trkpt lat="43.39143" lon="-1.50927">
        <ele>105</ele>
        <time>2026-08-23T12:40:46.000Z</time>
      </trkpt>
      <trkpt lat="43.39257" lon="-1.50928">
        <ele>101</ele>
        <time>2026-08-23T12:41:07.000Z</time>
      </trkpt>
      <trkpt lat="43.39367" lon="-1.50934">
        <ele>97</ele>
        <time>2026-08-23T12:41:26.000Z</time>
      </trkpt>
      <trkpt lat="43.39544" lon="-1.5088">
        <ele>93</ele>
        <time>2026-08-23T12:41:58.000Z</time>
      </trkpt>
      <trkpt lat="43.39559" lon="-1.50872">
        <ele>93</ele>
        <time>2026-08-23T12:42:01.000Z</time>
      </trkpt>
      <trkpt lat="43.39673" lon="-1.5078">
        <ele>92</ele>
        <time>2026-08-23T12:42:25.000Z</time>
      </trkpt>
      <trkpt lat="43.39696" lon="-1.50757">
        <ele>91</ele>
        <time>2026-08-23T12:42:30.000Z</time>
      </trkpt>
      <trkpt lat="43.39753" lon="-1.50694">
        <ele>89</ele>
        <time>2026-08-23T12:42:43.000Z</time>
      </trkpt>
      <trkpt lat="43.39829" lon="-1.50627">
        <ele>86</ele>
        <time>2026-08-23T12:42:59.000Z</time>
      </trkpt>
      <trkpt lat="43.39847" lon="-1.50613">
        <ele>86</ele>
        <time>2026-08-23T12:43:03.000Z</time>
      </trkpt>
      <trkpt lat="43.39862" lon="-1.50605">
        <ele>86</ele>
        <time>2026-08-23T12:43:05.000Z</time>
      </trkpt>
      <trkpt lat="43.3989" lon="-1.50599">
        <ele>86</ele>
        <time>2026-08-23T12:43:10.000Z</time>
      </trkpt>
      <trkpt lat="43.39908" lon="-1.50601">
        <ele>85</ele>
        <time>2026-08-23T12:43:14.000Z</time>
      </trkpt>
      <trkpt lat="43.39924" lon="-1.50605">
        <ele>84</ele>
        <time>2026-08-23T12:43:17.000Z</time>
      </trkpt>
      <trkpt lat="43.39942" lon="-1.50614">
        <ele>84</ele>
        <time>2026-08-23T12:43:20.000Z</time>
      </trkpt>
      <trkpt lat="43.40114" lon="-1.50736">
        <ele>83</ele>
        <time>2026-08-23T12:43:54.000Z</time>
      </trkpt>
      <trkpt lat="43.40125" lon="-1.50742">
        <ele>83</ele>
        <time>2026-08-23T12:43:57.000Z</time>
      </trkpt>
      <trkpt lat="43.40135" lon="-1.50745">
        <ele>84</ele>
        <time>2026-08-23T12:43:58.000Z</time>
      </trkpt>
      <trkpt lat="43.40153" lon="-1.50743">
        <ele>84</ele>
        <time>2026-08-23T12:44:02.000Z</time>
      </trkpt>
      <trkpt lat="43.40165" lon="-1.50737">
        <ele>85</ele>
        <time>2026-08-23T12:44:04.000Z</time>
      </trkpt>
      <trkpt lat="43.40223" lon="-1.50687">
        <ele>86</ele>
        <time>2026-08-23T12:44:16.000Z</time>
      </trkpt>
      <trkpt lat="43.40252" lon="-1.50668">
        <ele>87</ele>
        <time>2026-08-23T12:44:22.000Z</time>
      </trkpt>
      <trkpt lat="43.40269" lon="-1.50655">
        <ele>86</ele>
        <time>2026-08-23T12:44:25.000Z</time>
      </trkpt>
      <trkpt lat="43.40281" lon="-1.50639">
        <ele>87</ele>
        <time>2026-08-23T12:44:28.000Z</time>
      </trkpt>
      <trkpt lat="43.4029" lon="-1.5062">
        <ele>87</ele>
        <time>2026-08-23T12:44:31.000Z</time>
      </trkpt>
      <trkpt lat="43.4033" lon="-1.50505">
        <ele>93</ele>
        <time>2026-08-23T12:44:48.000Z</time>
      </trkpt>
      <trkpt lat="43.40338" lon="-1.50489">
        <ele>93</ele>
        <time>2026-08-23T12:44:50.000Z</time>
      </trkpt>
      <trkpt lat="43.40348" lon="-1.50475">
        <ele>93</ele>
        <time>2026-08-23T12:44:53.000Z</time>
      </trkpt>
      <trkpt lat="43.4036" lon="-1.50463">
        <ele>93</ele>
        <time>2026-08-23T12:44:55.000Z</time>
      </trkpt>
      <trkpt lat="43.404" lon="-1.50427">
        <ele>93</ele>
        <time>2026-08-23T12:45:04.000Z</time>
      </trkpt>
      <trkpt lat="43.4041" lon="-1.50423">
        <ele>93</ele>
        <time>2026-08-23T12:45:06.000Z</time>
      </trkpt>
      <trkpt lat="43.4042" lon="-1.50421">
        <ele>93</ele>
        <time>2026-08-23T12:45:07.000Z</time>
      </trkpt>
      <trkpt lat="43.40431" lon="-1.50425">
        <ele>92</ele>
        <time>2026-08-23T12:45:09.000Z</time>
      </trkpt>
      <trkpt lat="43.40442" lon="-1.50435">
        <ele>92</ele>
        <time>2026-08-23T12:45:12.000Z</time>
      </trkpt>
      <trkpt lat="43.40474" lon="-1.50475">
        <ele>89</ele>
        <time>2026-08-23T12:45:19.000Z</time>
      </trkpt>
      <trkpt lat="43.40485" lon="-1.5048">
        <ele>89</ele>
        <time>2026-08-23T12:45:22.000Z</time>
      </trkpt>
      <trkpt lat="43.40498" lon="-1.50481">
        <ele>89</ele>
        <time>2026-08-23T12:45:24.000Z</time>
      </trkpt>
      <trkpt lat="43.40505" lon="-1.50479">
        <ele>89</ele>
        <time>2026-08-23T12:45:25.000Z</time>
      </trkpt>
      <trkpt lat="43.40516" lon="-1.5047">
        <ele>89</ele>
        <time>2026-08-23T12:45:27.000Z</time>
      </trkpt>
      <trkpt lat="43.40544" lon="-1.50422">
        <ele>90</ele>
        <time>2026-08-23T12:45:35.000Z</time>
      </trkpt>
      <trkpt lat="43.40553" lon="-1.50412">
        <ele>91</ele>
        <time>2026-08-23T12:45:37.000Z</time>
      </trkpt>
      <trkpt lat="43.40568" lon="-1.50403">
        <ele>90</ele>
        <time>2026-08-23T12:45:40.000Z</time>
      </trkpt>
      <trkpt lat="43.40636" lon="-1.50391">
        <ele>88</ele>
        <time>2026-08-23T12:45:53.000Z</time>
      </trkpt>
      <trkpt lat="43.40652" lon="-1.50394">
        <ele>87</ele>
        <time>2026-08-23T12:45:55.000Z</time>
      </trkpt>
      <trkpt lat="43.40686" lon="-1.50409">
        <ele>85</ele>
        <time>2026-08-23T12:46:02.000Z</time>
      </trkpt>
      <trkpt lat="43.40747" lon="-1.5044">
        <ele>81</ele>
        <time>2026-08-23T12:46:13.000Z</time>
      </trkpt>
      <trkpt lat="43.40758" lon="-1.50448">
        <ele>81</ele>
        <time>2026-08-23T12:46:16.000Z</time>
      </trkpt>
      <trkpt lat="43.40771" lon="-1.50464">
        <ele>80</ele>
        <time>2026-08-23T12:46:19.000Z</time>
      </trkpt>
      <trkpt lat="43.40778" lon="-1.50485">
        <ele>81</ele>
        <time>2026-08-23T12:46:22.000Z</time>
      </trkpt>
      <trkpt lat="43.4078" lon="-1.50519">
        <ele>82</ele>
        <time>2026-08-23T12:46:26.000Z</time>
      </trkpt>
      <trkpt lat="43.40782" lon="-1.50531">
        <ele>81</ele>
        <time>2026-08-23T12:46:28.000Z</time>
      </trkpt>
      <trkpt lat="43.40788" lon="-1.50542">
        <ele>81</ele>
        <time>2026-08-23T12:46:29.000Z</time>
      </trkpt>
      <trkpt lat="43.40799" lon="-1.50554">
        <ele>80</ele>
        <time>2026-08-23T12:46:32.000Z</time>
      </trkpt>
      <trkpt lat="43.40809" lon="-1.50559">
        <ele>80</ele>
        <time>2026-08-23T12:46:34.000Z</time>
      </trkpt>
      <trkpt lat="43.40827" lon="-1.50565">
        <ele>79</ele>
        <time>2026-08-23T12:46:37.000Z</time>
      </trkpt>
      <trkpt lat="43.40846" lon="-1.50574">
        <ele>78</ele>
        <time>2026-08-23T12:46:41.000Z</time>
      </trkpt>
      <trkpt lat="43.40868" lon="-1.50598">
        <ele>77</ele>
        <time>2026-08-23T12:46:46.000Z</time>
      </trkpt>
      <trkpt lat="43.40893" lon="-1.50642">
        <ele>77</ele>
        <time>2026-08-23T12:46:53.000Z</time>
      </trkpt>
      <trkpt lat="43.40906" lon="-1.50656">
        <ele>77</ele>
        <time>2026-08-23T12:46:56.000Z</time>
      </trkpt>
      <trkpt lat="43.40919" lon="-1.5066">
        <ele>76</ele>
        <time>2026-08-23T12:46:58.000Z</time>
      </trkpt>
      <trkpt lat="43.40931" lon="-1.5066">
        <ele>76</ele>
        <time>2026-08-23T12:47:00.000Z</time>
      </trkpt>
      <trkpt lat="43.40948" lon="-1.50654">
        <ele>74</ele>
        <time>2026-08-23T12:47:03.000Z</time>
      </trkpt>
      <trkpt lat="43.40962" lon="-1.5064">
        <ele>73</ele>
        <time>2026-08-23T12:47:07.000Z</time>
      </trkpt>
      <trkpt lat="43.40989" lon="-1.50598">
        <ele>71</ele>
        <time>2026-08-23T12:47:14.000Z</time>
      </trkpt>
      <trkpt lat="43.41004" lon="-1.50586">
        <ele>71</ele>
        <time>2026-08-23T12:47:17.000Z</time>
      </trkpt>
      <trkpt lat="43.41094" lon="-1.50533">
        <ele>70</ele>
        <time>2026-08-23T12:47:34.000Z</time>
      </trkpt>
      <trkpt lat="43.41116" lon="-1.50523">
        <ele>70</ele>
        <time>2026-08-23T12:47:38.000Z</time>
      </trkpt>
      <trkpt lat="43.41156" lon="-1.5051">
        <ele>72</ele>
        <time>2026-08-23T12:47:46.000Z</time>
      </trkpt>
      <trkpt lat="43.4117" lon="-1.50498">
        <ele>72</ele>
        <time>2026-08-23T12:47:49.000Z</time>
      </trkpt>
      <trkpt lat="43.41181" lon="-1.50474">
        <ele>73</ele>
        <time>2026-08-23T12:47:52.000Z</time>
      </trkpt>
      <trkpt lat="43.41191" lon="-1.50454">
        <ele>73</ele>
        <time>2026-08-23T12:47:55.000Z</time>
      </trkpt>
      <trkpt lat="43.41202" lon="-1.50443">
        <ele>74</ele>
        <time>2026-08-23T12:47:58.000Z</time>
      </trkpt>
      <trkpt lat="43.41214" lon="-1.50438">
        <ele>74</ele>
        <time>2026-08-23T12:48:00.000Z</time>
      </trkpt>
      <trkpt lat="43.41226" lon="-1.50437">
        <ele>75</ele>
        <time>2026-08-23T12:48:02.000Z</time>
      </trkpt>
      <trkpt lat="43.4124" lon="-1.50442">
        <ele>75</ele>
        <time>2026-08-23T12:48:05.000Z</time>
      </trkpt>
      <trkpt lat="43.41251" lon="-1.50453">
        <ele>75</ele>
        <time>2026-08-23T12:48:07.000Z</time>
      </trkpt>
      <trkpt lat="43.41293" lon="-1.5051">
        <ele>72</ele>
        <time>2026-08-23T12:48:18.000Z</time>
      </trkpt>
      <trkpt lat="43.41311" lon="-1.5054">
        <ele>71</ele>
        <time>2026-08-23T12:48:23.000Z</time>
      </trkpt>
      <trkpt lat="43.41331" lon="-1.50568">
        <ele>71</ele>
        <time>2026-08-23T12:48:28.000Z</time>
      </trkpt>
      <trkpt lat="43.41356" lon="-1.50596">
        <ele>70</ele>
        <time>2026-08-23T12:48:34.000Z</time>
      </trkpt>
      <trkpt lat="43.41372" lon="-1.50611">
        <ele>70</ele>
        <time>2026-08-23T12:48:37.000Z</time>
      </trkpt>
      <trkpt lat="43.41387" lon="-1.50617">
        <ele>70</ele>
        <time>2026-08-23T12:48:40.000Z</time>
      </trkpt>
      <trkpt lat="43.41404" lon="-1.50621">
        <ele>70</ele>
        <time>2026-08-23T12:48:43.000Z</time>
      </trkpt>
      <trkpt lat="43.41466" lon="-1.50626">
        <ele>67</ele>
        <time>2026-08-23T12:48:54.000Z</time>
      </trkpt>
      <trkpt lat="43.41518" lon="-1.50641">
        <ele>67</ele>
        <time>2026-08-23T12:49:03.000Z</time>
      </trkpt>
      <trkpt lat="43.4154" lon="-1.50646">
        <ele>68</ele>
        <time>2026-08-23T12:49:07.000Z</time>
      </trkpt>
      <trkpt lat="43.41551" lon="-1.50645">
        <ele>68</ele>
        <time>2026-08-23T12:49:09.000Z</time>
      </trkpt>
      <trkpt lat="43.41562" lon="-1.50642">
        <ele>68</ele>
        <time>2026-08-23T12:49:11.000Z</time>
      </trkpt>
      <trkpt lat="43.41603" lon="-1.5062">
        <ele>66</ele>
        <time>2026-08-23T12:49:19.000Z</time>
      </trkpt>
      <trkpt lat="43.41617" lon="-1.50616">
        <ele>66</ele>
        <time>2026-08-23T12:49:22.000Z</time>
      </trkpt>
      <trkpt lat="43.41629" lon="-1.50618">
        <ele>65</ele>
        <time>2026-08-23T12:49:24.000Z</time>
      </trkpt>
      <trkpt lat="43.41641" lon="-1.50624">
        <ele>66</ele>
        <time>2026-08-23T12:49:26.000Z</time>
      </trkpt>
      <trkpt lat="43.41667" lon="-1.5065">
        <ele>66</ele>
        <time>2026-08-23T12:49:32.000Z</time>
      </trkpt>
      <trkpt lat="43.41676" lon="-1.50655">
        <ele>67</ele>
        <time>2026-08-23T12:49:34.000Z</time>
      </trkpt>
      <trkpt lat="43.41686" lon="-1.50655">
        <ele>67</ele>
        <time>2026-08-23T12:49:35.000Z</time>
      </trkpt>
      <trkpt lat="43.41722" lon="-1.50646">
        <ele>67</ele>
        <time>2026-08-23T12:49:42.000Z</time>
      </trkpt>
      <trkpt lat="43.4175" lon="-1.50649">
        <ele>68</ele>
        <time>2026-08-23T12:49:47.000Z</time>
      </trkpt>
      <trkpt lat="43.41807" lon="-1.50675">
        <ele>67</ele>
        <time>2026-08-23T12:49:57.000Z</time>
      </trkpt>
      <trkpt lat="43.41829" lon="-1.50687">
        <ele>67</ele>
        <time>2026-08-23T12:50:02.000Z</time>
      </trkpt>
      <trkpt lat="43.41843" lon="-1.50702">
        <ele>66</ele>
        <time>2026-08-23T12:50:05.000Z</time>
      </trkpt>
      <trkpt lat="43.41926" lon="-1.50818">
        <ele>67</ele>
        <time>2026-08-23T12:50:26.000Z</time>
      </trkpt>
      <trkpt lat="43.41939" lon="-1.50825">
        <ele>67</ele>
        <time>2026-08-23T12:50:28.000Z</time>
      </trkpt>
      <trkpt lat="43.41949" lon="-1.50826">
        <ele>67</ele>
        <time>2026-08-23T12:50:30.000Z</time>
      </trkpt>
      <trkpt lat="43.41965" lon="-1.50823">
        <ele>67</ele>
        <time>2026-08-23T12:50:33.000Z</time>
      </trkpt>
      <trkpt lat="43.4204" lon="-1.50766">
        <ele>61</ele>
        <time>2026-08-23T12:50:48.000Z</time>
      </trkpt>
      <trkpt lat="43.42055" lon="-1.50761">
        <ele>60</ele>
        <time>2026-08-23T12:50:51.000Z</time>
      </trkpt>
      <trkpt lat="43.42066" lon="-1.50761">
        <ele>60</ele>
        <time>2026-08-23T12:50:53.000Z</time>
      </trkpt>
      <trkpt lat="43.42077" lon="-1.50766">
        <ele>61</ele>
        <time>2026-08-23T12:50:55.000Z</time>
      </trkpt>
      <trkpt lat="43.42087" lon="-1.50774">
        <ele>61</ele>
        <time>2026-08-23T12:50:57.000Z</time>
      </trkpt>
      <trkpt lat="43.42094" lon="-1.50783">
        <ele>61</ele>
        <time>2026-08-23T12:50:59.000Z</time>
      </trkpt>
      <trkpt lat="43.42153" lon="-1.50923">
        <ele>61</ele>
        <time>2026-08-23T12:51:20.000Z</time>
      </trkpt>
      <trkpt lat="43.42167" lon="-1.50946">
        <ele>61</ele>
        <time>2026-08-23T12:51:24.000Z</time>
      </trkpt>
      <trkpt lat="43.42217" lon="-1.50998">
        <ele>61</ele>
        <time>2026-08-23T12:51:35.000Z</time>
      </trkpt>
      <trkpt lat="43.42233" lon="-1.51008">
        <ele>61</ele>
        <time>2026-08-23T12:51:38.000Z</time>
      </trkpt>
      <trkpt lat="43.42313" lon="-1.51038">
        <ele>59</ele>
        <time>2026-08-23T12:51:53.000Z</time>
      </trkpt>
      <trkpt lat="43.42355" lon="-1.5106">
        <ele>58</ele>
        <time>2026-08-23T12:52:01.000Z</time>
      </trkpt>
      <trkpt lat="43.42446" lon="-1.51147">
        <ele>54</ele>
        <time>2026-08-23T12:52:20.000Z</time>
      </trkpt>
      <trkpt lat="43.42526" lon="-1.51228">
        <ele>55</ele>
        <time>2026-08-23T12:52:38.000Z</time>
      </trkpt>
      <trkpt lat="43.42538" lon="-1.51234">
        <ele>56</ele>
        <time>2026-08-23T12:52:40.000Z</time>
      </trkpt>
      <trkpt lat="43.42552" lon="-1.51237">
        <ele>57</ele>
        <time>2026-08-23T12:52:43.000Z</time>
      </trkpt>
      <trkpt lat="43.42564" lon="-1.51233">
        <ele>57</ele>
        <time>2026-08-23T12:52:45.000Z</time>
      </trkpt>
      <trkpt lat="43.42574" lon="-1.51225">
        <ele>57</ele>
        <time>2026-08-23T12:52:47.000Z</time>
      </trkpt>
      <trkpt lat="43.42635" lon="-1.51149">
        <ele>58</ele>
        <time>2026-08-23T12:53:02.000Z</time>
      </trkpt>
      <trkpt lat="43.42647" lon="-1.51139">
        <ele>58</ele>
        <time>2026-08-23T12:53:04.000Z</time>
      </trkpt>
      <trkpt lat="43.42658" lon="-1.51137">
        <ele>59</ele>
        <time>2026-08-23T12:53:06.000Z</time>
      </trkpt>
      <trkpt lat="43.42668" lon="-1.51139">
        <ele>59</ele>
        <time>2026-08-23T12:53:08.000Z</time>
      </trkpt>
      <trkpt lat="43.42677" lon="-1.51144">
        <ele>59</ele>
        <time>2026-08-23T12:53:10.000Z</time>
      </trkpt>
      <trkpt lat="43.42685" lon="-1.51155">
        <ele>60</ele>
        <time>2026-08-23T12:53:12.000Z</time>
      </trkpt>
      <trkpt lat="43.42693" lon="-1.51182">
        <ele>61</ele>
        <time>2026-08-23T12:53:15.000Z</time>
      </trkpt>
      <trkpt lat="43.42724" lon="-1.51336">
        <ele>68</ele>
        <time>2026-08-23T12:53:36.000Z</time>
      </trkpt>
      <trkpt lat="43.42731" lon="-1.51359">
        <ele>68</ele>
        <time>2026-08-23T12:53:39.000Z</time>
      </trkpt>
      <trkpt lat="43.42739" lon="-1.51376">
        <ele>68</ele>
        <time>2026-08-23T12:53:42.000Z</time>
      </trkpt>
      <trkpt lat="43.42748" lon="-1.51391">
        <ele>68</ele>
        <time>2026-08-23T12:53:44.000Z</time>
      </trkpt>
      <trkpt lat="43.42776" lon="-1.51417">
        <ele>69</ele>
        <time>2026-08-23T12:53:50.000Z</time>
      </trkpt>
      <trkpt lat="43.42808" lon="-1.51439">
        <ele>69</ele>
        <time>2026-08-23T12:53:57.000Z</time>
      </trkpt>
      <trkpt lat="43.42825" lon="-1.51444">
        <ele>69</ele>
        <time>2026-08-23T12:54:00.000Z</time>
      </trkpt>
      <trkpt lat="43.4285" lon="-1.51447">
        <ele>68</ele>
        <time>2026-08-23T12:54:04.000Z</time>
      </trkpt>
      <trkpt lat="43.42869" lon="-1.51446">
        <ele>68</ele>
        <time>2026-08-23T12:54:08.000Z</time>
      </trkpt>
      <trkpt lat="43.42889" lon="-1.51436">
        <ele>67</ele>
        <time>2026-08-23T12:54:12.000Z</time>
      </trkpt>
      <trkpt lat="43.42901" lon="-1.51424">
        <ele>68</ele>
        <time>2026-08-23T12:54:14.000Z</time>
      </trkpt>
      <trkpt lat="43.4293" lon="-1.51367">
        <ele>71</ele>
        <time>2026-08-23T12:54:23.000Z</time>
      </trkpt>
      <trkpt lat="43.42943" lon="-1.51351">
        <ele>72</ele>
        <time>2026-08-23T12:54:26.000Z</time>
      </trkpt>
      <trkpt lat="43.4296" lon="-1.51336">
        <ele>73</ele>
        <time>2026-08-23T12:54:30.000Z</time>
      </trkpt>
      <trkpt lat="43.42976" lon="-1.51329">
        <ele>72</ele>
        <time>2026-08-23T12:54:33.000Z</time>
      </trkpt>
      <trkpt lat="43.42994" lon="-1.51328">
        <ele>72</ele>
        <time>2026-08-23T12:54:36.000Z</time>
      </trkpt>
      <trkpt lat="43.43068" lon="-1.51335">
        <ele>72</ele>
        <time>2026-08-23T12:54:49.000Z</time>
      </trkpt>
      <trkpt lat="43.43088" lon="-1.5134">
        <ele>72</ele>
        <time>2026-08-23T12:54:53.000Z</time>
      </trkpt>
      <trkpt lat="43.43145" lon="-1.51362">
        <ele>71</ele>
        <time>2026-08-23T12:55:03.000Z</time>
      </trkpt>
      <trkpt lat="43.43185" lon="-1.51365">
        <ele>71</ele>
        <time>2026-08-23T12:55:11.000Z</time>
      </trkpt>
      <trkpt lat="43.43212" lon="-1.51359">
        <ele>71</ele>
        <time>2026-08-23T12:55:15.000Z</time>
      </trkpt>
      <trkpt lat="43.43256" lon="-1.51345">
        <ele>71</ele>
        <time>2026-08-23T12:55:23.000Z</time>
      </trkpt>
      <trkpt lat="43.4327" lon="-1.51344">
        <ele>71</ele>
        <time>2026-08-23T12:55:26.000Z</time>
      </trkpt>
      <trkpt lat="43.43286" lon="-1.51347">
        <ele>71</ele>
        <time>2026-08-23T12:55:29.000Z</time>
      </trkpt>
      <trkpt lat="43.43298" lon="-1.51353">
        <ele>71</ele>
        <time>2026-08-23T12:55:31.000Z</time>
      </trkpt>
      <trkpt lat="43.43328" lon="-1.5138">
        <ele>73</ele>
        <time>2026-08-23T12:55:37.000Z</time>
      </trkpt>
      <trkpt lat="43.43332" lon="-1.51366">
        <ele>72</ele>
        <time>2026-08-23T12:55:39.000Z</time>
      </trkpt>
      <trkpt lat="43.4332" lon="-1.51306">
        <ele>68</ele>
        <time>2026-08-23T12:55:47.000Z</time>
      </trkpt>
      <trkpt lat="43.43321" lon="-1.51285">
        <ele>67</ele>
        <time>2026-08-23T12:55:50.000Z</time>
      </trkpt>
      <trkpt lat="43.43327" lon="-1.51266">
        <ele>66</ele>
        <time>2026-08-23T12:55:53.000Z</time>
      </trkpt>
      <trkpt lat="43.43356" lon="-1.51207">
        <ele>64</ele>
        <time>2026-08-23T12:56:02.000Z</time>
      </trkpt>
      <trkpt lat="43.43368" lon="-1.51174">
        <ele>63</ele>
        <time>2026-08-23T12:56:07.000Z</time>
      </trkpt>
      <trkpt lat="43.43374" lon="-1.51148">
        <ele>62</ele>
        <time>2026-08-23T12:56:10.000Z</time>
      </trkpt>
      <trkpt lat="43.43372" lon="-1.51132">
        <ele>61</ele>
        <time>2026-08-23T12:56:12.000Z</time>
      </trkpt>
      <trkpt lat="43.43366" lon="-1.51117">
        <ele>61</ele>
        <time>2026-08-23T12:56:15.000Z</time>
      </trkpt>
      <trkpt lat="43.43356" lon="-1.51103">
        <ele>61</ele>
        <time>2026-08-23T12:56:17.000Z</time>
      </trkpt>
      <trkpt lat="43.4333" lon="-1.51077">
        <ele>63</ele>
        <time>2026-08-23T12:56:23.000Z</time>
      </trkpt>
      <trkpt lat="43.43321" lon="-1.51064">
        <ele>62</ele>
        <time>2026-08-23T12:56:25.000Z</time>
      </trkpt>
      <trkpt lat="43.43313" lon="-1.51046">
        <ele>61</ele>
        <time>2026-08-23T12:56:28.000Z</time>
      </trkpt>
      <trkpt lat="43.43309" lon="-1.51025">
        <ele>60</ele>
        <time>2026-08-23T12:56:31.000Z</time>
      </trkpt>
      <trkpt lat="43.43304" lon="-1.50979">
        <ele>60</ele>
        <time>2026-08-23T12:56:37.000Z</time>
      </trkpt>
      <trkpt lat="43.43307" lon="-1.50929">
        <ele>62</ele>
        <time>2026-08-23T12:56:43.000Z</time>
      </trkpt>
      <trkpt lat="43.43316" lon="-1.50899">
        <ele>62</ele>
        <time>2026-08-23T12:56:47.000Z</time>
      </trkpt>
      <trkpt lat="43.43325" lon="-1.50878">
        <ele>63</ele>
        <time>2026-08-23T12:56:51.000Z</time>
      </trkpt>
      <trkpt lat="43.43334" lon="-1.50875">
        <ele>63</ele>
        <time>2026-08-23T12:56:52.000Z</time>
      </trkpt>
      <trkpt lat="43.43405" lon="-1.50814">
        <ele>67</ele>
        <time>2026-08-23T12:57:07.000Z</time>
      </trkpt>
      <trkpt lat="43.43429" lon="-1.5078">
        <ele>67</ele>
        <time>2026-08-23T12:57:13.000Z</time>
      </trkpt>
      <trkpt lat="43.43491" lon="-1.50671">
        <ele>61</ele>
        <time>2026-08-23T12:57:31.000Z</time>
      </trkpt>
      <trkpt lat="43.43503" lon="-1.50659">
        <ele>59</ele>
        <time>2026-08-23T12:57:34.000Z</time>
      </trkpt>
      <trkpt lat="43.4351" lon="-1.50656">
        <ele>59</ele>
        <time>2026-08-23T12:57:35.000Z</time>
      </trkpt>
      <trkpt lat="43.4351" lon="-1.50649">
        <ele>58</ele>
        <time>2026-08-23T12:57:36.000Z</time>
      </trkpt>
      <trkpt lat="43.43514" lon="-1.50643">
        <ele>58</ele>
        <time>2026-08-23T12:57:37.000Z</time>
      </trkpt>
      <trkpt lat="43.43538" lon="-1.50634">
        <ele>56</ele>
        <time>2026-08-23T12:57:41.000Z</time>
      </trkpt>
      <trkpt lat="43.43539" lon="-1.50626">
        <ele>56</ele>
        <time>2026-08-23T12:57:43.000Z</time>
      </trkpt>
      <trkpt lat="43.43543" lon="-1.5062">
        <ele>56</ele>
        <time>2026-08-23T12:57:44.000Z</time>
      </trkpt>
      <trkpt lat="43.43546" lon="-1.50619">
        <ele>56</ele>
        <time>2026-08-23T12:57:44.000Z</time>
      </trkpt>
      <trkpt lat="43.43552" lon="-1.50621">
        <ele>55</ele>
        <time>2026-08-23T12:57:45.000Z</time>
      </trkpt>
      <trkpt lat="43.43554" lon="-1.50625">
        <ele>55</ele>
        <time>2026-08-23T12:57:46.000Z</time>
      </trkpt>
      <trkpt lat="43.43556" lon="-1.50633">
        <ele>55</ele>
        <time>2026-08-23T12:57:47.000Z</time>
      </trkpt>
      <trkpt lat="43.4357" lon="-1.50636">
        <ele>55</ele>
        <time>2026-08-23T12:57:49.000Z</time>
      </trkpt>
      <trkpt lat="43.43624" lon="-1.50618">
        <ele>51</ele>
        <time>2026-08-23T12:57:59.000Z</time>
      </trkpt>
      <trkpt lat="43.43647" lon="-1.50605">
        <ele>49</ele>
        <time>2026-08-23T12:58:04.000Z</time>
      </trkpt>
      <trkpt lat="43.43723" lon="-1.50547">
        <ele>41</ele>
        <time>2026-08-23T12:58:19.000Z</time>
      </trkpt>
      <trkpt lat="43.43739" lon="-1.50532">
        <ele>40</ele>
        <time>2026-08-23T12:58:23.000Z</time>
      </trkpt>
      <trkpt lat="43.4378" lon="-1.50482">
        <ele>36</ele>
        <time>2026-08-23T12:58:32.000Z</time>
      </trkpt>
      <trkpt lat="43.43794" lon="-1.5047">
        <ele>34</ele>
        <time>2026-08-23T12:58:35.000Z</time>
      </trkpt>
      <trkpt lat="43.4381" lon="-1.50461">
        <ele>33</ele>
        <time>2026-08-23T12:58:38.000Z</time>
      </trkpt>
      <trkpt lat="43.43867" lon="-1.5045">
        <ele>30</ele>
        <time>2026-08-23T12:58:49.000Z</time>
      </trkpt>
      <trkpt lat="43.43871" lon="-1.50468">
        <ele>29</ele>
        <time>2026-08-23T12:58:51.000Z</time>
      </trkpt>
      <trkpt lat="43.43881" lon="-1.50486">
        <ele>28</ele>
        <time>2026-08-23T12:58:54.000Z</time>
      </trkpt>
      <trkpt lat="43.43899" lon="-1.5051">
        <ele>28</ele>
        <time>2026-08-23T12:58:59.000Z</time>
      </trkpt>
      <trkpt lat="43.43925" lon="-1.50539">
        <ele>26</ele>
        <time>2026-08-23T12:59:04.000Z</time>
      </trkpt>
      <trkpt lat="43.43964" lon="-1.5057">
        <ele>22</ele>
        <time>2026-08-23T12:59:12.000Z</time>
      </trkpt>
      <trkpt lat="43.43984" lon="-1.50581">
        <ele>21</ele>
        <time>2026-08-23T12:59:16.000Z</time>
      </trkpt>
      <trkpt lat="43.44001" lon="-1.50585">
        <ele>20</ele>
        <time>2026-08-23T12:59:19.000Z</time>
      </trkpt>
      <trkpt lat="43.44022" lon="-1.50583">
        <ele>18</ele>
        <time>2026-08-23T12:59:23.000Z</time>
      </trkpt>
      <trkpt lat="43.4405" lon="-1.50575">
        <ele>14</ele>
        <time>2026-08-23T12:59:28.000Z</time>
      </trkpt>
      <trkpt lat="43.44085" lon="-1.50558">
        <ele>10</ele>
        <time>2026-08-23T12:59:35.000Z</time>
      </trkpt>
      <trkpt lat="43.44103" lon="-1.50545">
        <ele>11</ele>
        <time>2026-08-23T12:59:38.000Z</time>
      </trkpt>
      <trkpt lat="43.44155" lon="-1.50498">
        <ele>16</ele>
        <time>2026-08-23T12:59:49.000Z</time>
      </trkpt>
      <trkpt lat="43.44168" lon="-1.5049">
        <ele>17</ele>
        <time>2026-08-23T12:59:52.000Z</time>
      </trkpt>
      <trkpt lat="43.44171" lon="-1.50436">
        <ele>18</ele>
        <time>2026-08-23T12:59:59.000Z</time>
      </trkpt>
      <trkpt lat="43.44176" lon="-1.50389">
        <ele>17</ele>
        <time>2026-08-23T13:00:05.000Z</time>
      </trkpt>
      <trkpt lat="43.4418" lon="-1.5037">
        <ele>17</ele>
        <time>2026-08-23T13:00:08.000Z</time>
      </trkpt>
      <trkpt lat="43.44209" lon="-1.50326">
        <ele>18</ele>
        <time>2026-08-23T13:00:15.000Z</time>
      </trkpt>
      <trkpt lat="43.44237" lon="-1.50219">
        <ele>14</ele>
        <time>2026-08-23T13:00:30.000Z</time>
      </trkpt>
      <trkpt lat="43.44263" lon="-1.50144">
        <ele>9</ele>
        <time>2026-08-23T13:00:41.000Z</time>
      </trkpt>
      <trkpt lat="43.44262" lon="-1.50138">
        <ele>8</ele>
        <time>2026-08-23T13:00:42.000Z</time>
      </trkpt>
      <trkpt lat="43.44263" lon="-1.50134">
        <ele>8</ele>
        <time>2026-08-23T13:00:42.000Z</time>
      </trkpt>
      <trkpt lat="43.44267" lon="-1.5013">
        <ele>8</ele>
        <time>2026-08-23T13:00:43.000Z</time>
      </trkpt>
      <trkpt lat="43.44271" lon="-1.50131">
        <ele>8</ele>
        <time>2026-08-23T13:00:44.000Z</time>
      </trkpt>
      <trkpt lat="43.44275" lon="-1.50138">
        <ele>9</ele>
        <time>2026-08-23T13:00:45.000Z</time>
      </trkpt>
      <trkpt lat="43.44283" lon="-1.50138">
        <ele>9</ele>
        <time>2026-08-23T13:00:46.000Z</time>
      </trkpt>
      <trkpt lat="43.44283" lon="-1.50131">
        <ele>8</ele>
        <time>2026-08-23T13:00:47.000Z</time>
      </trkpt>
      <trkpt lat="43.44293" lon="-1.50134">
        <ele>8</ele>
        <time>2026-08-23T13:00:49.000Z</time>
      </trkpt>
      <trkpt lat="43.44415" lon="-1.50147">
        <ele>10</ele>
        <time>2026-08-23T13:01:11.000Z</time>
      </trkpt>
      <trkpt lat="43.44424" lon="-1.50143">
        <ele>10</ele>
        <time>2026-08-23T13:01:13.000Z</time>
      </trkpt>
      <trkpt lat="43.44437" lon="-1.50128">
        <ele>10</ele>
        <time>2026-08-23T13:01:16.000Z</time>
      </trkpt>
      <trkpt lat="43.44443" lon="-1.50116">
        <ele>9</ele>
        <time>2026-08-23T13:01:17.000Z</time>
      </trkpt>
      <trkpt lat="43.44459" lon="-1.50059">
        <ele>6</ele>
        <time>2026-08-23T13:01:25.000Z</time>
      </trkpt>
      <trkpt lat="43.44464" lon="-1.50051">
        <ele>6</ele>
        <time>2026-08-23T13:01:27.000Z</time>
      </trkpt>
      <trkpt lat="43.44546" lon="-1.49985">
        <ele>7</ele>
        <time>2026-08-23T13:01:44.000Z</time>
      </trkpt>
      <trkpt lat="43.44569" lon="-1.49979">
        <ele>7</ele>
        <time>2026-08-23T13:01:48.000Z</time>
      </trkpt>
      <trkpt lat="43.44584" lon="-1.4998">
        <ele>7</ele>
        <time>2026-08-23T13:01:50.000Z</time>
      </trkpt>
      <trkpt lat="43.44611" lon="-1.49986">
        <ele>6</ele>
        <time>2026-08-23T13:01:55.000Z</time>
      </trkpt>
      <trkpt lat="43.44662" lon="-1.49999">
        <ele>4</ele>
        <time>2026-08-23T13:02:05.000Z</time>
      </trkpt>
      <trkpt lat="43.44672" lon="-1.50004">
        <ele>4</ele>
        <time>2026-08-23T13:02:06.000Z</time>
      </trkpt>
      <trkpt lat="43.4472" lon="-1.50037">
        <ele>7</ele>
        <time>2026-08-23T13:02:16.000Z</time>
      </trkpt>
      <trkpt lat="43.44728" lon="-1.5005">
        <ele>7</ele>
        <time>2026-08-23T13:02:18.000Z</time>
      </trkpt>
      <trkpt lat="43.44727" lon="-1.50068">
        <ele>8</ele>
        <time>2026-08-23T13:02:20.000Z</time>
      </trkpt>
      <trkpt lat="43.4475" lon="-1.50079">
        <ele>9</ele>
        <time>2026-08-23T13:02:25.000Z</time>
      </trkpt>
      <trkpt lat="43.44764" lon="-1.50084">
        <ele>8</ele>
        <time>2026-08-23T13:02:27.000Z</time>
      </trkpt>
      <trkpt lat="43.44785" lon="-1.50083">
        <ele>7</ele>
        <time>2026-08-23T13:02:31.000Z</time>
      </trkpt>
      <trkpt lat="43.44797" lon="-1.50078">
        <ele>7</ele>
        <time>2026-08-23T13:02:33.000Z</time>
      </trkpt>
      <trkpt lat="43.4481" lon="-1.5007">
        <ele>6</ele>
        <time>2026-08-23T13:02:36.000Z</time>
      </trkpt>
      <trkpt lat="43.44819" lon="-1.5006">
        <ele>6</ele>
        <time>2026-08-23T13:02:38.000Z</time>
      </trkpt>
      <trkpt lat="43.44836" lon="-1.50031">
        <ele>6</ele>
        <time>2026-08-23T13:02:43.000Z</time>
      </trkpt>
      <trkpt lat="43.44841" lon="-1.50013">
        <ele>6</ele>
        <time>2026-08-23T13:02:45.000Z</time>
      </trkpt>
      <trkpt lat="43.44842" lon="-1.5">
        <ele>7</ele>
        <time>2026-08-23T13:02:47.000Z</time>
      </trkpt>
      <trkpt lat="43.44839" lon="-1.49979">
        <ele>7</ele>
        <time>2026-08-23T13:02:50.000Z</time>
      </trkpt>
      <trkpt lat="43.44789" lon="-1.49803">
        <ele>6</ele>
        <time>2026-08-23T13:03:14.000Z</time>
      </trkpt>
      <trkpt lat="43.4479" lon="-1.4978">
        <ele>6</ele>
        <time>2026-08-23T13:03:17.000Z</time>
      </trkpt>
      <trkpt lat="43.44806" lon="-1.49762">
        <ele>8</ele>
        <time>2026-08-23T13:03:21.000Z</time>
      </trkpt>
      <trkpt lat="43.44841" lon="-1.49764">
        <ele>11</ele>
        <time>2026-08-23T13:03:27.000Z</time>
      </trkpt>
      <trkpt lat="43.44862" lon="-1.49754">
        <ele>12</ele>
        <time>2026-08-23T13:03:31.000Z</time>
      </trkpt>
      <trkpt lat="43.44919" lon="-1.49695">
        <ele>11</ele>
        <time>2026-08-23T13:03:44.000Z</time>
      </trkpt>
      <trkpt lat="43.44939" lon="-1.49692">
        <ele>11</ele>
        <time>2026-08-23T13:03:47.000Z</time>
      </trkpt>
      <trkpt lat="43.44974" lon="-1.49711">
        <ele>12</ele>
        <time>2026-08-23T13:03:54.000Z</time>
      </trkpt>
      <trkpt lat="43.45" lon="-1.49708">
        <ele>12</ele>
        <time>2026-08-23T13:03:59.000Z</time>
      </trkpt>
      <trkpt lat="43.45026" lon="-1.49687">
        <ele>11</ele>
        <time>2026-08-23T13:04:04.000Z</time>
      </trkpt>
      <trkpt lat="43.45058" lon="-1.49637">
        <ele>9</ele>
        <time>2026-08-23T13:04:13.000Z</time>
      </trkpt>
      <trkpt lat="43.45078" lon="-1.49601">
        <ele>7</ele>
        <time>2026-08-23T13:04:18.000Z</time>
      </trkpt>
      <trkpt lat="43.45084" lon="-1.49584">
        <ele>6</ele>
        <time>2026-08-23T13:04:21.000Z</time>
      </trkpt>
      <trkpt lat="43.45082" lon="-1.4957">
        <ele>5</ele>
        <time>2026-08-23T13:04:23.000Z</time>
      </trkpt>
      <trkpt lat="43.4508" lon="-1.49559">
        <ele>5</ele>
        <time>2026-08-23T13:04:24.000Z</time>
      </trkpt>
      <trkpt lat="43.45056" lon="-1.49506">
        <ele>3</ele>
        <time>2026-08-23T13:04:32.000Z</time>
      </trkpt>
      <trkpt lat="43.45055" lon="-1.49492">
        <ele>2</ele>
        <time>2026-08-23T13:04:34.000Z</time>
      </trkpt>
      <trkpt lat="43.45037" lon="-1.49463">
        <ele>2</ele>
        <time>2026-08-23T13:04:39.000Z</time>
      </trkpt>
      <trkpt lat="43.45001" lon="-1.49388">
        <ele>2</ele>
        <time>2026-08-23T13:04:51.000Z</time>
      </trkpt>
      <trkpt lat="43.45" lon="-1.49368">
        <ele>3</ele>
        <time>2026-08-23T13:04:53.000Z</time>
      </trkpt>
      <trkpt lat="43.44993" lon="-1.49366">
        <ele>3</ele>
        <time>2026-08-23T13:04:54.000Z</time>
      </trkpt>
      <trkpt lat="43.44987" lon="-1.4936">
        <ele>3</ele>
        <time>2026-08-23T13:04:56.000Z</time>
      </trkpt>
      <trkpt lat="43.44985" lon="-1.49353">
        <ele>4</ele>
        <time>2026-08-23T13:04:57.000Z</time>
      </trkpt>
      <trkpt lat="43.44986" lon="-1.49337">
        <ele>4</ele>
        <time>2026-08-23T13:04:59.000Z</time>
      </trkpt>
      <trkpt lat="43.44989" lon="-1.49331">
        <ele>4</ele>
        <time>2026-08-23T13:05:00.000Z</time>
      </trkpt>
      <trkpt lat="43.44992" lon="-1.49204">
        <ele>7</ele>
        <time>2026-08-23T13:05:16.000Z</time>
      </trkpt>
      <trkpt lat="43.44985" lon="-1.49165">
        <ele>8</ele>
        <time>2026-08-23T13:05:21.000Z</time>
      </trkpt>
      <trkpt lat="43.44981" lon="-1.49148">
        <ele>7</ele>
        <time>2026-08-23T13:05:24.000Z</time>
      </trkpt>
      <trkpt lat="43.44974" lon="-1.49135">
        <ele>7</ele>
        <time>2026-08-23T13:05:26.000Z</time>
      </trkpt>
      <trkpt lat="43.44963" lon="-1.49121">
        <ele>6</ele>
        <time>2026-08-23T13:05:28.000Z</time>
      </trkpt>
      <trkpt lat="43.44731" lon="-1.48954">
        <ele>19</ele>
        <time>2026-08-23T13:06:15.000Z</time>
      </trkpt>
      <trkpt lat="43.44719" lon="-1.48919">
        <ele>22</ele>
        <time>2026-08-23T13:06:20.000Z</time>
      </trkpt>
      <trkpt lat="43.4471" lon="-1.48856">
        <ele>24</ele>
        <time>2026-08-23T13:06:28.000Z</time>
      </trkpt>
      <trkpt lat="43.4471" lon="-1.48836">
        <ele>23</ele>
        <time>2026-08-23T13:06:31.000Z</time>
      </trkpt>
      <trkpt lat="43.44722" lon="-1.4874">
        <ele>19</ele>
        <time>2026-08-23T13:06:43.000Z</time>
      </trkpt>
      <trkpt lat="43.44721" lon="-1.48673">
        <ele>19</ele>
        <time>2026-08-23T13:06:52.000Z</time>
      </trkpt>
      <trkpt lat="43.44711" lon="-1.48632">
        <ele>20</ele>
        <time>2026-08-23T13:06:58.000Z</time>
      </trkpt>
      <trkpt lat="43.44681" lon="-1.48555">
        <ele>22</ele>
        <time>2026-08-23T13:07:09.000Z</time>
      </trkpt>
      <trkpt lat="43.4467" lon="-1.48509">
        <ele>20</ele>
        <time>2026-08-23T13:07:15.000Z</time>
      </trkpt>
      <trkpt lat="43.44663" lon="-1.48472">
        <ele>17</ele>
        <time>2026-08-23T13:07:20.000Z</time>
      </trkpt>
      <trkpt lat="43.44647" lon="-1.48424">
        <ele>16</ele>
        <time>2026-08-23T13:07:27.000Z</time>
      </trkpt>
      <trkpt lat="43.44575" lon="-1.48272">
        <ele>15</ele>
        <time>2026-08-23T13:07:50.000Z</time>
      </trkpt>
      <trkpt lat="43.44535" lon="-1.48208">
        <ele>12</ele>
        <time>2026-08-23T13:08:01.000Z</time>
      </trkpt>
      <trkpt lat="43.44522" lon="-1.48181">
        <ele>11</ele>
        <time>2026-08-23T13:08:06.000Z</time>
      </trkpt>
      <trkpt lat="43.44503" lon="-1.48116">
        <ele>8</ele>
        <time>2026-08-23T13:08:15.000Z</time>
      </trkpt>
      <trkpt lat="43.44492" lon="-1.48087">
        <ele>7</ele>
        <time>2026-08-23T13:08:19.000Z</time>
      </trkpt>
      <trkpt lat="43.44471" lon="-1.4805">
        <ele>7</ele>
        <time>2026-08-23T13:08:25.000Z</time>
      </trkpt>
      <trkpt lat="43.44464" lon="-1.48043">
        <ele>7</ele>
        <time>2026-08-23T13:08:26.000Z</time>
      </trkpt>
      <trkpt lat="43.44457" lon="-1.48039">
        <ele>7</ele>
        <time>2026-08-23T13:08:28.000Z</time>
      </trkpt>
      <trkpt lat="43.44448" lon="-1.48037">
        <ele>7</ele>
        <time>2026-08-23T13:08:29.000Z</time>
      </trkpt>
      <trkpt lat="43.44438" lon="-1.48039">
        <ele>8</ele>
        <time>2026-08-23T13:08:31.000Z</time>
      </trkpt>
      <trkpt lat="43.44427" lon="-1.48046">
        <ele>9</ele>
        <time>2026-08-23T13:08:33.000Z</time>
      </trkpt>
      <trkpt lat="43.44414" lon="-1.48058">
        <ele>10</ele>
        <time>2026-08-23T13:08:36.000Z</time>
      </trkpt>
      <trkpt lat="43.44396" lon="-1.4808">
        <ele>10</ele>
        <time>2026-08-23T13:08:40.000Z</time>
      </trkpt>
      <trkpt lat="43.44364" lon="-1.48126">
        <ele>14</ele>
        <time>2026-08-23T13:08:49.000Z</time>
      </trkpt>
      <trkpt lat="43.44353" lon="-1.48138">
        <ele>15</ele>
        <time>2026-08-23T13:08:51.000Z</time>
      </trkpt>
      <trkpt lat="43.44327" lon="-1.48155">
        <ele>17</ele>
        <time>2026-08-23T13:08:56.000Z</time>
      </trkpt>
      <trkpt lat="43.44311" lon="-1.48158">
        <ele>17</ele>
        <time>2026-08-23T13:08:59.000Z</time>
      </trkpt>
      <trkpt lat="43.44222" lon="-1.48165">
        <ele>19</ele>
        <time>2026-08-23T13:09:15.000Z</time>
      </trkpt>
      <trkpt lat="43.44184" lon="-1.48141">
        <ele>17</ele>
        <time>2026-08-23T13:09:22.000Z</time>
      </trkpt>
      <trkpt lat="43.44153" lon="-1.48115">
        <ele>15</ele>
        <time>2026-08-23T13:09:29.000Z</time>
      </trkpt>
      <trkpt lat="43.44134" lon="-1.48087">
        <ele>12</ele>
        <time>2026-08-23T13:09:34.000Z</time>
      </trkpt>
      <trkpt lat="43.44132" lon="-1.48078">
        <ele>11</ele>
        <time>2026-08-23T13:09:35.000Z</time>
      </trkpt>
      <trkpt lat="43.44132" lon="-1.48068">
        <ele>10</ele>
        <time>2026-08-23T13:09:36.000Z</time>
      </trkpt>
      <trkpt lat="43.44136" lon="-1.48055">
        <ele>8</ele>
        <time>2026-08-23T13:09:38.000Z</time>
      </trkpt>
      <trkpt lat="43.44158" lon="-1.48007">
        <ele>4</ele>
        <time>2026-08-23T13:09:46.000Z</time>
      </trkpt>
      <trkpt lat="43.44187" lon="-1.47935">
        <ele>2</ele>
        <time>2026-08-23T13:09:56.000Z</time>
      </trkpt>
      <trkpt lat="43.44212" lon="-1.47921">
        <ele>2</ele>
        <time>2026-08-23T13:10:01.000Z</time>
      </trkpt>
      <trkpt lat="43.44222" lon="-1.47911">
        <ele>1</ele>
        <time>2026-08-23T13:10:03.000Z</time>
      </trkpt>
      <trkpt lat="43.44231" lon="-1.47898">
        <ele>1</ele>
        <time>2026-08-23T13:10:05.000Z</time>
      </trkpt>
      <trkpt lat="43.44244" lon="-1.47863">
        <ele>2</ele>
        <time>2026-08-23T13:10:11.000Z</time>
      </trkpt>
      <trkpt lat="43.44248" lon="-1.47843">
        <ele>2</ele>
        <time>2026-08-23T13:10:13.000Z</time>
      </trkpt>
      <trkpt lat="43.4425" lon="-1.47825">
        <ele>2</ele>
        <time>2026-08-23T13:10:16.000Z</time>
      </trkpt>
      <trkpt lat="43.44251" lon="-1.47791">
        <ele>3</ele>
        <time>2026-08-23T13:10:20.000Z</time>
      </trkpt>
      <trkpt lat="43.44244" lon="-1.47736">
        <ele>3</ele>
        <time>2026-08-23T13:10:27.000Z</time>
      </trkpt>
      <trkpt lat="43.44229" lon="-1.4765">
        <ele>3</ele>
        <time>2026-08-23T13:10:39.000Z</time>
      </trkpt>
      <trkpt lat="43.44228" lon="-1.47636">
        <ele>3</ele>
        <time>2026-08-23T13:10:40.000Z</time>
      </trkpt>
      <trkpt lat="43.44229" lon="-1.47625">
        <ele>3</ele>
        <time>2026-08-23T13:10:42.000Z</time>
      </trkpt>
      <trkpt lat="43.44236" lon="-1.47598">
        <ele>3</ele>
        <time>2026-08-23T13:10:46.000Z</time>
      </trkpt>
      <trkpt lat="43.44243" lon="-1.47555">
        <ele>3</ele>
        <time>2026-08-23T13:10:51.000Z</time>
      </trkpt>
      <trkpt lat="43.44189" lon="-1.4754">
        <ele>1</ele>
        <time>2026-08-23T13:11:01.000Z</time>
      </trkpt>
      <trkpt lat="43.44159" lon="-1.47534">
        <ele>1</ele>
        <time>2026-08-23T13:11:06.000Z</time>
      </trkpt>
      <trkpt lat="43.44071" lon="-1.47522">
        <ele>2</ele>
        <time>2026-08-23T13:11:22.000Z</time>
      </trkpt>
      <trkpt lat="43.43924" lon="-1.47491">
        <ele>2</ele>
        <time>2026-08-23T13:11:49.000Z</time>
      </trkpt>
      <trkpt lat="43.4392" lon="-1.47491">
        <ele>2</ele>
        <time>2026-08-23T13:11:49.000Z</time>
      </trkpt>
      <trkpt lat="43.43902" lon="-1.47486">
        <ele>3</ele>
        <time>2026-08-23T13:11:53.000Z</time>
      </trkpt>
      <trkpt lat="43.43843" lon="-1.47449">
        <ele>4</ele>
        <time>2026-08-23T13:12:04.000Z</time>
      </trkpt>
      <trkpt lat="43.43811" lon="-1.47419">
        <ele>3</ele>
        <time>2026-08-23T13:12:11.000Z</time>
      </trkpt>
      <trkpt lat="43.43791" lon="-1.47387">
        <ele>3</ele>
        <time>2026-08-23T13:12:17.000Z</time>
      </trkpt>
      <trkpt lat="43.43776" lon="-1.47339">
        <ele>3</ele>
        <time>2026-08-23T13:12:23.000Z</time>
      </trkpt>
      <trkpt lat="43.43754" lon="-1.47255">
        <ele>4</ele>
        <time>2026-08-23T13:12:35.000Z</time>
      </trkpt>
      <trkpt lat="43.43755" lon="-1.47236">
        <ele>4</ele>
        <time>2026-08-23T13:12:37.000Z</time>
      </trkpt>
      <trkpt lat="43.43756" lon="-1.47221">
        <ele>4</ele>
        <time>2026-08-23T13:12:39.000Z</time>
      </trkpt>
      <trkpt lat="43.43763" lon="-1.47137">
        <ele>5</ele>
        <time>2026-08-23T13:12:50.000Z</time>
      </trkpt>
      <trkpt lat="43.43759" lon="-1.47031">
        <ele>7</ele>
        <time>2026-08-23T13:13:04.000Z</time>
      </trkpt>
      <trkpt lat="43.43744" lon="-1.46917">
        <ele>5</ele>
        <time>2026-08-23T13:13:19.000Z</time>
      </trkpt>
      <trkpt lat="43.43754" lon="-1.46732">
        <ele>8</ele>
        <time>2026-08-23T13:13:43.000Z</time>
      </trkpt>
      <trkpt lat="43.43758" lon="-1.4661">
        <ele>8</ele>
        <time>2026-08-23T13:13:59.000Z</time>
      </trkpt>
      <trkpt lat="43.43771" lon="-1.46492">
        <ele>9</ele>
        <time>2026-08-23T13:14:14.000Z</time>
      </trkpt>
      <trkpt lat="43.4378" lon="-1.46443">
        <ele>9</ele>
        <time>2026-08-23T13:14:21.000Z</time>
      </trkpt>
      <trkpt lat="43.43781" lon="-1.46417">
        <ele>8</ele>
        <time>2026-08-23T13:14:24.000Z</time>
      </trkpt>
      <trkpt lat="43.43779" lon="-1.46388">
        <ele>9</ele>
        <time>2026-08-23T13:14:28.000Z</time>
      </trkpt>
      <trkpt lat="43.43775" lon="-1.46361">
        <ele>9</ele>
        <time>2026-08-23T13:14:31.000Z</time>
      </trkpt>
      <trkpt lat="43.43768" lon="-1.46336">
        <ele>8</ele>
        <time>2026-08-23T13:14:35.000Z</time>
      </trkpt>
      <trkpt lat="43.43757" lon="-1.46313">
        <ele>7</ele>
        <time>2026-08-23T13:14:38.000Z</time>
      </trkpt>
      <trkpt lat="43.43681" lon="-1.46182">
        <ele>4</ele>
        <time>2026-08-23T13:15:00.000Z</time>
      </trkpt>
      <trkpt lat="43.4361" lon="-1.46062">
        <ele>4</ele>
        <time>2026-08-23T13:15:20.000Z</time>
      </trkpt>
      <trkpt lat="43.43576" lon="-1.4601">
        <ele>4</ele>
        <time>2026-08-23T13:15:29.000Z</time>
      </trkpt>
      <trkpt lat="43.43481" lon="-1.45882">
        <ele>6</ele>
        <time>2026-08-23T13:15:53.000Z</time>
      </trkpt>
      <trkpt lat="43.43463" lon="-1.45862">
        <ele>6</ele>
        <time>2026-08-23T13:15:57.000Z</time>
      </trkpt>
      <trkpt lat="43.43447" lon="-1.45848">
        <ele>5</ele>
        <time>2026-08-23T13:16:00.000Z</time>
      </trkpt>
      <trkpt lat="43.43432" lon="-1.45838">
        <ele>5</ele>
        <time>2026-08-23T13:16:03.000Z</time>
      </trkpt>
      <trkpt lat="43.43412" lon="-1.45827">
        <ele>4</ele>
        <time>2026-08-23T13:16:07.000Z</time>
      </trkpt>
      <trkpt lat="43.43392" lon="-1.45812">
        <ele>3</ele>
        <time>2026-08-23T13:16:11.000Z</time>
      </trkpt>
      <trkpt lat="43.43343" lon="-1.45783">
        <ele>2</ele>
        <time>2026-08-23T13:16:20.000Z</time>
      </trkpt>
      <trkpt lat="43.43331" lon="-1.45778">
        <ele>2</ele>
        <time>2026-08-23T13:16:23.000Z</time>
      </trkpt>
      <trkpt lat="43.43302" lon="-1.45772">
        <ele>2</ele>
        <time>2026-08-23T13:16:28.000Z</time>
      </trkpt>
      <trkpt lat="43.43304" lon="-1.45763">
        <ele>2</ele>
        <time>2026-08-23T13:16:29.000Z</time>
      </trkpt>
      <trkpt lat="43.43318" lon="-1.45694">
        <ele>5</ele>
        <time>2026-08-23T13:16:38.000Z</time>
      </trkpt>
      <trkpt lat="43.43321" lon="-1.45681">
        <ele>6</ele>
        <time>2026-08-23T13:16:40.000Z</time>
      </trkpt>
      <trkpt lat="43.43305" lon="-1.45675">
        <ele>6</ele>
        <time>2026-08-23T13:16:43.000Z</time>
      </trkpt>
      <trkpt lat="43.43277" lon="-1.45674">
        <ele>5</ele>
        <time>2026-08-23T13:16:48.000Z</time>
      </trkpt>
      <trkpt lat="43.43264" lon="-1.45669">
        <ele>5</ele>
        <time>2026-08-23T13:16:50.000Z</time>
      </trkpt>
      <trkpt lat="43.43253" lon="-1.45651">
        <ele>6</ele>
        <time>2026-08-23T13:16:53.000Z</time>
      </trkpt>
      <trkpt lat="43.43242" lon="-1.4563">
        <ele>7</ele>
        <time>2026-08-23T13:16:57.000Z</time>
      </trkpt>
      <trkpt lat="43.43221" lon="-1.45612">
        <ele>7</ele>
        <time>2026-08-23T13:17:01.000Z</time>
      </trkpt>
      <trkpt lat="43.43208" lon="-1.45592">
        <ele>8</ele>
        <time>2026-08-23T13:17:05.000Z</time>
      </trkpt>
      <trkpt lat="43.43199" lon="-1.45584">
        <ele>7</ele>
        <time>2026-08-23T13:17:07.000Z</time>
      </trkpt>
      <trkpt lat="43.43176" lon="-1.45571">
        <ele>6</ele>
        <time>2026-08-23T13:17:11.000Z</time>
      </trkpt>
      <trkpt lat="43.43167" lon="-1.45564">
        <ele>6</ele>
        <time>2026-08-23T13:17:13.000Z</time>
      </trkpt>
      <trkpt lat="43.43158" lon="-1.4554">
        <ele>6</ele>
        <time>2026-08-23T13:17:16.000Z</time>
      </trkpt>
      <trkpt lat="43.43158" lon="-1.4553">
        <ele>7</ele>
        <time>2026-08-23T13:17:18.000Z</time>
      </trkpt>
      <trkpt lat="43.4309" lon="-1.45507">
        <ele>6</ele>
        <time>2026-08-23T13:17:30.000Z</time>
      </trkpt>
      <trkpt lat="43.43057" lon="-1.45504">
        <ele>7</ele>
        <time>2026-08-23T13:17:36.000Z</time>
      </trkpt>
      <trkpt lat="43.43036" lon="-1.45507">
        <ele>7</ele>
        <time>2026-08-23T13:17:40.000Z</time>
      </trkpt>
      <trkpt lat="43.42999" lon="-1.45498">
        <ele>8</ele>
        <time>2026-08-23T13:17:46.000Z</time>
      </trkpt>
      <trkpt lat="43.42867" lon="-1.4541">
        <ele>11</ele>
        <time>2026-08-23T13:18:12.000Z</time>
      </trkpt>
      <trkpt lat="43.42851" lon="-1.45395">
        <ele>12</ele>
        <time>2026-08-23T13:18:16.000Z</time>
      </trkpt>
      <trkpt lat="43.42778" lon="-1.45307">
        <ele>12</ele>
        <time>2026-08-23T13:18:33.000Z</time>
      </trkpt>
      <trkpt lat="43.42723" lon="-1.45247">
        <ele>14</ele>
        <time>2026-08-23T13:18:46.000Z</time>
      </trkpt>
      <trkpt lat="43.42707" lon="-1.45242">
        <ele>15</ele>
        <time>2026-08-23T13:18:49.000Z</time>
      </trkpt>
      <trkpt lat="43.42692" lon="-1.45246">
        <ele>15</ele>
        <time>2026-08-23T13:18:51.000Z</time>
      </trkpt>
      <trkpt lat="43.42666" lon="-1.45261">
        <ele>13</ele>
        <time>2026-08-23T13:18:56.000Z</time>
      </trkpt>
      <trkpt lat="43.42593" lon="-1.45327">
        <ele>10</ele>
        <time>2026-08-23T13:19:12.000Z</time>
      </trkpt>
      <trkpt lat="43.42488" lon="-1.45383">
        <ele>12</ele>
        <time>2026-08-23T13:19:32.000Z</time>
      </trkpt>
      <trkpt lat="43.42455" lon="-1.45389">
        <ele>12</ele>
        <time>2026-08-23T13:19:38.000Z</time>
      </trkpt>
      <trkpt lat="43.42388" lon="-1.45397">
        <ele>12</ele>
        <time>2026-08-23T13:19:50.000Z</time>
      </trkpt>
      <trkpt lat="43.42326" lon="-1.45413">
        <ele>10</ele>
        <time>2026-08-23T13:20:01.000Z</time>
      </trkpt>
      <trkpt lat="43.42312" lon="-1.45426">
        <ele>12</ele>
        <time>2026-08-23T13:20:04.000Z</time>
      </trkpt>
      <trkpt lat="43.42306" lon="-1.45435">
        <ele>13</ele>
        <time>2026-08-23T13:20:06.000Z</time>
      </trkpt>
      <trkpt lat="43.42295" lon="-1.45463">
        <ele>14</ele>
        <time>2026-08-23T13:20:10.000Z</time>
      </trkpt>
      <trkpt lat="43.42276" lon="-1.45526">
        <ele>13</ele>
        <time>2026-08-23T13:20:19.000Z</time>
      </trkpt>
      <trkpt lat="43.42261" lon="-1.45548">
        <ele>13</ele>
        <time>2026-08-23T13:20:22.000Z</time>
      </trkpt>
      <trkpt lat="43.42209" lon="-1.456">
        <ele>10</ele>
        <time>2026-08-23T13:20:34.000Z</time>
      </trkpt>
      <trkpt lat="43.42193" lon="-1.45608">
        <ele>11</ele>
        <time>2026-08-23T13:20:37.000Z</time>
      </trkpt>
      <trkpt lat="43.42153" lon="-1.45615">
        <ele>11</ele>
        <time>2026-08-23T13:20:44.000Z</time>
      </trkpt>
      <trkpt lat="43.42118" lon="-1.45599">
        <ele>11</ele>
        <time>2026-08-23T13:20:51.000Z</time>
      </trkpt>
      <trkpt lat="43.42105" lon="-1.45585">
        <ele>12</ele>
        <time>2026-08-23T13:20:54.000Z</time>
      </trkpt>
      <trkpt lat="43.42083" lon="-1.45553">
        <ele>14</ele>
        <time>2026-08-23T13:20:59.000Z</time>
      </trkpt>
      <trkpt lat="43.42064" lon="-1.45523">
        <ele>15</ele>
        <time>2026-08-23T13:21:04.000Z</time>
      </trkpt>
      <trkpt lat="43.42035" lon="-1.45469">
        <ele>16</ele>
        <time>2026-08-23T13:21:13.000Z</time>
      </trkpt>
      <trkpt lat="43.42027" lon="-1.45457">
        <ele>17</ele>
        <time>2026-08-23T13:21:15.000Z</time>
      </trkpt>
      <trkpt lat="43.42011" lon="-1.45445">
        <ele>17</ele>
        <time>2026-08-23T13:21:18.000Z</time>
      </trkpt>
      <trkpt lat="43.41848" lon="-1.45381">
        <ele>12</ele>
        <time>2026-08-23T13:21:49.000Z</time>
      </trkpt>
      <trkpt lat="43.41529" lon="-1.45267">
        <ele>16</ele>
        <time>2026-08-23T13:22:47.000Z</time>
      </trkpt>
      <trkpt lat="43.41513" lon="-1.45258">
        <ele>14</ele>
        <time>2026-08-23T13:22:50.000Z</time>
      </trkpt>
      <trkpt lat="43.4149" lon="-1.45234">
        <ele>14</ele>
        <time>2026-08-23T13:22:55.000Z</time>
      </trkpt>
      <trkpt lat="43.41472" lon="-1.45211">
        <ele>16</ele>
        <time>2026-08-23T13:23:00.000Z</time>
      </trkpt>
      <trkpt lat="43.41452" lon="-1.45193">
        <ele>16</ele>
        <time>2026-08-23T13:23:04.000Z</time>
      </trkpt>
      <trkpt lat="43.41435" lon="-1.45184">
        <ele>14</ele>
        <time>2026-08-23T13:23:07.000Z</time>
      </trkpt>
      <trkpt lat="43.4141" lon="-1.45181">
        <ele>12</ele>
        <time>2026-08-23T13:23:12.000Z</time>
      </trkpt>
      <trkpt lat="43.41385" lon="-1.45175">
        <ele>13</ele>
        <time>2026-08-23T13:23:16.000Z</time>
      </trkpt>
      <trkpt lat="43.41364" lon="-1.45166">
        <ele>15</ele>
        <time>2026-08-23T13:23:20.000Z</time>
      </trkpt>
      <trkpt lat="43.41349" lon="-1.45165">
        <ele>15</ele>
        <time>2026-08-23T13:23:23.000Z</time>
      </trkpt>
      <trkpt lat="43.41331" lon="-1.4517">
        <ele>15</ele>
        <time>2026-08-23T13:23:26.000Z</time>
      </trkpt>
      <trkpt lat="43.41268" lon="-1.45204">
        <ele>12</ele>
        <time>2026-08-23T13:23:38.000Z</time>
      </trkpt>
      <trkpt lat="43.41255" lon="-1.45205">
        <ele>12</ele>
        <time>2026-08-23T13:23:40.000Z</time>
      </trkpt>
      <trkpt lat="43.41245" lon="-1.45201">
        <ele>12</ele>
        <time>2026-08-23T13:23:42.000Z</time>
      </trkpt>
      <trkpt lat="43.41233" lon="-1.45192">
        <ele>12</ele>
        <time>2026-08-23T13:23:45.000Z</time>
      </trkpt>
      <trkpt lat="43.41179" lon="-1.45141">
        <ele>13</ele>
        <time>2026-08-23T13:23:56.000Z</time>
      </trkpt>
      <trkpt lat="43.41099" lon="-1.45062">
        <ele>12</ele>
        <time>2026-08-23T13:24:14.000Z</time>
      </trkpt>
      <trkpt lat="43.41088" lon="-1.45055">
        <ele>10</ele>
        <time>2026-08-23T13:24:16.000Z</time>
      </trkpt>
      <trkpt lat="43.4108" lon="-1.45052">
        <ele>9</ele>
        <time>2026-08-23T13:24:18.000Z</time>
      </trkpt>
      <trkpt lat="43.4106" lon="-1.45054">
        <ele>8</ele>
        <time>2026-08-23T13:24:21.000Z</time>
      </trkpt>
      <trkpt lat="43.40965" lon="-1.45074">
        <ele>6</ele>
        <time>2026-08-23T13:24:38.000Z</time>
      </trkpt>
      <trkpt lat="43.40954" lon="-1.45073">
        <ele>6</ele>
        <time>2026-08-23T13:24:40.000Z</time>
      </trkpt>
      <trkpt lat="43.40881" lon="-1.45043">
        <ele>7</ele>
        <time>2026-08-23T13:24:54.000Z</time>
      </trkpt>
      <trkpt lat="43.40871" lon="-1.4504">
        <ele>8</ele>
        <time>2026-08-23T13:24:56.000Z</time>
      </trkpt>
      <trkpt lat="43.4086" lon="-1.45043">
        <ele>8</ele>
        <time>2026-08-23T13:24:58.000Z</time>
      </trkpt>
      <trkpt lat="43.40855" lon="-1.45046">
        <ele>8</ele>
        <time>2026-08-23T13:24:59.000Z</time>
      </trkpt>
      <trkpt lat="43.40822" lon="-1.45093">
        <ele>8</ele>
        <time>2026-08-23T13:25:07.000Z</time>
      </trkpt>
      <trkpt lat="43.40815" lon="-1.451">
        <ele>7</ele>
        <time>2026-08-23T13:25:09.000Z</time>
      </trkpt>
      <trkpt lat="43.40805" lon="-1.45107">
        <ele>7</ele>
        <time>2026-08-23T13:25:11.000Z</time>
      </trkpt>
      <trkpt lat="43.40795" lon="-1.45108">
        <ele>7</ele>
        <time>2026-08-23T13:25:12.000Z</time>
      </trkpt>
      <trkpt lat="43.40781" lon="-1.45106">
        <ele>7</ele>
        <time>2026-08-23T13:25:15.000Z</time>
      </trkpt>
      <trkpt lat="43.4076" lon="-1.45096">
        <ele>7</ele>
        <time>2026-08-23T13:25:19.000Z</time>
      </trkpt>
      <trkpt lat="43.40685" lon="-1.45041">
        <ele>7</ele>
        <time>2026-08-23T13:25:34.000Z</time>
      </trkpt>
      <trkpt lat="43.40674" lon="-1.45036">
        <ele>7</ele>
        <time>2026-08-23T13:25:36.000Z</time>
      </trkpt>
      <trkpt lat="43.40661" lon="-1.45032">
        <ele>7</ele>
        <time>2026-08-23T13:25:38.000Z</time>
      </trkpt>
      <trkpt lat="43.40602" lon="-1.45032">
        <ele>7</ele>
        <time>2026-08-23T13:25:49.000Z</time>
      </trkpt>
      <trkpt lat="43.40584" lon="-1.45027">
        <ele>7</ele>
        <time>2026-08-23T13:25:52.000Z</time>
      </trkpt>
      <trkpt lat="43.40565" lon="-1.45015">
        <ele>8</ele>
        <time>2026-08-23T13:25:56.000Z</time>
      </trkpt>
      <trkpt lat="43.40542" lon="-1.44995">
        <ele>8</ele>
        <time>2026-08-23T13:26:01.000Z</time>
      </trkpt>
      <trkpt lat="43.40474" lon="-1.44959">
        <ele>8</ele>
        <time>2026-08-23T13:26:14.000Z</time>
      </trkpt>
      <trkpt lat="43.40453" lon="-1.44951">
        <ele>7</ele>
        <time>2026-08-23T13:26:17.000Z</time>
      </trkpt>
      <trkpt lat="43.40447" lon="-1.44953">
        <ele>7</ele>
        <time>2026-08-23T13:26:19.000Z</time>
      </trkpt>
      <trkpt lat="43.40438" lon="-1.4496">
        <ele>7</ele>
        <time>2026-08-23T13:26:20.000Z</time>
      </trkpt>
      <trkpt lat="43.40438" lon="-1.44965">
        <ele>7</ele>
        <time>2026-08-23T13:26:21.000Z</time>
      </trkpt>
      <trkpt lat="43.40133" lon="-1.45387">
        <ele>6</ele>
        <time>2026-08-23T13:27:38.000Z</time>
      </trkpt>
      <trkpt lat="43.40109" lon="-1.45426">
        <ele>7</ele>
        <time>2026-08-23T13:27:45.000Z</time>
      </trkpt>
      <trkpt lat="43.40084" lon="-1.45483">
        <ele>7</ele>
        <time>2026-08-23T13:27:53.000Z</time>
      </trkpt>
      <trkpt lat="43.40078" lon="-1.45486">
        <ele>7</ele>
        <time>2026-08-23T13:27:54.000Z</time>
      </trkpt>
      <trkpt lat="43.40039" lon="-1.45575">
        <ele>8</ele>
        <time>2026-08-23T13:28:08.000Z</time>
      </trkpt>
      <trkpt lat="43.40005" lon="-1.45652">
        <ele>14</ele>
        <time>2026-08-23T13:28:19.000Z</time>
      </trkpt>
      <trkpt lat="43.40003" lon="-1.45663">
        <ele>15</ele>
        <time>2026-08-23T13:28:21.000Z</time>
      </trkpt>
      <trkpt lat="43.39955" lon="-1.45609">
        <ele>13</ele>
        <time>2026-08-23T13:28:32.000Z</time>
      </trkpt>
      <trkpt lat="43.39893" lon="-1.45534">
        <ele>12</ele>
        <time>2026-08-23T13:28:47.000Z</time>
      </trkpt>
      <trkpt lat="43.39883" lon="-1.45525">
        <ele>13</ele>
        <time>2026-08-23T13:28:49.000Z</time>
      </trkpt>
      <trkpt lat="43.39816" lon="-1.45479">
        <ele>14</ele>
        <time>2026-08-23T13:29:02.000Z</time>
      </trkpt>
      <trkpt lat="43.39734" lon="-1.45431">
        <ele>15</ele>
        <time>2026-08-23T13:29:18.000Z</time>
      </trkpt>
      <trkpt lat="43.39726" lon="-1.45427">
        <ele>15</ele>
        <time>2026-08-23T13:29:19.000Z</time>
      </trkpt>
      <trkpt lat="43.39714" lon="-1.45427">
        <ele>15</ele>
        <time>2026-08-23T13:29:22.000Z</time>
      </trkpt>
      <trkpt lat="43.39706" lon="-1.4543">
        <ele>15</ele>
        <time>2026-08-23T13:29:23.000Z</time>
      </trkpt>
      <trkpt lat="43.39704" lon="-1.45435">
        <ele>15</ele>
        <time>2026-08-23T13:29:24.000Z</time>
      </trkpt>
      <trkpt lat="43.39698" lon="-1.45438">
        <ele>15</ele>
        <time>2026-08-23T13:29:25.000Z</time>
      </trkpt>
      <trkpt lat="43.39694" lon="-1.45447">
        <ele>16</ele>
        <time>2026-08-23T13:29:26.000Z</time>
      </trkpt>
      <trkpt lat="43.39678" lon="-1.45502">
        <ele>18</ele>
        <time>2026-08-23T13:29:34.000Z</time>
      </trkpt>
      <trkpt lat="43.39677" lon="-1.45518">
        <ele>18</ele>
        <time>2026-08-23T13:29:36.000Z</time>
      </trkpt>
      <trkpt lat="43.39682" lon="-1.45544">
        <ele>18</ele>
        <time>2026-08-23T13:29:40.000Z</time>
      </trkpt>
      <trkpt lat="43.39681" lon="-1.4556">
        <ele>18</ele>
        <time>2026-08-23T13:29:42.000Z</time>
      </trkpt>
      <trkpt lat="43.39674" lon="-1.45575">
        <ele>19</ele>
        <time>2026-08-23T13:29:44.000Z</time>
      </trkpt>
      <trkpt lat="43.39664" lon="-1.45586">
        <ele>19</ele>
        <time>2026-08-23T13:29:46.000Z</time>
      </trkpt>
      <trkpt lat="43.39654" lon="-1.45588">
        <ele>19</ele>
        <time>2026-08-23T13:29:48.000Z</time>
      </trkpt>
      <trkpt lat="43.39601" lon="-1.45576">
        <ele>20</ele>
        <time>2026-08-23T13:29:58.000Z</time>
      </trkpt>
      <trkpt lat="43.39579" lon="-1.45579">
        <ele>21</ele>
        <time>2026-08-23T13:30:01.000Z</time>
      </trkpt>
      <trkpt lat="43.3952" lon="-1.45603">
        <ele>22</ele>
        <time>2026-08-23T13:30:12.000Z</time>
      </trkpt>
      <trkpt lat="43.39508" lon="-1.4561">
        <ele>22</ele>
        <time>2026-08-23T13:30:15.000Z</time>
      </trkpt>
      <trkpt lat="43.39497" lon="-1.45624">
        <ele>23</ele>
        <time>2026-08-23T13:30:17.000Z</time>
      </trkpt>
      <trkpt lat="43.39465" lon="-1.45691">
        <ele>24</ele>
        <time>2026-08-23T13:30:28.000Z</time>
      </trkpt>
      <trkpt lat="43.39467" lon="-1.45693">
        <ele>24</ele>
        <time>2026-08-23T13:30:28.000Z</time>
      </trkpt>
      <trkpt lat="43.39465" lon="-1.45691">
        <ele>24</ele>
        <time>2026-08-23T13:30:29.000Z</time>
      </trkpt>
      <trkpt lat="43.39449" lon="-1.45727">
        <ele>24</ele>
        <time>2026-08-23T13:30:34.000Z</time>
      </trkpt>
      <trkpt lat="43.39424" lon="-1.45803">
        <ele>28</ele>
        <time>2026-08-23T13:30:45.000Z</time>
      </trkpt>
      <trkpt lat="43.39412" lon="-1.45851">
        <ele>32</ele>
        <time>2026-08-23T13:30:51.000Z</time>
      </trkpt>
      <trkpt lat="43.39409" lon="-1.45882">
        <ele>36</ele>
        <time>2026-08-23T13:30:56.000Z</time>
      </trkpt>
      <trkpt lat="43.39409" lon="-1.45899">
        <ele>38</ele>
        <time>2026-08-23T13:30:58.000Z</time>
      </trkpt>
      <trkpt lat="43.39412" lon="-1.45914">
        <ele>39</ele>
        <time>2026-08-23T13:31:00.000Z</time>
      </trkpt>
      <trkpt lat="43.39424" lon="-1.45936">
        <ele>42</ele>
        <time>2026-08-23T13:31:03.000Z</time>
      </trkpt>
      <trkpt lat="43.39437" lon="-1.45946">
        <ele>42</ele>
        <time>2026-08-23T13:31:06.000Z</time>
      </trkpt>
      <trkpt lat="43.39443" lon="-1.45943">
        <ele>41</ele>
        <time>2026-08-23T13:31:07.000Z</time>
      </trkpt>
      <trkpt lat="43.39447" lon="-1.45937">
        <ele>40</ele>
        <time>2026-08-23T13:31:08.000Z</time>
      </trkpt>
      <trkpt lat="43.39447" lon="-1.45922">
        <ele>37</ele>
        <time>2026-08-23T13:31:10.000Z</time>
      </trkpt>
      <trkpt lat="43.39423" lon="-1.45886">
        <ele>35</ele>
        <time>2026-08-23T13:31:16.000Z</time>
      </trkpt>
      <trkpt lat="43.39399" lon="-1.45848">
        <ele>33</ele>
        <time>2026-08-23T13:31:23.000Z</time>
      </trkpt>
      <trkpt lat="43.39336" lon="-1.45748">
        <ele>31</ele>
        <time>2026-08-23T13:31:40.000Z</time>
      </trkpt>
      <trkpt lat="43.39301" lon="-1.45709">
        <ele>32</ele>
        <time>2026-08-23T13:31:48.000Z</time>
      </trkpt>
      <trkpt lat="43.39285" lon="-1.45696">
        <ele>33</ele>
        <time>2026-08-23T13:31:51.000Z</time>
      </trkpt>
      <trkpt lat="43.39278" lon="-1.45692">
        <ele>33</ele>
        <time>2026-08-23T13:31:53.000Z</time>
      </trkpt>
      <trkpt lat="43.39272" lon="-1.45694">
        <ele>34</ele>
        <time>2026-08-23T13:31:54.000Z</time>
      </trkpt>
      <trkpt lat="43.39229" lon="-1.45639">
        <ele>33</ele>
        <time>2026-08-23T13:32:04.000Z</time>
      </trkpt>
      <trkpt lat="43.39207" lon="-1.45617">
        <ele>33</ele>
        <time>2026-08-23T13:32:09.000Z</time>
      </trkpt>
      <trkpt lat="43.3921" lon="-1.45642">
        <ele>35</ele>
        <time>2026-08-23T13:32:12.000Z</time>
      </trkpt>
      <trkpt lat="43.39203" lon="-1.45663">
        <ele>37</ele>
        <time>2026-08-23T13:32:15.000Z</time>
      </trkpt>
      <trkpt lat="43.39203" lon="-1.45677">
        <ele>39</ele>
        <time>2026-08-23T13:32:17.000Z</time>
      </trkpt>
      <trkpt lat="43.39212" lon="-1.457">
        <ele>41</ele>
        <time>2026-08-23T13:32:20.000Z</time>
      </trkpt>
      <trkpt lat="43.39213" lon="-1.45731">
        <ele>46</ele>
        <time>2026-08-23T13:32:24.000Z</time>
      </trkpt>
      <trkpt lat="43.39218" lon="-1.45741">
        <ele>47</ele>
        <time>2026-08-23T13:32:26.000Z</time>
      </trkpt>
      <trkpt lat="43.39223" lon="-1.45747">
        <ele>47</ele>
        <time>2026-08-23T13:32:27.000Z</time>
      </trkpt>
      <trkpt lat="43.39246" lon="-1.4576">
        <ele>45</ele>
        <time>2026-08-23T13:32:32.000Z</time>
      </trkpt>
      <trkpt lat="43.39253" lon="-1.4577">
        <ele>45</ele>
        <time>2026-08-23T13:32:33.000Z</time>
      </trkpt>
      <trkpt lat="43.39255" lon="-1.45781">
        <ele>46</ele>
        <time>2026-08-23T13:32:35.000Z</time>
      </trkpt>
      <trkpt lat="43.39245" lon="-1.45828">
        <ele>54</ele>
        <time>2026-08-23T13:32:41.000Z</time>
      </trkpt>
      <trkpt lat="43.39251" lon="-1.45933">
        <ele>55</ele>
        <time>2026-08-23T13:32:55.000Z</time>
      </trkpt>
      <trkpt lat="43.39246" lon="-1.45946">
        <ele>54</ele>
        <time>2026-08-23T13:32:57.000Z</time>
      </trkpt>
      <trkpt lat="43.39149" lon="-1.45954">
        <ele>56</ele>
        <time>2026-08-23T13:33:14.000Z</time>
      </trkpt>
      <trkpt lat="43.39134" lon="-1.45958">
        <ele>56</ele>
        <time>2026-08-23T13:33:17.000Z</time>
      </trkpt>
      <trkpt lat="43.39119" lon="-1.45965">
        <ele>57</ele>
        <time>2026-08-23T13:33:20.000Z</time>
      </trkpt>
      <trkpt lat="43.39088" lon="-1.45996">
        <ele>58</ele>
        <time>2026-08-23T13:33:26.000Z</time>
      </trkpt>
      <trkpt lat="43.39051" lon="-1.46055">
        <ele>55</ele>
        <time>2026-08-23T13:33:37.000Z</time>
      </trkpt>
      <trkpt lat="43.39025" lon="-1.46092">
        <ele>57</ele>
        <time>2026-08-23T13:33:43.000Z</time>
      </trkpt>
      <trkpt lat="43.38993" lon="-1.46164">
        <ele>52</ele>
        <time>2026-08-23T13:33:54.000Z</time>
      </trkpt>
      <trkpt lat="43.38963" lon="-1.46201">
        <ele>51</ele>
        <time>2026-08-23T13:34:01.000Z</time>
      </trkpt>
      <trkpt lat="43.38929" lon="-1.46219">
        <ele>53</ele>
        <time>2026-08-23T13:34:08.000Z</time>
      </trkpt>
      <trkpt lat="43.38906" lon="-1.46253">
        <ele>48</ele>
        <time>2026-08-23T13:34:14.000Z</time>
      </trkpt>
      <trkpt lat="43.3887" lon="-1.46281">
        <ele>48</ele>
        <time>2026-08-23T13:34:21.000Z</time>
      </trkpt>
      <trkpt lat="43.38761" lon="-1.46327">
        <ele>46</ele>
        <time>2026-08-23T13:34:41.000Z</time>
      </trkpt>
      <trkpt lat="43.38738" lon="-1.46328">
        <ele>44</ele>
        <time>2026-08-23T13:34:45.000Z</time>
      </trkpt>
      <trkpt lat="43.38684" lon="-1.46285">
        <ele>44</ele>
        <time>2026-08-23T13:34:57.000Z</time>
      </trkpt>
      <trkpt lat="43.38653" lon="-1.46266">
        <ele>45</ele>
        <time>2026-08-23T13:35:03.000Z</time>
      </trkpt>
      <trkpt lat="43.38628" lon="-1.46268">
        <ele>44</ele>
        <time>2026-08-23T13:35:07.000Z</time>
      </trkpt>
      <trkpt lat="43.38591" lon="-1.463">
        <ele>39</ele>
        <time>2026-08-23T13:35:15.000Z</time>
      </trkpt>
      <trkpt lat="43.38558" lon="-1.46346">
        <ele>35</ele>
        <time>2026-08-23T13:35:23.000Z</time>
      </trkpt>
      <trkpt lat="43.38545" lon="-1.4636">
        <ele>35</ele>
        <time>2026-08-23T13:35:26.000Z</time>
      </trkpt>
      <trkpt lat="43.3853" lon="-1.46369">
        <ele>34</ele>
        <time>2026-08-23T13:35:29.000Z</time>
      </trkpt>
      <trkpt lat="43.38513" lon="-1.46373">
        <ele>34</ele>
        <time>2026-08-23T13:35:32.000Z</time>
      </trkpt>
      <trkpt lat="43.38476" lon="-1.4637">
        <ele>35</ele>
        <time>2026-08-23T13:35:39.000Z</time>
      </trkpt>
      <trkpt lat="43.38461" lon="-1.46373">
        <ele>36</ele>
        <time>2026-08-23T13:35:41.000Z</time>
      </trkpt>
      <trkpt lat="43.38446" lon="-1.46384">
        <ele>37</ele>
        <time>2026-08-23T13:35:44.000Z</time>
      </trkpt>
      <trkpt lat="43.3841" lon="-1.46418">
        <ele>38</ele>
        <time>2026-08-23T13:35:52.000Z</time>
      </trkpt>
      <trkpt lat="43.3841" lon="-1.4643">
        <ele>38</ele>
        <time>2026-08-23T13:35:54.000Z</time>
      </trkpt>
      <trkpt lat="43.38408" lon="-1.46435">
        <ele>38</ele>
        <time>2026-08-23T13:35:54.000Z</time>
      </trkpt>
      <trkpt lat="43.38401" lon="-1.46438">
        <ele>39</ele>
        <time>2026-08-23T13:35:56.000Z</time>
      </trkpt>
      <trkpt lat="43.38394" lon="-1.46433">
        <ele>39</ele>
        <time>2026-08-23T13:35:57.000Z</time>
      </trkpt>
      <trkpt lat="43.38368" lon="-1.46483">
        <ele>41</ele>
        <time>2026-08-23T13:36:05.000Z</time>
      </trkpt>
      <trkpt lat="43.38359" lon="-1.46518">
        <ele>42</ele>
        <time>2026-08-23T13:36:10.000Z</time>
      </trkpt>
      <trkpt lat="43.38352" lon="-1.46552">
        <ele>43</ele>
        <time>2026-08-23T13:36:15.000Z</time>
      </trkpt>
      <trkpt lat="43.3835" lon="-1.46599">
        <ele>45</ele>
        <time>2026-08-23T13:36:21.000Z</time>
      </trkpt>
      <trkpt lat="43.38352" lon="-1.4663">
        <ele>45</ele>
        <time>2026-08-23T13:36:25.000Z</time>
      </trkpt>
      <trkpt lat="43.38358" lon="-1.46657">
        <ele>45</ele>
        <time>2026-08-23T13:36:28.000Z</time>
      </trkpt>
      <trkpt lat="43.3847" lon="-1.46856">
        <ele>54</ele>
        <time>2026-08-23T13:37:01.000Z</time>
      </trkpt>
      <trkpt lat="43.38527" lon="-1.4698">
        <ele>65</ele>
        <time>2026-08-23T13:37:20.000Z</time>
      </trkpt>
      <trkpt lat="43.38552" lon="-1.47046">
        <ele>70</ele>
        <time>2026-08-23T13:37:29.000Z</time>
      </trkpt>
      <trkpt lat="43.38578" lon="-1.47147">
        <ele>75</ele>
        <time>2026-08-23T13:37:43.000Z</time>
      </trkpt>
      <trkpt lat="43.38578" lon="-1.47162">
        <ele>75</ele>
        <time>2026-08-23T13:37:45.000Z</time>
      </trkpt>
      <trkpt lat="43.38574" lon="-1.47178">
        <ele>76</ele>
        <time>2026-08-23T13:37:47.000Z</time>
      </trkpt>
      <trkpt lat="43.38539" lon="-1.47212">
        <ele>76</ele>
        <time>2026-08-23T13:37:55.000Z</time>
      </trkpt>
      <trkpt lat="43.38534" lon="-1.47222">
        <ele>76</ele>
        <time>2026-08-23T13:37:57.000Z</time>
      </trkpt>
      <trkpt lat="43.38531" lon="-1.47234">
        <ele>77</ele>
        <time>2026-08-23T13:37:58.000Z</time>
      </trkpt>
      <trkpt lat="43.3853" lon="-1.47247">
        <ele>79</ele>
        <time>2026-08-23T13:38:00.000Z</time>
      </trkpt>
      <trkpt lat="43.38532" lon="-1.47259">
        <ele>79</ele>
        <time>2026-08-23T13:38:02.000Z</time>
      </trkpt>
      <trkpt lat="43.38581" lon="-1.4744">
        <ele>87</ele>
        <time>2026-08-23T13:38:27.000Z</time>
      </trkpt>
      <trkpt lat="43.38583" lon="-1.47472">
        <ele>86</ele>
        <time>2026-08-23T13:38:31.000Z</time>
      </trkpt>
      <trkpt lat="43.38574" lon="-1.47586">
        <ele>89</ele>
        <time>2026-08-23T13:38:45.000Z</time>
      </trkpt>
      <trkpt lat="43.38573" lon="-1.47605">
        <ele>90</ele>
        <time>2026-08-23T13:38:48.000Z</time>
      </trkpt>
      <trkpt lat="43.38576" lon="-1.4763">
        <ele>90</ele>
        <time>2026-08-23T13:38:51.000Z</time>
      </trkpt>
      <trkpt lat="43.3859" lon="-1.47707">
        <ele>92</ele>
        <time>2026-08-23T13:39:01.000Z</time>
      </trkpt>
      <trkpt lat="43.38599" lon="-1.47742">
        <ele>94</ele>
        <time>2026-08-23T13:39:06.000Z</time>
      </trkpt>
      <trkpt lat="43.3861" lon="-1.4777">
        <ele>95</ele>
        <time>2026-08-23T13:39:10.000Z</time>
      </trkpt>
      <trkpt lat="43.38651" lon="-1.4784">
        <ele>99</ele>
        <time>2026-08-23T13:39:22.000Z</time>
      </trkpt>
      <trkpt lat="43.3869" lon="-1.47921">
        <ele>104</ele>
        <time>2026-08-23T13:39:35.000Z</time>
      </trkpt>
      <trkpt lat="43.38712" lon="-1.47953">
        <ele>106</ele>
        <time>2026-08-23T13:39:40.000Z</time>
      </trkpt>
      <trkpt lat="43.38723" lon="-1.47963">
        <ele>107</ele>
        <time>2026-08-23T13:39:43.000Z</time>
      </trkpt>
      <trkpt lat="43.38784" lon="-1.48006">
        <ele>109</ele>
        <time>2026-08-23T13:39:55.000Z</time>
      </trkpt>
      <trkpt lat="43.38791" lon="-1.48017">
        <ele>110</ele>
        <time>2026-08-23T13:39:57.000Z</time>
      </trkpt>
      <trkpt lat="43.38795" lon="-1.48032">
        <ele>110</ele>
        <time>2026-08-23T13:39:59.000Z</time>
      </trkpt>
      <trkpt lat="43.38797" lon="-1.48047">
        <ele>111</ele>
        <time>2026-08-23T13:40:01.000Z</time>
      </trkpt>
      <trkpt lat="43.38806" lon="-1.48158">
        <ele>113</ele>
        <time>2026-08-23T13:40:15.000Z</time>
      </trkpt>
      <trkpt lat="43.38806" lon="-1.48177">
        <ele>112</ele>
        <time>2026-08-23T13:40:18.000Z</time>
      </trkpt>
      <trkpt lat="43.38785" lon="-1.48321">
        <ele>111</ele>
        <time>2026-08-23T13:40:37.000Z</time>
      </trkpt>
      <trkpt lat="43.38777" lon="-1.48351">
        <ele>111</ele>
        <time>2026-08-23T13:40:41.000Z</time>
      </trkpt>
      <trkpt lat="43.38767" lon="-1.48371">
        <ele>112</ele>
        <time>2026-08-23T13:40:44.000Z</time>
      </trkpt>
      <trkpt lat="43.38729" lon="-1.48433">
        <ele>114</ele>
        <time>2026-08-23T13:40:54.000Z</time>
      </trkpt>
      <trkpt lat="43.3871" lon="-1.48454">
        <ele>114</ele>
        <time>2026-08-23T13:40:59.000Z</time>
      </trkpt>
      <trkpt lat="43.38686" lon="-1.48472">
        <ele>116</ele>
        <time>2026-08-23T13:41:04.000Z</time>
      </trkpt>
      <trkpt lat="43.3866" lon="-1.48496">
        <ele>117</ele>
        <time>2026-08-23T13:41:09.000Z</time>
      </trkpt>
      <trkpt lat="43.38647" lon="-1.48516">
        <ele>116</ele>
        <time>2026-08-23T13:41:13.000Z</time>
      </trkpt>
      <trkpt lat="43.38636" lon="-1.48544">
        <ele>115</ele>
        <time>2026-08-23T13:41:17.000Z</time>
      </trkpt>
      <trkpt lat="43.38633" lon="-1.48568">
        <ele>114</ele>
        <time>2026-08-23T13:41:20.000Z</time>
      </trkpt>
      <trkpt lat="43.38642" lon="-1.48713">
        <ele>107</ele>
        <time>2026-08-23T13:41:39.000Z</time>
      </trkpt>
      <trkpt lat="43.38651" lon="-1.48743">
        <ele>108</ele>
        <time>2026-08-23T13:41:43.000Z</time>
      </trkpt>
      <trkpt lat="43.38696" lon="-1.4882">
        <ele>107</ele>
        <time>2026-08-23T13:41:56.000Z</time>
      </trkpt>
      <trkpt lat="43.38702" lon="-1.4886">
        <ele>107</ele>
        <time>2026-08-23T13:42:01.000Z</time>
      </trkpt>
      <trkpt lat="43.38734" lon="-1.49133">
        <ele>119</ele>
        <time>2026-08-23T13:42:37.000Z</time>
      </trkpt>
      <trkpt lat="43.38737" lon="-1.49263">
        <ele>126</ele>
        <time>2026-08-23T13:42:54.000Z</time>
      </trkpt>
      <trkpt lat="43.38706" lon="-1.49424">
        <ele>126</ele>
        <time>2026-08-23T13:43:15.000Z</time>
      </trkpt>
      <trkpt lat="43.38678" lon="-1.49501">
        <ele>133</ele>
        <time>2026-08-23T13:43:26.000Z</time>
      </trkpt>
      <trkpt lat="43.38685" lon="-1.49592">
        <ele>133</ele>
        <time>2026-08-23T13:43:38.000Z</time>
      </trkpt>
      <trkpt lat="43.3868" lon="-1.49636">
        <ele>134</ele>
        <time>2026-08-23T13:43:44.000Z</time>
      </trkpt>
      <trkpt lat="43.3866" lon="-1.49697">
        <ele>138</ele>
        <time>2026-08-23T13:43:52.000Z</time>
      </trkpt>
      <trkpt lat="43.38573" lon="-1.49898">
        <ele>141</ele>
        <time>2026-08-23T13:44:23.000Z</time>
      </trkpt>
      <trkpt lat="43.38555" lon="-1.49922">
        <ele>140</ele>
        <time>2026-08-23T13:44:27.000Z</time>
      </trkpt>
      <trkpt lat="43.38475" lon="-1.49994">
        <ele>136</ele>
        <time>2026-08-23T13:44:44.000Z</time>
      </trkpt>
      <trkpt lat="43.38468" lon="-1.50015">
        <ele>135</ele>
        <time>2026-08-23T13:44:47.000Z</time>
      </trkpt>
      <trkpt lat="43.38452" lon="-1.50137">
        <ele>131</ele>
        <time>2026-08-23T13:45:03.000Z</time>
      </trkpt>
      <trkpt lat="43.3844" lon="-1.50174">
        <ele>129</ele>
        <time>2026-08-23T13:45:08.000Z</time>
      </trkpt>
      <trkpt lat="43.38412" lon="-1.50226">
        <ele>128</ele>
        <time>2026-08-23T13:45:17.000Z</time>
      </trkpt>
      <trkpt lat="43.38359" lon="-1.50285">
        <ele>126</ele>
        <time>2026-08-23T13:45:29.000Z</time>
      </trkpt>
      <trkpt lat="43.38265" lon="-1.50446">
        <ele>127</ele>
        <time>2026-08-23T13:45:56.000Z</time>
      </trkpt>
      <trkpt lat="43.3826" lon="-1.50458">
        <ele>127</ele>
        <time>2026-08-23T13:45:57.000Z</time>
      </trkpt>
      <trkpt lat="43.3815" lon="-1.50433">
        <ele>127</ele>
        <time>2026-08-23T13:46:17.000Z</time>
      </trkpt>
      <trkpt lat="43.38125" lon="-1.5043">
        <ele>127</ele>
        <time>2026-08-23T13:46:22.000Z</time>
      </trkpt>
      <trkpt lat="43.38017" lon="-1.50433">
        <ele>128</ele>
        <time>2026-08-23T13:46:41.000Z</time>
      </trkpt>
      <trkpt lat="43.37996" lon="-1.50438">
        <ele>128</ele>
        <time>2026-08-23T13:46:45.000Z</time>
      </trkpt>
      <trkpt lat="43.37963" lon="-1.50452">
        <ele>129</ele>
        <time>2026-08-23T13:46:51.000Z</time>
      </trkpt>
      <trkpt lat="43.37947" lon="-1.50456">
        <ele>129</ele>
        <time>2026-08-23T13:46:54.000Z</time>
      </trkpt>
      <trkpt lat="43.37933" lon="-1.50453">
        <ele>129</ele>
        <time>2026-08-23T13:46:56.000Z</time>
      </trkpt>
      <trkpt lat="43.37906" lon="-1.50439">
        <ele>129</ele>
        <time>2026-08-23T13:47:01.000Z</time>
      </trkpt>
      <trkpt lat="43.3789" lon="-1.50437">
        <ele>128</ele>
        <time>2026-08-23T13:47:04.000Z</time>
      </trkpt>
      <trkpt lat="43.37878" lon="-1.50441">
        <ele>128</ele>
        <time>2026-08-23T13:47:07.000Z</time>
      </trkpt>
      <trkpt lat="43.37871" lon="-1.5045">
        <ele>127</ele>
        <time>2026-08-23T13:47:08.000Z</time>
      </trkpt>
      <trkpt lat="43.37867" lon="-1.50466">
        <ele>127</ele>
        <time>2026-08-23T13:47:10.000Z</time>
      </trkpt>
      <trkpt lat="43.37875" lon="-1.50531">
        <ele>128</ele>
        <time>2026-08-23T13:47:19.000Z</time>
      </trkpt>
      <trkpt lat="43.37871" lon="-1.50596">
        <ele>128</ele>
        <time>2026-08-23T13:47:27.000Z</time>
      </trkpt>
      <trkpt lat="43.37859" lon="-1.50665">
        <ele>129</ele>
        <time>2026-08-23T13:47:37.000Z</time>
      </trkpt>
      <trkpt lat="43.37847" lon="-1.50819">
        <ele>132</ele>
        <time>2026-08-23T13:47:57.000Z</time>
      </trkpt>
      <trkpt lat="43.37838" lon="-1.50848">
        <ele>132</ele>
        <time>2026-08-23T13:48:01.000Z</time>
      </trkpt>
      <trkpt lat="43.37768" lon="-1.50997">
        <ele>135</ele>
        <time>2026-08-23T13:48:24.000Z</time>
      </trkpt>
      <trkpt lat="43.37737" lon="-1.51026">
        <ele>136</ele>
        <time>2026-08-23T13:48:30.000Z</time>
      </trkpt>
      <trkpt lat="43.37723" lon="-1.51051">
        <ele>137</ele>
        <time>2026-08-23T13:48:34.000Z</time>
      </trkpt>
      <trkpt lat="43.37704" lon="-1.51106">
        <ele>137</ele>
        <time>2026-08-23T13:48:42.000Z</time>
      </trkpt>
      <trkpt lat="43.37693" lon="-1.51128">
        <ele>136</ele>
        <time>2026-08-23T13:48:46.000Z</time>
      </trkpt>
      <trkpt lat="43.3768" lon="-1.51144">
        <ele>136</ele>
        <time>2026-08-23T13:48:49.000Z</time>
      </trkpt>
      <trkpt lat="43.37666" lon="-1.51152">
        <ele>136</ele>
        <time>2026-08-23T13:48:51.000Z</time>
      </trkpt>
      <trkpt lat="43.37641" lon="-1.51154">
        <ele>135</ele>
        <time>2026-08-23T13:48:56.000Z</time>
      </trkpt>
      <trkpt lat="43.37596" lon="-1.51133">
        <ele>136</ele>
        <time>2026-08-23T13:49:04.000Z</time>
      </trkpt>
      <trkpt lat="43.37576" lon="-1.51129">
        <ele>136</ele>
        <time>2026-08-23T13:49:08.000Z</time>
      </trkpt>
      <trkpt lat="43.37543" lon="-1.5113">
        <ele>136</ele>
        <time>2026-08-23T13:49:14.000Z</time>
      </trkpt>
      <trkpt lat="43.37523" lon="-1.51135">
        <ele>136</ele>
        <time>2026-08-23T13:49:17.000Z</time>
      </trkpt>
      <trkpt lat="43.37508" lon="-1.51147">
        <ele>136</ele>
        <time>2026-08-23T13:49:21.000Z</time>
      </trkpt>
      <trkpt lat="43.37498" lon="-1.51158">
        <ele>135</ele>
        <time>2026-08-23T13:49:23.000Z</time>
      </trkpt>
      <trkpt lat="43.37487" lon="-1.51176">
        <ele>134</ele>
        <time>2026-08-23T13:49:26.000Z</time>
      </trkpt>
      <trkpt lat="43.37462" lon="-1.51223">
        <ele>132</ele>
        <time>2026-08-23T13:49:33.000Z</time>
      </trkpt>
      <trkpt lat="43.37454" lon="-1.51254">
        <ele>132</ele>
        <time>2026-08-23T13:49:38.000Z</time>
      </trkpt>
      <trkpt lat="43.37452" lon="-1.51292">
        <ele>132</ele>
        <time>2026-08-23T13:49:43.000Z</time>
      </trkpt>
      <trkpt lat="43.37452" lon="-1.51326">
        <ele>131</ele>
        <time>2026-08-23T13:49:47.000Z</time>
      </trkpt>
      <trkpt lat="43.37448" lon="-1.51363">
        <ele>132</ele>
        <time>2026-08-23T13:49:52.000Z</time>
      </trkpt>
      <trkpt lat="43.37438" lon="-1.51436">
        <ele>133</ele>
        <time>2026-08-23T13:50:01.000Z</time>
      </trkpt>
      <trkpt lat="43.37427" lon="-1.51539">
        <ele>134</ele>
        <time>2026-08-23T13:50:15.000Z</time>
      </trkpt>
      <trkpt lat="43.37423" lon="-1.51565">
        <ele>134</ele>
        <time>2026-08-23T13:50:18.000Z</time>
      </trkpt>
      <trkpt lat="43.37411" lon="-1.51588">
        <ele>135</ele>
        <time>2026-08-23T13:50:22.000Z</time>
      </trkpt>
      <trkpt lat="43.374" lon="-1.51603">
        <ele>134</ele>
        <time>2026-08-23T13:50:25.000Z</time>
      </trkpt>
      <trkpt lat="43.37384" lon="-1.51611">
        <ele>134</ele>
        <time>2026-08-23T13:50:28.000Z</time>
      </trkpt>
      <trkpt lat="43.373" lon="-1.51641">
        <ele>137</ele>
        <time>2026-08-23T13:50:43.000Z</time>
      </trkpt>
      <trkpt lat="43.37279" lon="-1.51656">
        <ele>137</ele>
        <time>2026-08-23T13:50:47.000Z</time>
      </trkpt>
      <trkpt lat="43.37263" lon="-1.51685">
        <ele>138</ele>
        <time>2026-08-23T13:50:52.000Z</time>
      </trkpt>
      <trkpt lat="43.37249" lon="-1.51722">
        <ele>139</ele>
        <time>2026-08-23T13:50:58.000Z</time>
      </trkpt>
      <trkpt lat="43.37229" lon="-1.518">
        <ele>139</ele>
        <time>2026-08-23T13:51:08.000Z</time>
      </trkpt>
      <trkpt lat="43.37228" lon="-1.51845">
        <ele>139</ele>
        <time>2026-08-23T13:51:14.000Z</time>
      </trkpt>
      <trkpt lat="43.37239" lon="-1.51887">
        <ele>140</ele>
        <time>2026-08-23T13:51:20.000Z</time>
      </trkpt>
      <trkpt lat="43.37258" lon="-1.51934">
        <ele>139</ele>
        <time>2026-08-23T13:51:27.000Z</time>
      </trkpt>
      <trkpt lat="43.37275" lon="-1.52001">
        <ele>138</ele>
        <time>2026-08-23T13:51:36.000Z</time>
      </trkpt>
      <trkpt lat="43.37287" lon="-1.52055">
        <ele>138</ele>
        <time>2026-08-23T13:51:43.000Z</time>
      </trkpt>
      <trkpt lat="43.37289" lon="-1.52082">
        <ele>138</ele>
        <time>2026-08-23T13:51:47.000Z</time>
      </trkpt>
      <trkpt lat="43.37283" lon="-1.52118">
        <ele>138</ele>
        <time>2026-08-23T13:51:52.000Z</time>
      </trkpt>
      <trkpt lat="43.37271" lon="-1.52149">
        <ele>139</ele>
        <time>2026-08-23T13:51:56.000Z</time>
      </trkpt>
      <trkpt lat="43.37257" lon="-1.52177">
        <ele>139</ele>
        <time>2026-08-23T13:52:00.000Z</time>
      </trkpt>
      <trkpt lat="43.37235" lon="-1.52208">
        <ele>137</ele>
        <time>2026-08-23T13:52:06.000Z</time>
      </trkpt>
      <trkpt lat="43.37178" lon="-1.52275">
        <ele>134</ele>
        <time>2026-08-23T13:52:19.000Z</time>
      </trkpt>
      <trkpt lat="43.37147" lon="-1.52301">
        <ele>136</ele>
        <time>2026-08-23T13:52:26.000Z</time>
      </trkpt>
      <trkpt lat="43.37124" lon="-1.52316">
        <ele>138</ele>
        <time>2026-08-23T13:52:30.000Z</time>
      </trkpt>
      <trkpt lat="43.37089" lon="-1.52331">
        <ele>142</ele>
        <time>2026-08-23T13:52:37.000Z</time>
      </trkpt>
      <trkpt lat="43.37078" lon="-1.52342">
        <ele>143</ele>
        <time>2026-08-23T13:52:39.000Z</time>
      </trkpt>
      <trkpt lat="43.37071" lon="-1.52361">
        <ele>143</ele>
        <time>2026-08-23T13:52:42.000Z</time>
      </trkpt>
      <trkpt lat="43.37068" lon="-1.52455">
        <ele>141</ele>
        <time>2026-08-23T13:52:54.000Z</time>
      </trkpt>
      <trkpt lat="43.37064" lon="-1.52497">
        <ele>141</ele>
        <time>2026-08-23T13:53:00.000Z</time>
      </trkpt>
      <trkpt lat="43.37057" lon="-1.52524">
        <ele>141</ele>
        <time>2026-08-23T13:53:03.000Z</time>
      </trkpt>
      <trkpt lat="43.37046" lon="-1.52546">
        <ele>141</ele>
        <time>2026-08-23T13:53:07.000Z</time>
      </trkpt>
      <trkpt lat="43.3703" lon="-1.52563">
        <ele>141</ele>
        <time>2026-08-23T13:53:11.000Z</time>
      </trkpt>
      <trkpt lat="43.37005" lon="-1.52582">
        <ele>141</ele>
        <time>2026-08-23T13:53:16.000Z</time>
      </trkpt>
      <trkpt lat="43.36952" lon="-1.52605">
        <ele>142</ele>
        <time>2026-08-23T13:53:25.000Z</time>
      </trkpt>
      <trkpt lat="43.36908" lon="-1.52652">
        <ele>141</ele>
        <time>2026-08-23T13:53:35.000Z</time>
      </trkpt>
      <trkpt lat="43.36882" lon="-1.52658">
        <ele>139</ele>
        <time>2026-08-23T13:53:40.000Z</time>
      </trkpt>
      <trkpt lat="43.36867" lon="-1.52655">
        <ele>139</ele>
        <time>2026-08-23T13:53:43.000Z</time>
      </trkpt>
      <trkpt lat="43.36853" lon="-1.52645">
        <ele>139</ele>
        <time>2026-08-23T13:53:46.000Z</time>
      </trkpt>
      <trkpt lat="43.36841" lon="-1.52631">
        <ele>139</ele>
        <time>2026-08-23T13:53:48.000Z</time>
      </trkpt>
      <trkpt lat="43.36833" lon="-1.52616">
        <ele>139</ele>
        <time>2026-08-23T13:53:51.000Z</time>
      </trkpt>
      <trkpt lat="43.36833" lon="-1.52584">
        <ele>140</ele>
        <time>2026-08-23T13:53:55.000Z</time>
      </trkpt>
      <trkpt lat="43.36841" lon="-1.52544">
        <ele>141</ele>
        <time>2026-08-23T13:54:00.000Z</time>
      </trkpt>
      <trkpt lat="43.36831" lon="-1.52476">
        <ele>140</ele>
        <time>2026-08-23T13:54:09.000Z</time>
      </trkpt>
      <trkpt lat="43.36817" lon="-1.52434">
        <ele>140</ele>
        <time>2026-08-23T13:54:15.000Z</time>
      </trkpt>
      <trkpt lat="43.36799" lon="-1.52394">
        <ele>140</ele>
        <time>2026-08-23T13:54:21.000Z</time>
      </trkpt>
      <trkpt lat="43.36787" lon="-1.5235">
        <ele>142</ele>
        <time>2026-08-23T13:54:27.000Z</time>
      </trkpt>
      <trkpt lat="43.36779" lon="-1.52335">
        <ele>142</ele>
        <time>2026-08-23T13:54:30.000Z</time>
      </trkpt>
      <trkpt lat="43.36773" lon="-1.52329">
        <ele>142</ele>
        <time>2026-08-23T13:54:31.000Z</time>
      </trkpt>
      <trkpt lat="43.36764" lon="-1.52325">
        <ele>141</ele>
        <time>2026-08-23T13:54:33.000Z</time>
      </trkpt>
      <trkpt lat="43.36755" lon="-1.52327">
        <ele>140</ele>
        <time>2026-08-23T13:54:34.000Z</time>
      </trkpt>
      <trkpt lat="43.36717" lon="-1.52356">
        <ele>137</ele>
        <time>2026-08-23T13:54:42.000Z</time>
      </trkpt>
      <trkpt lat="43.36702" lon="-1.52364">
        <ele>137</ele>
        <time>2026-08-23T13:54:45.000Z</time>
      </trkpt>
      <trkpt lat="43.36668" lon="-1.52369">
        <ele>138</ele>
        <time>2026-08-23T13:54:51.000Z</time>
      </trkpt>
      <trkpt lat="43.36655" lon="-1.52375">
        <ele>137</ele>
        <time>2026-08-23T13:54:54.000Z</time>
      </trkpt>
      <trkpt lat="43.36641" lon="-1.52391">
        <ele>135</ele>
        <time>2026-08-23T13:54:57.000Z</time>
      </trkpt>
      <trkpt lat="43.3663" lon="-1.52398">
        <ele>134</ele>
        <time>2026-08-23T13:54:59.000Z</time>
      </trkpt>
      <trkpt lat="43.3662" lon="-1.52401">
        <ele>133</ele>
        <time>2026-08-23T13:55:01.000Z</time>
      </trkpt>
      <trkpt lat="43.36609" lon="-1.52398">
        <ele>132</ele>
        <time>2026-08-23T13:55:03.000Z</time>
      </trkpt>
      <trkpt lat="43.36599" lon="-1.52391">
        <ele>132</ele>
        <time>2026-08-23T13:55:05.000Z</time>
      </trkpt>
      <trkpt lat="43.36591" lon="-1.52379">
        <ele>132</ele>
        <time>2026-08-23T13:55:07.000Z</time>
      </trkpt>
      <trkpt lat="43.36555" lon="-1.52297">
        <ele>134</ele>
        <time>2026-08-23T13:55:19.000Z</time>
      </trkpt>
      <trkpt lat="43.36545" lon="-1.52284">
        <ele>134</ele>
        <time>2026-08-23T13:55:22.000Z</time>
      </trkpt>
      <trkpt lat="43.36534" lon="-1.52277">
        <ele>133</ele>
        <time>2026-08-23T13:55:24.000Z</time>
      </trkpt>
      <trkpt lat="43.36523" lon="-1.52274">
        <ele>133</ele>
        <time>2026-08-23T13:55:26.000Z</time>
      </trkpt>
      <trkpt lat="43.36506" lon="-1.52278">
        <ele>131</ele>
        <time>2026-08-23T13:55:29.000Z</time>
      </trkpt>
      <trkpt lat="43.36473" lon="-1.5229">
        <ele>130</ele>
        <time>2026-08-23T13:55:35.000Z</time>
      </trkpt>
      <trkpt lat="43.36446" lon="-1.52304">
        <ele>130</ele>
        <time>2026-08-23T13:55:40.000Z</time>
      </trkpt>
      <trkpt lat="43.36417" lon="-1.52323">
        <ele>131</ele>
        <time>2026-08-23T13:55:46.000Z</time>
      </trkpt>
      <trkpt lat="43.3638" lon="-1.52351">
        <ele>132</ele>
        <time>2026-08-23T13:55:53.000Z</time>
      </trkpt>
      <trkpt lat="43.36356" lon="-1.52376">
        <ele>132</ele>
        <time>2026-08-23T13:55:59.000Z</time>
      </trkpt>
      <trkpt lat="43.36342" lon="-1.52397">
        <ele>132</ele>
        <time>2026-08-23T13:56:02.000Z</time>
      </trkpt>
      <trkpt lat="43.36335" lon="-1.52415">
        <ele>132</ele>
        <time>2026-08-23T13:56:05.000Z</time>
      </trkpt>
      <trkpt lat="43.36298" lon="-1.52625">
        <ele>125</ele>
        <time>2026-08-23T13:56:33.000Z</time>
      </trkpt>
      <trkpt lat="43.36299" lon="-1.52656">
        <ele>123</ele>
        <time>2026-08-23T13:56:37.000Z</time>
      </trkpt>
      <trkpt lat="43.36305" lon="-1.5269">
        <ele>120</ele>
        <time>2026-08-23T13:56:42.000Z</time>
      </trkpt>
      <trkpt lat="43.36322" lon="-1.52743">
        <ele>118</ele>
        <time>2026-08-23T13:56:49.000Z</time>
      </trkpt>
      <trkpt lat="43.36341" lon="-1.52783">
        <ele>117</ele>
        <time>2026-08-23T13:56:55.000Z</time>
      </trkpt>
      <trkpt lat="43.3639" lon="-1.52871">
        <ele>114</ele>
        <time>2026-08-23T13:57:10.000Z</time>
      </trkpt>
      <trkpt lat="43.36402" lon="-1.52897">
        <ele>114</ele>
        <time>2026-08-23T13:57:14.000Z</time>
      </trkpt>
      <trkpt lat="43.3641" lon="-1.52925">
        <ele>115</ele>
        <time>2026-08-23T13:57:17.000Z</time>
      </trkpt>
      <trkpt lat="43.36424" lon="-1.53">
        <ele>110</ele>
        <time>2026-08-23T13:57:27.000Z</time>
      </trkpt>
      <trkpt lat="43.36463" lon="-1.53252">
        <ele>108</ele>
        <time>2026-08-23T13:58:01.000Z</time>
      </trkpt>
      <trkpt lat="43.36496" lon="-1.53439">
        <ele>104</ele>
        <time>2026-08-23T13:58:26.000Z</time>
      </trkpt>
      <trkpt lat="43.36507" lon="-1.53566">
        <ele>97</ele>
        <time>2026-08-23T13:58:42.000Z</time>
      </trkpt>
      <trkpt lat="43.36504" lon="-1.53627">
        <ele>97</ele>
        <time>2026-08-23T13:58:50.000Z</time>
      </trkpt>
      <trkpt lat="43.36486" lon="-1.53691">
        <ele>98</ele>
        <time>2026-08-23T13:58:59.000Z</time>
      </trkpt>
      <trkpt lat="43.36458" lon="-1.5377">
        <ele>99</ele>
        <time>2026-08-23T13:59:10.000Z</time>
      </trkpt>
      <trkpt lat="43.36453" lon="-1.53796">
        <ele>99</ele>
        <time>2026-08-23T13:59:14.000Z</time>
      </trkpt>
      <trkpt lat="43.36451" lon="-1.53875">
        <ele>99</ele>
        <time>2026-08-23T13:59:24.000Z</time>
      </trkpt>
      <trkpt lat="43.3644" lon="-1.53976">
        <ele>96</ele>
        <time>2026-08-23T13:59:37.000Z</time>
      </trkpt>
      <trkpt lat="43.36438" lon="-1.54039">
        <ele>95</ele>
        <time>2026-08-23T13:59:45.000Z</time>
      </trkpt>
      <trkpt lat="43.36416" lon="-1.54232">
        <ele>99</ele>
        <time>2026-08-23T14:00:11.000Z</time>
      </trkpt>
      <trkpt lat="43.36416" lon="-1.54258">
        <ele>100</ele>
        <time>2026-08-23T14:00:14.000Z</time>
      </trkpt>
      <trkpt lat="43.36422" lon="-1.54277">
        <ele>101</ele>
        <time>2026-08-23T14:00:17.000Z</time>
      </trkpt>
      <trkpt lat="43.36434" lon="-1.54296">
        <ele>100</ele>
        <time>2026-08-23T14:00:20.000Z</time>
      </trkpt>
      <trkpt lat="43.36454" lon="-1.5431">
        <ele>99</ele>
        <time>2026-08-23T14:00:24.000Z</time>
      </trkpt>
      <trkpt lat="43.36468" lon="-1.54315">
        <ele>97</ele>
        <time>2026-08-23T14:00:27.000Z</time>
      </trkpt>
      <trkpt lat="43.36492" lon="-1.54318">
        <ele>95</ele>
        <time>2026-08-23T14:00:31.000Z</time>
      </trkpt>
      <trkpt lat="43.36522" lon="-1.54318">
        <ele>91</ele>
        <time>2026-08-23T14:00:36.000Z</time>
      </trkpt>
      <trkpt lat="43.36539" lon="-1.54346">
        <ele>90</ele>
        <time>2026-08-23T14:00:41.000Z</time>
      </trkpt>
      <trkpt lat="43.36529" lon="-1.54476">
        <ele>90</ele>
        <time>2026-08-23T14:00:58.000Z</time>
      </trkpt>
      <trkpt lat="43.36384" lon="-1.54515">
        <ele>85</ele>
        <time>2026-08-23T14:01:24.000Z</time>
      </trkpt>
      <trkpt lat="43.3637" lon="-1.54515">
        <ele>84</ele>
        <time>2026-08-23T14:01:27.000Z</time>
      </trkpt>
      <trkpt lat="43.36347" lon="-1.54511">
        <ele>83</ele>
        <time>2026-08-23T14:01:31.000Z</time>
      </trkpt>
      <trkpt lat="43.36338" lon="-1.54516">
        <ele>82</ele>
        <time>2026-08-23T14:01:32.000Z</time>
      </trkpt>
      <trkpt lat="43.3632" lon="-1.54556">
        <ele>76</ele>
        <time>2026-08-23T14:01:39.000Z</time>
      </trkpt>
      <trkpt lat="43.36304" lon="-1.54576">
        <ele>72</ele>
        <time>2026-08-23T14:01:42.000Z</time>
      </trkpt>
      <trkpt lat="43.3629" lon="-1.54587">
        <ele>70</ele>
        <time>2026-08-23T14:01:45.000Z</time>
      </trkpt>
      <trkpt lat="43.36274" lon="-1.54596">
        <ele>69</ele>
        <time>2026-08-23T14:01:48.000Z</time>
      </trkpt>
      <trkpt lat="43.36233" lon="-1.54606">
        <ele>67</ele>
        <time>2026-08-23T14:01:56.000Z</time>
      </trkpt>
      <trkpt lat="43.36199" lon="-1.54619">
        <ele>67</ele>
        <time>2026-08-23T14:02:02.000Z</time>
      </trkpt>
      <trkpt lat="43.36068" lon="-1.54671">
        <ele>58</ele>
        <time>2026-08-23T14:02:26.000Z</time>
      </trkpt>
      <trkpt lat="43.36026" lon="-1.54699">
        <ele>55</ele>
        <time>2026-08-23T14:02:35.000Z</time>
      </trkpt>
      <trkpt lat="43.3601" lon="-1.54708">
        <ele>53</ele>
        <time>2026-08-23T14:02:38.000Z</time>
      </trkpt>
      <trkpt lat="43.35883" lon="-1.5476">
        <ele>39</ele>
        <time>2026-08-23T14:03:01.000Z</time>
      </trkpt>
      <trkpt lat="43.35856" lon="-1.54778">
        <ele>36</ele>
        <time>2026-08-23T14:03:07.000Z</time>
      </trkpt>
      <trkpt lat="43.35848" lon="-1.54788">
        <ele>35</ele>
        <time>2026-08-23T14:03:09.000Z</time>
      </trkpt>
      <trkpt lat="43.35784" lon="-1.54901">
        <ele>30</ele>
        <time>2026-08-23T14:03:27.000Z</time>
      </trkpt>
      <trkpt lat="43.35753" lon="-1.54939">
        <ele>27</ele>
        <time>2026-08-23T14:03:34.000Z</time>
      </trkpt>
      <trkpt lat="43.35639" lon="-1.55061">
        <ele>22</ele>
        <time>2026-08-23T14:04:00.000Z</time>
      </trkpt>
      <trkpt lat="43.35676" lon="-1.55133">
        <ele>21</ele>
        <time>2026-08-23T14:04:12.000Z</time>
      </trkpt>
      <trkpt lat="43.35705" lon="-1.55184">
        <ele>22</ele>
        <time>2026-08-23T14:04:20.000Z</time>
      </trkpt>
      <trkpt lat="43.3574" lon="-1.55234">
        <ele>22</ele>
        <time>2026-08-23T14:04:29.000Z</time>
      </trkpt>
      <trkpt lat="43.35757" lon="-1.55264">
        <ele>22</ele>
        <time>2026-08-23T14:04:34.000Z</time>
      </trkpt>
      <trkpt lat="43.35763" lon="-1.55276">
        <ele>22</ele>
        <time>2026-08-23T14:04:36.000Z</time>
      </trkpt>
      <trkpt lat="43.35769" lon="-1.55301">
        <ele>22</ele>
        <time>2026-08-23T14:04:39.000Z</time>
      </trkpt>
      <trkpt lat="43.35798" lon="-1.55504">
        <ele>25</ele>
        <time>2026-08-23T14:05:06.000Z</time>
      </trkpt>
      <trkpt lat="43.35797" lon="-1.55542">
        <ele>25</ele>
        <time>2026-08-23T14:05:11.000Z</time>
      </trkpt>
      <trkpt lat="43.35793" lon="-1.55578">
        <ele>24</ele>
        <time>2026-08-23T14:05:16.000Z</time>
      </trkpt>
      <trkpt lat="43.35784" lon="-1.55615">
        <ele>23</ele>
        <time>2026-08-23T14:05:21.000Z</time>
      </trkpt>
      <trkpt lat="43.35781" lon="-1.55641">
        <ele>23</ele>
        <time>2026-08-23T14:05:24.000Z</time>
      </trkpt>
      <trkpt lat="43.3578" lon="-1.55666">
        <ele>23</ele>
        <time>2026-08-23T14:05:27.000Z</time>
      </trkpt>
      <trkpt lat="43.35787" lon="-1.55898">
        <ele>20</ele>
        <time>2026-08-23T14:05:57.000Z</time>
      </trkpt>
      <trkpt lat="43.35785" lon="-1.55918">
        <ele>18</ele>
        <time>2026-08-23T14:06:00.000Z</time>
      </trkpt>
      <trkpt lat="43.35781" lon="-1.55938">
        <ele>18</ele>
        <time>2026-08-23T14:06:03.000Z</time>
      </trkpt>
      <trkpt lat="43.35774" lon="-1.55958">
        <ele>18</ele>
        <time>2026-08-23T14:06:05.000Z</time>
      </trkpt>
      <trkpt lat="43.35766" lon="-1.55989">
        <ele>18</ele>
        <time>2026-08-23T14:06:10.000Z</time>
      </trkpt>
      <trkpt lat="43.35767" lon="-1.55997">
        <ele>18</ele>
        <time>2026-08-23T14:06:11.000Z</time>
      </trkpt>
      <trkpt lat="43.35764" lon="-1.56008">
        <ele>19</ele>
        <time>2026-08-23T14:06:12.000Z</time>
      </trkpt>
      <trkpt lat="43.3576" lon="-1.56015">
        <ele>19</ele>
        <time>2026-08-23T14:06:13.000Z</time>
      </trkpt>
      <trkpt lat="43.35753" lon="-1.56017">
        <ele>19</ele>
        <time>2026-08-23T14:06:15.000Z</time>
      </trkpt>
      <trkpt lat="43.35747" lon="-1.56016">
        <ele>19</ele>
        <time>2026-08-23T14:06:16.000Z</time>
      </trkpt>
      <trkpt lat="43.35721" lon="-1.56041">
        <ele>19</ele>
        <time>2026-08-23T14:06:21.000Z</time>
      </trkpt>
      <trkpt lat="43.35652" lon="-1.56086">
        <ele>18</ele>
        <time>2026-08-23T14:06:35.000Z</time>
      </trkpt>
      <trkpt lat="43.35635" lon="-1.56106">
        <ele>18</ele>
        <time>2026-08-23T14:06:39.000Z</time>
      </trkpt>
      <trkpt lat="43.35625" lon="-1.56126">
        <ele>18</ele>
        <time>2026-08-23T14:06:42.000Z</time>
      </trkpt>
      <trkpt lat="43.35623" lon="-1.56133">
        <ele>18</ele>
        <time>2026-08-23T14:06:43.000Z</time>
      </trkpt>
      <trkpt lat="43.35617" lon="-1.5617">
        <ele>19</ele>
        <time>2026-08-23T14:06:48.000Z</time>
      </trkpt>
      <trkpt lat="43.35615" lon="-1.56214">
        <ele>19</ele>
        <time>2026-08-23T14:06:54.000Z</time>
      </trkpt>
      <trkpt lat="43.35622" lon="-1.56509">
        <ele>19</ele>
        <time>2026-08-23T14:07:32.000Z</time>
      </trkpt>
      <trkpt lat="43.35622" lon="-1.56558">
        <ele>19</ele>
        <time>2026-08-23T14:07:38.000Z</time>
      </trkpt>
      <trkpt lat="43.35624" lon="-1.56587">
        <ele>19</ele>
        <time>2026-08-23T14:07:42.000Z</time>
      </trkpt>
      <trkpt lat="43.35627" lon="-1.56588">
        <ele>19</ele>
        <time>2026-08-23T14:07:43.000Z</time>
      </trkpt>
      <trkpt lat="43.35633" lon="-1.56592">
        <ele>19</ele>
        <time>2026-08-23T14:07:44.000Z</time>
      </trkpt>
      <trkpt lat="43.35635" lon="-1.56599">
        <ele>19</ele>
        <time>2026-08-23T14:07:45.000Z</time>
      </trkpt>
      <trkpt lat="43.35632" lon="-1.56611">
        <ele>19</ele>
        <time>2026-08-23T14:07:46.000Z</time>
      </trkpt>
      <trkpt lat="43.35624" lon="-1.56615">
        <ele>19</ele>
        <time>2026-08-23T14:07:48.000Z</time>
      </trkpt>
      <trkpt lat="43.35625" lon="-1.56642">
        <ele>19</ele>
        <time>2026-08-23T14:07:51.000Z</time>
      </trkpt>
      <trkpt lat="43.35617" lon="-1.56692">
        <ele>19</ele>
        <time>2026-08-23T14:07:58.000Z</time>
      </trkpt>
      <trkpt lat="43.35608" lon="-1.56729">
        <ele>18</ele>
        <time>2026-08-23T14:08:03.000Z</time>
      </trkpt>
      <trkpt lat="43.35589" lon="-1.56787">
        <ele>17</ele>
        <time>2026-08-23T14:08:11.000Z</time>
      </trkpt>
      <trkpt lat="43.35585" lon="-1.56813">
        <ele>17</ele>
        <time>2026-08-23T14:08:15.000Z</time>
      </trkpt>
      <trkpt lat="43.35586" lon="-1.56839">
        <ele>17</ele>
        <time>2026-08-23T14:08:18.000Z</time>
      </trkpt>
      <trkpt lat="43.35588" lon="-1.56851">
        <ele>17</ele>
        <time>2026-08-23T14:08:20.000Z</time>
      </trkpt>
      <trkpt lat="43.35597" lon="-1.56872">
        <ele>17</ele>
        <time>2026-08-23T14:08:23.000Z</time>
      </trkpt>
      <trkpt lat="43.35625" lon="-1.56922">
        <ele>17</ele>
        <time>2026-08-23T14:08:31.000Z</time>
      </trkpt>
      <trkpt lat="43.35723" lon="-1.57132">
        <ele>15</ele>
        <time>2026-08-23T14:09:03.000Z</time>
      </trkpt>
      <trkpt lat="43.35733" lon="-1.5716">
        <ele>15</ele>
        <time>2026-08-23T14:09:07.000Z</time>
      </trkpt>
      <trkpt lat="43.3574" lon="-1.57189">
        <ele>15</ele>
        <time>2026-08-23T14:09:11.000Z</time>
      </trkpt>
      <trkpt lat="43.35745" lon="-1.57225">
        <ele>14</ele>
        <time>2026-08-23T14:09:16.000Z</time>
      </trkpt>
      <trkpt lat="43.35763" lon="-1.57418">
        <ele>13</ele>
        <time>2026-08-23T14:09:41.000Z</time>
      </trkpt>
      <trkpt lat="43.35767" lon="-1.57433">
        <ele>13</ele>
        <time>2026-08-23T14:09:43.000Z</time>
      </trkpt>
      <trkpt lat="43.35781" lon="-1.57455">
        <ele>13</ele>
        <time>2026-08-23T14:09:47.000Z</time>
      </trkpt>
      <trkpt lat="43.35786" lon="-1.57459">
        <ele>13</ele>
        <time>2026-08-23T14:09:48.000Z</time>
      </trkpt>
      <trkpt lat="43.35788" lon="-1.57464">
        <ele>13</ele>
        <time>2026-08-23T14:09:49.000Z</time>
      </trkpt>
      <trkpt lat="43.35789" lon="-1.5747">
        <ele>13</ele>
        <time>2026-08-23T14:09:50.000Z</time>
      </trkpt>
      <trkpt lat="43.35784" lon="-1.57479">
        <ele>13</ele>
        <time>2026-08-23T14:09:51.000Z</time>
      </trkpt>
      <trkpt lat="43.35781" lon="-1.57496">
        <ele>13</ele>
        <time>2026-08-23T14:09:53.000Z</time>
      </trkpt>
      <trkpt lat="43.35779" lon="-1.57526">
        <ele>13</ele>
        <time>2026-08-23T14:09:57.000Z</time>
      </trkpt>
      <trkpt lat="43.35779" lon="-1.57552">
        <ele>13</ele>
        <time>2026-08-23T14:10:01.000Z</time>
      </trkpt>
      <trkpt lat="43.35782" lon="-1.57586">
        <ele>13</ele>
        <time>2026-08-23T14:10:05.000Z</time>
      </trkpt>
      <trkpt lat="43.35807" lon="-1.5772">
        <ele>12</ele>
        <time>2026-08-23T14:10:23.000Z</time>
      </trkpt>
      <trkpt lat="43.35838" lon="-1.57869">
        <ele>11</ele>
        <time>2026-08-23T14:10:43.000Z</time>
      </trkpt>
      <trkpt lat="43.35852" lon="-1.57913">
        <ele>12</ele>
        <time>2026-08-23T14:10:49.000Z</time>
      </trkpt>
      <trkpt lat="43.35882" lon="-1.57972">
        <ele>11</ele>
        <time>2026-08-23T14:10:58.000Z</time>
      </trkpt>
      <trkpt lat="43.35894" lon="-1.57993">
        <ele>11</ele>
        <time>2026-08-23T14:11:02.000Z</time>
      </trkpt>
      <trkpt lat="43.36003" lon="-1.58148">
        <ele>11</ele>
        <time>2026-08-23T14:11:30.000Z</time>
      </trkpt>
      <trkpt lat="43.36109" lon="-1.58303">
        <ele>12</ele>
        <time>2026-08-23T14:11:57.000Z</time>
      </trkpt>
      <trkpt lat="43.36129" lon="-1.58341">
        <ele>12</ele>
        <time>2026-08-23T14:12:03.000Z</time>
      </trkpt>
      <trkpt lat="43.36139" lon="-1.58363">
        <ele>12</ele>
        <time>2026-08-23T14:12:07.000Z</time>
      </trkpt>
      <trkpt lat="43.36164" lon="-1.58429">
        <ele>12</ele>
        <time>2026-08-23T14:12:16.000Z</time>
      </trkpt>
      <trkpt lat="43.36257" lon="-1.58723">
        <ele>14</ele>
        <time>2026-08-23T14:12:58.000Z</time>
      </trkpt>
      <trkpt lat="43.3628" lon="-1.58766">
        <ele>18</ele>
        <time>2026-08-23T14:13:05.000Z</time>
      </trkpt>
      <trkpt lat="43.36308" lon="-1.58801">
        <ele>19</ele>
        <time>2026-08-23T14:13:11.000Z</time>
      </trkpt>
      <trkpt lat="43.36402" lon="-1.58885">
        <ele>17</ele>
        <time>2026-08-23T14:13:31.000Z</time>
      </trkpt>
      <trkpt lat="43.36427" lon="-1.58913">
        <ele>13</ele>
        <time>2026-08-23T14:13:37.000Z</time>
      </trkpt>
      <trkpt lat="43.36444" lon="-1.58941">
        <ele>12</ele>
        <time>2026-08-23T14:13:42.000Z</time>
      </trkpt>
      <trkpt lat="43.3646" lon="-1.58976">
        <ele>11</ele>
        <time>2026-08-23T14:13:47.000Z</time>
      </trkpt>
      <trkpt lat="43.36482" lon="-1.59044">
        <ele>9</ele>
        <time>2026-08-23T14:13:57.000Z</time>
      </trkpt>
      <trkpt lat="43.36581" lon="-1.59376">
        <ele>9</ele>
        <time>2026-08-23T14:14:43.000Z</time>
      </trkpt>
      <trkpt lat="43.36589" lon="-1.5943">
        <ele>9</ele>
        <time>2026-08-23T14:14:50.000Z</time>
      </trkpt>
      <trkpt lat="43.36592" lon="-1.59482">
        <ele>9</ele>
        <time>2026-08-23T14:14:57.000Z</time>
      </trkpt>
      <trkpt lat="43.36588" lon="-1.59546">
        <ele>11</ele>
        <time>2026-08-23T14:15:05.000Z</time>
      </trkpt>
      <trkpt lat="43.36567" lon="-1.59809">
        <ele>18</ele>
        <time>2026-08-23T14:15:40.000Z</time>
      </trkpt>
      <trkpt lat="43.36562" lon="-1.59843">
        <ele>18</ele>
        <time>2026-08-23T14:15:44.000Z</time>
      </trkpt>
      <trkpt lat="43.36549" lon="-1.59873">
        <ele>17</ele>
        <time>2026-08-23T14:15:49.000Z</time>
      </trkpt>
      <trkpt lat="43.36533" lon="-1.59897">
        <ele>16</ele>
        <time>2026-08-23T14:15:53.000Z</time>
      </trkpt>
      <trkpt lat="43.36476" lon="-1.5994">
        <ele>14</ele>
        <time>2026-08-23T14:16:04.000Z</time>
      </trkpt>
      <trkpt lat="43.36447" lon="-1.59965">
        <ele>14</ele>
        <time>2026-08-23T14:16:11.000Z</time>
      </trkpt>
      <trkpt lat="43.36418" lon="-1.59996">
        <ele>13</ele>
        <time>2026-08-23T14:16:17.000Z</time>
      </trkpt>
      <trkpt lat="43.36404" lon="-1.60015">
        <ele>14</ele>
        <time>2026-08-23T14:16:21.000Z</time>
      </trkpt>
      <trkpt lat="43.36387" lon="-1.60042">
        <ele>15</ele>
        <time>2026-08-23T14:16:25.000Z</time>
      </trkpt>
      <trkpt lat="43.36371" lon="-1.60073">
        <ele>15</ele>
        <time>2026-08-23T14:16:30.000Z</time>
      </trkpt>
      <trkpt lat="43.36336" lon="-1.60166">
        <ele>16</ele>
        <time>2026-08-23T14:16:44.000Z</time>
      </trkpt>
      <trkpt lat="43.36316" lon="-1.60201">
        <ele>20</ele>
        <time>2026-08-23T14:16:49.000Z</time>
      </trkpt>
      <trkpt lat="43.36299" lon="-1.60225">
        <ele>21</ele>
        <time>2026-08-23T14:16:54.000Z</time>
      </trkpt>
      <trkpt lat="43.36264" lon="-1.60257">
        <ele>19</ele>
        <time>2026-08-23T14:17:01.000Z</time>
      </trkpt>
      <trkpt lat="43.36211" lon="-1.60302">
        <ele>16</ele>
        <time>2026-08-23T14:17:12.000Z</time>
      </trkpt>
      <trkpt lat="43.36173" lon="-1.60338">
        <ele>13</ele>
        <time>2026-08-23T14:17:21.000Z</time>
      </trkpt>
      <trkpt lat="43.36153" lon="-1.60362">
        <ele>14</ele>
        <time>2026-08-23T14:17:25.000Z</time>
      </trkpt>
      <trkpt lat="43.36138" lon="-1.60384">
        <ele>15</ele>
        <time>2026-08-23T14:17:29.000Z</time>
      </trkpt>
      <trkpt lat="43.36126" lon="-1.60409">
        <ele>15</ele>
        <time>2026-08-23T14:17:33.000Z</time>
      </trkpt>
      <trkpt lat="43.36109" lon="-1.60462">
        <ele>16</ele>
        <time>2026-08-23T14:17:41.000Z</time>
      </trkpt>
      <trkpt lat="43.36103" lon="-1.60494">
        <ele>17</ele>
        <time>2026-08-23T14:17:45.000Z</time>
      </trkpt>
      <trkpt lat="43.36102" lon="-1.60518">
        <ele>17</ele>
        <time>2026-08-23T14:17:48.000Z</time>
      </trkpt>
      <trkpt lat="43.36102" lon="-1.60551">
        <ele>17</ele>
        <time>2026-08-23T14:17:52.000Z</time>
      </trkpt>
      <trkpt lat="43.36104" lon="-1.60585">
        <ele>18</ele>
        <time>2026-08-23T14:17:57.000Z</time>
      </trkpt>
      <trkpt lat="43.36118" lon="-1.60724">
        <ele>18</ele>
        <time>2026-08-23T14:18:15.000Z</time>
      </trkpt>
      <trkpt lat="43.36119" lon="-1.6075">
        <ele>18</ele>
        <time>2026-08-23T14:18:18.000Z</time>
      </trkpt>
      <trkpt lat="43.36113" lon="-1.60838">
        <ele>16</ele>
        <time>2026-08-23T14:18:30.000Z</time>
      </trkpt>
      <trkpt lat="43.36105" lon="-1.61018">
        <ele>17</ele>
        <time>2026-08-23T14:18:53.000Z</time>
      </trkpt>
      <trkpt lat="43.36101" lon="-1.61078">
        <ele>15</ele>
        <time>2026-08-23T14:19:01.000Z</time>
      </trkpt>
      <trkpt lat="43.36091" lon="-1.61139">
        <ele>13</ele>
        <time>2026-08-23T14:19:09.000Z</time>
      </trkpt>
      <trkpt lat="43.36075" lon="-1.61188">
        <ele>12</ele>
        <time>2026-08-23T14:19:16.000Z</time>
      </trkpt>
      <trkpt lat="43.36051" lon="-1.61238">
        <ele>11</ele>
        <time>2026-08-23T14:19:23.000Z</time>
      </trkpt>
      <trkpt lat="43.36033" lon="-1.61268">
        <ele>11</ele>
        <time>2026-08-23T14:19:28.000Z</time>
      </trkpt>
      <trkpt lat="43.35934" lon="-1.61396">
        <ele>16</ele>
        <time>2026-08-23T14:19:53.000Z</time>
      </trkpt>
      <trkpt lat="43.35913" lon="-1.61419">
        <ele>16</ele>
        <time>2026-08-23T14:19:57.000Z</time>
      </trkpt>
      <trkpt lat="43.35815" lon="-1.61503">
        <ele>12</ele>
        <time>2026-08-23T14:20:18.000Z</time>
      </trkpt>
      <trkpt lat="43.35787" lon="-1.61535">
        <ele>14</ele>
        <time>2026-08-23T14:20:24.000Z</time>
      </trkpt>
      <trkpt lat="43.35515" lon="-1.61963">
        <ele>18</ele>
        <time>2026-08-23T14:21:38.000Z</time>
      </trkpt>
      <trkpt lat="43.35486" lon="-1.62001">
        <ele>18</ele>
        <time>2026-08-23T14:21:45.000Z</time>
      </trkpt>
      <trkpt lat="43.35432" lon="-1.62045">
        <ele>21</ele>
        <time>2026-08-23T14:21:56.000Z</time>
      </trkpt>
      <trkpt lat="43.35407" lon="-1.6206">
        <ele>21</ele>
        <time>2026-08-23T14:22:01.000Z</time>
      </trkpt>
      <trkpt lat="43.3524" lon="-1.62126">
        <ele>14</ele>
        <time>2026-08-23T14:22:32.000Z</time>
      </trkpt>
      <trkpt lat="43.35214" lon="-1.62143">
        <ele>12</ele>
        <time>2026-08-23T14:22:37.000Z</time>
      </trkpt>
      <trkpt lat="43.35201" lon="-1.62157">
        <ele>12</ele>
        <time>2026-08-23T14:22:40.000Z</time>
      </trkpt>
      <trkpt lat="43.35181" lon="-1.62185">
        <ele>11</ele>
        <time>2026-08-23T14:22:45.000Z</time>
      </trkpt>
      <trkpt lat="43.35127" lon="-1.62289">
        <ele>11</ele>
        <time>2026-08-23T14:23:02.000Z</time>
      </trkpt>
      <trkpt lat="43.35118" lon="-1.62308">
        <ele>11</ele>
        <time>2026-08-23T14:23:05.000Z</time>
      </trkpt>
      <trkpt lat="43.35109" lon="-1.62334">
        <ele>10</ele>
        <time>2026-08-23T14:23:08.000Z</time>
      </trkpt>
      <trkpt lat="43.35103" lon="-1.62402">
        <ele>11</ele>
        <time>2026-08-23T14:23:17.000Z</time>
      </trkpt>
      <trkpt lat="43.35103" lon="-1.62461">
        <ele>10</ele>
        <time>2026-08-23T14:23:25.000Z</time>
      </trkpt>
      <trkpt lat="43.35108" lon="-1.62493">
        <ele>11</ele>
        <time>2026-08-23T14:23:29.000Z</time>
      </trkpt>
      <trkpt lat="43.35118" lon="-1.62528">
        <ele>12</ele>
        <time>2026-08-23T14:23:34.000Z</time>
      </trkpt>
      <trkpt lat="43.35101" lon="-1.62531">
        <ele>9</ele>
        <time>2026-08-23T14:23:37.000Z</time>
      </trkpt>
      <trkpt lat="43.35063" lon="-1.62537">
        <ele>6</ele>
        <time>2026-08-23T14:23:44.000Z</time>
      </trkpt>
      <trkpt lat="43.35044" lon="-1.62538">
        <ele>6</ele>
        <time>2026-08-23T14:23:47.000Z</time>
      </trkpt>
      <trkpt lat="43.35011" lon="-1.62534">
        <ele>6</ele>
        <time>2026-08-23T14:23:53.000Z</time>
      </trkpt>
      <trkpt lat="43.34988" lon="-1.6253">
        <ele>6</ele>
        <time>2026-08-23T14:23:57.000Z</time>
      </trkpt>
      <trkpt lat="43.34949" lon="-1.62522">
        <ele>7</ele>
        <time>2026-08-23T14:24:04.000Z</time>
      </trkpt>
      <trkpt lat="43.34909" lon="-1.62517">
        <ele>7</ele>
        <time>2026-08-23T14:24:11.000Z</time>
      </trkpt>
      <trkpt lat="43.34921" lon="-1.62554">
        <ele>6</ele>
        <time>2026-08-23T14:24:17.000Z</time>
      </trkpt>
      <trkpt lat="43.34928" lon="-1.62581">
        <ele>6</ele>
        <time>2026-08-23T14:24:20.000Z</time>
      </trkpt>
      <trkpt lat="43.34929" lon="-1.62603">
        <ele>5</ele>
        <time>2026-08-23T14:24:23.000Z</time>
      </trkpt>
      <trkpt lat="43.34928" lon="-1.62631">
        <ele>4</ele>
        <time>2026-08-23T14:24:27.000Z</time>
      </trkpt>
      <trkpt lat="43.34922" lon="-1.62669">
        <ele>3</ele>
        <time>2026-08-23T14:24:32.000Z</time>
      </trkpt>
      <trkpt lat="43.34908" lon="-1.62721">
        <ele>4</ele>
        <time>2026-08-23T14:24:39.000Z</time>
      </trkpt>
      <trkpt lat="43.34905" lon="-1.62741">
        <ele>5</ele>
        <time>2026-08-23T14:24:42.000Z</time>
      </trkpt>
      <trkpt lat="43.3492" lon="-1.62766">
        <ele>5</ele>
        <time>2026-08-23T14:24:46.000Z</time>
      </trkpt>
      <trkpt lat="43.34947" lon="-1.62802">
        <ele>5</ele>
        <time>2026-08-23T14:24:53.000Z</time>
      </trkpt>
      <trkpt lat="43.34972" lon="-1.62824">
        <ele>5</ele>
        <time>2026-08-23T14:24:58.000Z</time>
      </trkpt>
      <trkpt lat="43.34983" lon="-1.62825">
        <ele>5</ele>
        <time>2026-08-23T14:25:00.000Z</time>
      </trkpt>
      <trkpt lat="43.34995" lon="-1.62833">
        <ele>4</ele>
        <time>2026-08-23T14:25:02.000Z</time>
      </trkpt>
      <trkpt lat="43.35136" lon="-1.62979">
        <ele>3</ele>
        <time>2026-08-23T14:25:34.000Z</time>
      </trkpt>
      <trkpt lat="43.35202" lon="-1.63012">
        <ele>2</ele>
        <time>2026-08-23T14:25:46.000Z</time>
      </trkpt>
      <trkpt lat="43.35232" lon="-1.6303">
        <ele>3</ele>
        <time>2026-08-23T14:25:52.000Z</time>
      </trkpt>
      <trkpt lat="43.35258" lon="-1.63051">
        <ele>4</ele>
        <time>2026-08-23T14:25:57.000Z</time>
      </trkpt>
      <trkpt lat="43.3527" lon="-1.63074">
        <ele>4</ele>
        <time>2026-08-23T14:26:01.000Z</time>
      </trkpt>
      <trkpt lat="43.35276" lon="-1.63103">
        <ele>5</ele>
        <time>2026-08-23T14:26:05.000Z</time>
      </trkpt>
      <trkpt lat="43.35275" lon="-1.63123">
        <ele>5</ele>
        <time>2026-08-23T14:26:07.000Z</time>
      </trkpt>
      <trkpt lat="43.35248" lon="-1.63238">
        <ele>5</ele>
        <time>2026-08-23T14:26:23.000Z</time>
      </trkpt>
      <trkpt lat="43.35234" lon="-1.63272">
        <ele>10</ele>
        <time>2026-08-23T14:26:28.000Z</time>
      </trkpt>
      <trkpt lat="43.35233" lon="-1.63285">
        <ele>13</ele>
        <time>2026-08-23T14:26:30.000Z</time>
      </trkpt>
      <trkpt lat="43.35234" lon="-1.63301">
        <ele>16</ele>
        <time>2026-08-23T14:26:32.000Z</time>
      </trkpt>
      <trkpt lat="43.35249" lon="-1.63321">
        <ele>17</ele>
        <time>2026-08-23T14:26:36.000Z</time>
      </trkpt>
      <trkpt lat="43.35337" lon="-1.63397">
        <ele>18</ele>
        <time>2026-08-23T14:26:54.000Z</time>
      </trkpt>
      <trkpt lat="43.35374" lon="-1.63437">
        <ele>18</ele>
        <time>2026-08-23T14:27:02.000Z</time>
      </trkpt>
      <trkpt lat="43.35491" lon="-1.63519">
        <ele>7</ele>
        <time>2026-08-23T14:27:26.000Z</time>
      </trkpt>
      <trkpt lat="43.35539" lon="-1.6355">
        <ele>5</ele>
        <time>2026-08-23T14:27:35.000Z</time>
      </trkpt>
      <trkpt lat="43.35587" lon="-1.63586">
        <ele>4</ele>
        <time>2026-08-23T14:27:45.000Z</time>
      </trkpt>
      <trkpt lat="43.35602" lon="-1.63595">
        <ele>4</ele>
        <time>2026-08-23T14:27:48.000Z</time>
      </trkpt>
      <trkpt lat="43.35614" lon="-1.636">
        <ele>4</ele>
        <time>2026-08-23T14:27:50.000Z</time>
      </trkpt>
      <trkpt lat="43.35618" lon="-1.636">
        <ele>4</ele>
        <time>2026-08-23T14:27:51.000Z</time>
      </trkpt>
      <trkpt lat="43.35625" lon="-1.63606">
        <ele>3</ele>
        <time>2026-08-23T14:27:52.000Z</time>
      </trkpt>
      <trkpt lat="43.35598" lon="-1.63912">
        <ele>10</ele>
        <time>2026-08-23T14:28:32.000Z</time>
      </trkpt>
      <trkpt lat="43.35569" lon="-1.63902">
        <ele>9</ele>
        <time>2026-08-23T14:28:38.000Z</time>
      </trkpt>
      <trkpt lat="43.35598" lon="-1.63912">
        <ele>10</ele>
        <time>2026-08-23T14:28:43.000Z</time>
      </trkpt>
      <trkpt lat="43.35582" lon="-1.64022">
        <ele>15</ele>
        <time>2026-08-23T14:28:57.000Z</time>
      </trkpt>
      <trkpt lat="43.35573" lon="-1.64045">
        <ele>16</ele>
        <time>2026-08-23T14:29:01.000Z</time>
      </trkpt>
      <trkpt lat="43.35446" lon="-1.64129">
        <ele>13</ele>
        <time>2026-08-23T14:29:26.000Z</time>
      </trkpt>
      <trkpt lat="43.35418" lon="-1.64167">
        <ele>12</ele>
        <time>2026-08-23T14:29:33.000Z</time>
      </trkpt>
      <trkpt lat="43.35335" lon="-1.64248">
        <ele>15</ele>
        <time>2026-08-23T14:29:51.000Z</time>
      </trkpt>
      <trkpt lat="43.35251" lon="-1.64281">
        <ele>12</ele>
        <time>2026-08-23T14:30:06.000Z</time>
      </trkpt>
      <trkpt lat="43.35126" lon="-1.64319">
        <ele>9</ele>
        <time>2026-08-23T14:30:29.000Z</time>
      </trkpt>
      <trkpt lat="43.35116" lon="-1.64323">
        <ele>8</ele>
        <time>2026-08-23T14:30:31.000Z</time>
      </trkpt>
      <trkpt lat="43.35103" lon="-1.6433">
        <ele>8</ele>
        <time>2026-08-23T14:30:34.000Z</time>
      </trkpt>
      <trkpt lat="43.35076" lon="-1.64352">
        <ele>9</ele>
        <time>2026-08-23T14:30:39.000Z</time>
      </trkpt>
      <trkpt lat="43.35053" lon="-1.64361">
        <ele>10</ele>
        <time>2026-08-23T14:30:43.000Z</time>
      </trkpt>
      <trkpt lat="43.34996" lon="-1.64375">
        <ele>13</ele>
        <time>2026-08-23T14:30:54.000Z</time>
      </trkpt>
      <trkpt lat="43.34985" lon="-1.6438">
        <ele>13</ele>
        <time>2026-08-23T14:30:56.000Z</time>
      </trkpt>
      <trkpt lat="43.34959" lon="-1.64387">
        <ele>13</ele>
        <time>2026-08-23T14:31:00.000Z</time>
      </trkpt>
      <trkpt lat="43.34931" lon="-1.64372">
        <ele>14</ele>
        <time>2026-08-23T14:31:06.000Z</time>
      </trkpt>
      <trkpt lat="43.34879" lon="-1.64316">
        <ele>18</ele>
        <time>2026-08-23T14:31:18.000Z</time>
      </trkpt>
      <trkpt lat="43.34796" lon="-1.64317">
        <ele>18</ele>
        <time>2026-08-23T14:31:32.000Z</time>
      </trkpt>
      <trkpt lat="43.34736" lon="-1.64261">
        <ele>23</ele>
        <time>2026-08-23T14:31:45.000Z</time>
      </trkpt>
      <trkpt lat="43.34691" lon="-1.6423">
        <ele>23</ele>
        <time>2026-08-23T14:31:54.000Z</time>
      </trkpt>
      <trkpt lat="43.34683" lon="-1.64226">
        <ele>23</ele>
        <time>2026-08-23T14:31:56.000Z</time>
      </trkpt>
      <trkpt lat="43.34667" lon="-1.64226">
        <ele>22</ele>
        <time>2026-08-23T14:31:59.000Z</time>
      </trkpt>
      <trkpt lat="43.34651" lon="-1.64236">
        <ele>24</ele>
        <time>2026-08-23T14:32:02.000Z</time>
      </trkpt>
      <trkpt lat="43.3464" lon="-1.64264">
        <ele>24</ele>
        <time>2026-08-23T14:32:06.000Z</time>
      </trkpt>
      <trkpt lat="43.34622" lon="-1.64317">
        <ele>22</ele>
        <time>2026-08-23T14:32:13.000Z</time>
      </trkpt>
      <trkpt lat="43.34553" lon="-1.64347">
        <ele>23</ele>
        <time>2026-08-23T14:32:26.000Z</time>
      </trkpt>
      <trkpt lat="43.34484" lon="-1.64316">
        <ele>25</ele>
        <time>2026-08-23T14:32:39.000Z</time>
      </trkpt>
      <trkpt lat="43.34351" lon="-1.64301">
        <ele>26</ele>
        <time>2026-08-23T14:33:03.000Z</time>
      </trkpt>
      <trkpt lat="43.34024" lon="-1.64261">
        <ele>35</ele>
        <time>2026-08-23T14:34:01.000Z</time>
      </trkpt>
      <trkpt lat="43.34023" lon="-1.64283">
        <ele>35</ele>
        <time>2026-08-23T14:34:04.000Z</time>
      </trkpt>
      <trkpt lat="43.34019" lon="-1.64309">
        <ele>35</ele>
        <time>2026-08-23T14:34:08.000Z</time>
      </trkpt>
      <trkpt lat="43.33986" lon="-1.64473">
        <ele>37</ele>
        <time>2026-08-23T14:34:30.000Z</time>
      </trkpt>
      <trkpt lat="43.33982" lon="-1.64472">
        <ele>37</ele>
        <time>2026-08-23T14:34:30.000Z</time>
      </trkpt>
      <trkpt lat="43.33976" lon="-1.64459">
        <ele>38</ele>
        <time>2026-08-23T14:34:32.000Z</time>
      </trkpt>
      <trkpt lat="43.33982" lon="-1.64472">
        <ele>37</ele>
        <time>2026-08-23T14:34:34.000Z</time>
      </trkpt>
      <trkpt lat="43.33986" lon="-1.64473">
        <ele>37</ele>
        <time>2026-08-23T14:34:35.000Z</time>
      </trkpt>
      <trkpt lat="43.33774" lon="-1.65464">
        <ele>65</ele>
        <time>2026-08-23T14:36:49.000Z</time>
      </trkpt>
      <trkpt lat="43.3373" lon="-1.65677">
        <ele>64</ele>
        <time>2026-08-23T14:37:17.000Z</time>
      </trkpt>
      <trkpt lat="43.33716" lon="-1.65754">
        <ele>66</ele>
        <time>2026-08-23T14:37:28.000Z</time>
      </trkpt>
      <trkpt lat="43.33695" lon="-1.6592">
        <ele>68</ele>
        <time>2026-08-23T14:37:49.000Z</time>
      </trkpt>
      <trkpt lat="43.33677" lon="-1.66023">
        <ele>69</ele>
        <time>2026-08-23T14:38:03.000Z</time>
      </trkpt>
      <trkpt lat="43.3365" lon="-1.66164">
        <ele>65</ele>
        <time>2026-08-23T14:38:22.000Z</time>
      </trkpt>
      <trkpt lat="43.33645" lon="-1.66182">
        <ele>65</ele>
        <time>2026-08-23T14:38:25.000Z</time>
      </trkpt>
      <trkpt lat="43.33622" lon="-1.6624">
        <ele>67</ele>
        <time>2026-08-23T14:38:33.000Z</time>
      </trkpt>
      <trkpt lat="43.33615" lon="-1.66263">
        <ele>67</ele>
        <time>2026-08-23T14:38:36.000Z</time>
      </trkpt>
      <trkpt lat="43.33607" lon="-1.66344">
        <ele>65</ele>
        <time>2026-08-23T14:38:47.000Z</time>
      </trkpt>
      <trkpt lat="43.33608" lon="-1.66377">
        <ele>64</ele>
        <time>2026-08-23T14:38:51.000Z</time>
      </trkpt>
      <trkpt lat="43.33615" lon="-1.66412">
        <ele>62</ele>
        <time>2026-08-23T14:38:56.000Z</time>
      </trkpt>
      <trkpt lat="43.33625" lon="-1.66444">
        <ele>59</ele>
        <time>2026-08-23T14:39:00.000Z</time>
      </trkpt>
      <trkpt lat="43.33661" lon="-1.6654">
        <ele>53</ele>
        <time>2026-08-23T14:39:14.000Z</time>
      </trkpt>
      <trkpt lat="43.33666" lon="-1.66563">
        <ele>52</ele>
        <time>2026-08-23T14:39:17.000Z</time>
      </trkpt>
      <trkpt lat="43.33671" lon="-1.66597">
        <ele>50</ele>
        <time>2026-08-23T14:39:22.000Z</time>
      </trkpt>
      <trkpt lat="43.33672" lon="-1.66622">
        <ele>50</ele>
        <time>2026-08-23T14:39:25.000Z</time>
      </trkpt>
      <trkpt lat="43.33666" lon="-1.66662">
        <ele>48</ele>
        <time>2026-08-23T14:39:31.000Z</time>
      </trkpt>
      <trkpt lat="43.33655" lon="-1.66718">
        <ele>47</ele>
        <time>2026-08-23T14:39:38.000Z</time>
      </trkpt>
      <trkpt lat="43.3364" lon="-1.66759">
        <ele>45</ele>
        <time>2026-08-23T14:39:44.000Z</time>
      </trkpt>
      <trkpt lat="43.33633" lon="-1.66772">
        <ele>45</ele>
        <time>2026-08-23T14:39:46.000Z</time>
      </trkpt>
      <trkpt lat="43.33629" lon="-1.66778">
        <ele>45</ele>
        <time>2026-08-23T14:39:47.000Z</time>
      </trkpt>
      <trkpt lat="43.33622" lon="-1.66788">
        <ele>45</ele>
        <time>2026-08-23T14:39:49.000Z</time>
      </trkpt>
      <trkpt lat="43.33613" lon="-1.66794">
        <ele>45</ele>
        <time>2026-08-23T14:39:51.000Z</time>
      </trkpt>
      <trkpt lat="43.3361" lon="-1.66799">
        <ele>45</ele>
        <time>2026-08-23T14:39:52.000Z</time>
      </trkpt>
      <trkpt lat="43.33606" lon="-1.66802">
        <ele>45</ele>
        <time>2026-08-23T14:39:52.000Z</time>
      </trkpt>
      <trkpt lat="43.3361" lon="-1.66812">
        <ele>45</ele>
        <time>2026-08-23T14:39:54.000Z</time>
      </trkpt>
      <trkpt lat="43.3362" lon="-1.66822">
        <ele>44</ele>
        <time>2026-08-23T14:39:56.000Z</time>
      </trkpt>
      <trkpt lat="43.33683" lon="-1.66831">
        <ele>43</ele>
        <time>2026-08-23T14:40:07.000Z</time>
      </trkpt>
      <trkpt lat="43.337" lon="-1.66832">
        <ele>42</ele>
        <time>2026-08-23T14:40:10.000Z</time>
      </trkpt>
      <trkpt lat="43.33747" lon="-1.66824">
        <ele>42</ele>
        <time>2026-08-23T14:40:19.000Z</time>
      </trkpt>
      <trkpt lat="43.33782" lon="-1.66811">
        <ele>41</ele>
        <time>2026-08-23T14:40:25.000Z</time>
      </trkpt>
      <trkpt lat="43.33831" lon="-1.66786">
        <ele>39</ele>
        <time>2026-08-23T14:40:34.000Z</time>
      </trkpt>
      <trkpt lat="43.33878" lon="-1.66755">
        <ele>37</ele>
        <time>2026-08-23T14:40:44.000Z</time>
      </trkpt>
      <trkpt lat="43.3392" lon="-1.66705">
        <ele>37</ele>
        <time>2026-08-23T14:40:54.000Z</time>
      </trkpt>
      <trkpt lat="43.33975" lon="-1.66648">
        <ele>34</ele>
        <time>2026-08-23T14:41:06.000Z</time>
      </trkpt>
      <trkpt lat="43.33996" lon="-1.66637">
        <ele>33</ele>
        <time>2026-08-23T14:41:10.000Z</time>
      </trkpt>
      <trkpt lat="43.34014" lon="-1.66632">
        <ele>33</ele>
        <time>2026-08-23T14:41:13.000Z</time>
      </trkpt>
      <trkpt lat="43.34031" lon="-1.6663">
        <ele>34</ele>
        <time>2026-08-23T14:41:16.000Z</time>
      </trkpt>
      <trkpt lat="43.34045" lon="-1.66632">
        <ele>35</ele>
        <time>2026-08-23T14:41:19.000Z</time>
      </trkpt>
      <trkpt lat="43.34055" lon="-1.66636">
        <ele>35</ele>
        <time>2026-08-23T14:41:21.000Z</time>
      </trkpt>
      <trkpt lat="43.34059" lon="-1.66639">
        <ele>36</ele>
        <time>2026-08-23T14:41:21.000Z</time>
      </trkpt>
      <trkpt lat="43.3409" lon="-1.66655">
        <ele>38</ele>
        <time>2026-08-23T14:41:27.000Z</time>
      </trkpt>
      <trkpt lat="43.34167" lon="-1.66684">
        <ele>44</ele>
        <time>2026-08-23T14:41:41.000Z</time>
      </trkpt>
      <trkpt lat="43.34291" lon="-1.66741">
        <ele>53</ele>
        <time>2026-08-23T14:42:05.000Z</time>
      </trkpt>
      <trkpt lat="43.3432" lon="-1.66746">
        <ele>54</ele>
        <time>2026-08-23T14:42:10.000Z</time>
      </trkpt>
      <trkpt lat="43.34348" lon="-1.66741">
        <ele>57</ele>
        <time>2026-08-23T14:42:15.000Z</time>
      </trkpt>
      <trkpt lat="43.34368" lon="-1.66726">
        <ele>61</ele>
        <time>2026-08-23T14:42:19.000Z</time>
      </trkpt>
      <trkpt lat="43.34419" lon="-1.66665">
        <ele>71</ele>
        <time>2026-08-23T14:42:31.000Z</time>
      </trkpt>
      <trkpt lat="43.34436" lon="-1.66659">
        <ele>72</ele>
        <time>2026-08-23T14:42:34.000Z</time>
      </trkpt>
      <trkpt lat="43.34498" lon="-1.66656">
        <ele>72</ele>
        <time>2026-08-23T14:42:45.000Z</time>
      </trkpt>
      <trkpt lat="43.34535" lon="-1.66657">
        <ele>74</ele>
        <time>2026-08-23T14:42:52.000Z</time>
      </trkpt>
      <trkpt lat="43.34553" lon="-1.66663">
        <ele>75</ele>
        <time>2026-08-23T14:42:55.000Z</time>
      </trkpt>
      <trkpt lat="43.34569" lon="-1.66676">
        <ele>76</ele>
        <time>2026-08-23T14:42:58.000Z</time>
      </trkpt>
      <trkpt lat="43.34661" lon="-1.66775">
        <ele>74</ele>
        <time>2026-08-23T14:43:19.000Z</time>
      </trkpt>
      <trkpt lat="43.34676" lon="-1.66789">
        <ele>73</ele>
        <time>2026-08-23T14:43:22.000Z</time>
      </trkpt>
      <trkpt lat="43.34741" lon="-1.66805">
        <ele>72</ele>
        <time>2026-08-23T14:43:34.000Z</time>
      </trkpt>
      <trkpt lat="43.34795" lon="-1.6681">
        <ele>73</ele>
        <time>2026-08-23T14:43:44.000Z</time>
      </trkpt>
      <trkpt lat="43.3482" lon="-1.66817">
        <ele>74</ele>
        <time>2026-08-23T14:43:48.000Z</time>
      </trkpt>
      <trkpt lat="43.34917" lon="-1.66871">
        <ele>83</ele>
        <time>2026-08-23T14:44:07.000Z</time>
      </trkpt>
      <trkpt lat="43.34942" lon="-1.66882">
        <ele>87</ele>
        <time>2026-08-23T14:44:12.000Z</time>
      </trkpt>
      <trkpt lat="43.34966" lon="-1.66879">
        <ele>90</ele>
        <time>2026-08-23T14:44:16.000Z</time>
      </trkpt>
      <trkpt lat="43.34972" lon="-1.66874">
        <ele>90</ele>
        <time>2026-08-23T14:44:17.000Z</time>
      </trkpt>
      <trkpt lat="43.34974" lon="-1.66864">
        <ele>90</ele>
        <time>2026-08-23T14:44:18.000Z</time>
      </trkpt>
      <trkpt lat="43.34977" lon="-1.66824">
        <ele>86</ele>
        <time>2026-08-23T14:44:24.000Z</time>
      </trkpt>
      <trkpt lat="43.34988" lon="-1.66806">
        <ele>85</ele>
        <time>2026-08-23T14:44:27.000Z</time>
      </trkpt>
      <trkpt lat="43.35" lon="-1.668">
        <ele>86</ele>
        <time>2026-08-23T14:44:29.000Z</time>
      </trkpt>
      <trkpt lat="43.35013" lon="-1.668">
        <ele>86</ele>
        <time>2026-08-23T14:44:31.000Z</time>
      </trkpt>
      <trkpt lat="43.35023" lon="-1.66806">
        <ele>87</ele>
        <time>2026-08-23T14:44:33.000Z</time>
      </trkpt>
      <trkpt lat="43.35047" lon="-1.66831">
        <ele>90</ele>
        <time>2026-08-23T14:44:39.000Z</time>
      </trkpt>
      <trkpt lat="43.35073" lon="-1.66853">
        <ele>92</ele>
        <time>2026-08-23T14:44:44.000Z</time>
      </trkpt>
      <trkpt lat="43.35089" lon="-1.66859">
        <ele>92</ele>
        <time>2026-08-23T14:44:47.000Z</time>
      </trkpt>
      <trkpt lat="43.35108" lon="-1.66858">
        <ele>93</ele>
        <time>2026-08-23T14:44:50.000Z</time>
      </trkpt>
      <trkpt lat="43.35124" lon="-1.66846">
        <ele>93</ele>
        <time>2026-08-23T14:44:54.000Z</time>
      </trkpt>
      <trkpt lat="43.3518" lon="-1.66752">
        <ele>92</ele>
        <time>2026-08-23T14:45:09.000Z</time>
      </trkpt>
      <trkpt lat="43.35199" lon="-1.66734">
        <ele>91</ele>
        <time>2026-08-23T14:45:13.000Z</time>
      </trkpt>
      <trkpt lat="43.35212" lon="-1.66731">
        <ele>91</ele>
        <time>2026-08-23T14:45:16.000Z</time>
      </trkpt>
      <trkpt lat="43.35246" lon="-1.66735">
        <ele>93</ele>
        <time>2026-08-23T14:45:22.000Z</time>
      </trkpt>
      <trkpt lat="43.35265" lon="-1.66731">
        <ele>92</ele>
        <time>2026-08-23T14:45:25.000Z</time>
      </trkpt>
      <trkpt lat="43.35289" lon="-1.66718">
        <ele>91</ele>
        <time>2026-08-23T14:45:30.000Z</time>
      </trkpt>
      <trkpt lat="43.35301" lon="-1.66706">
        <ele>91</ele>
        <time>2026-08-23T14:45:32.000Z</time>
      </trkpt>
      <trkpt lat="43.35386" lon="-1.66666">
        <ele>97</ele>
        <time>2026-08-23T14:45:48.000Z</time>
      </trkpt>
      <trkpt lat="43.35428" lon="-1.6664">
        <ele>96</ele>
        <time>2026-08-23T14:45:57.000Z</time>
      </trkpt>
      <trkpt lat="43.35456" lon="-1.66613">
        <ele>94</ele>
        <time>2026-08-23T14:46:03.000Z</time>
      </trkpt>
      <trkpt lat="43.35478" lon="-1.66603">
        <ele>94</ele>
        <time>2026-08-23T14:46:07.000Z</time>
      </trkpt>
      <trkpt lat="43.3556" lon="-1.66589">
        <ele>90</ele>
        <time>2026-08-23T14:46:22.000Z</time>
      </trkpt>
      <trkpt lat="43.35628" lon="-1.66587">
        <ele>86</ele>
        <time>2026-08-23T14:46:34.000Z</time>
      </trkpt>
      <trkpt lat="43.3565" lon="-1.66574">
        <ele>84</ele>
        <time>2026-08-23T14:46:38.000Z</time>
      </trkpt>
      <trkpt lat="43.35682" lon="-1.66548">
        <ele>80</ele>
        <time>2026-08-23T14:46:45.000Z</time>
      </trkpt>
      <trkpt lat="43.35721" lon="-1.66497">
        <ele>77</ele>
        <time>2026-08-23T14:46:54.000Z</time>
      </trkpt>
      <trkpt lat="43.35739" lon="-1.66481">
        <ele>76</ele>
        <time>2026-08-23T14:46:58.000Z</time>
      </trkpt>
      <trkpt lat="43.35756" lon="-1.66471">
        <ele>76</ele>
        <time>2026-08-23T14:47:01.000Z</time>
      </trkpt>
      <trkpt lat="43.35819" lon="-1.66447">
        <ele>75</ele>
        <time>2026-08-23T14:47:13.000Z</time>
      </trkpt>
      <trkpt lat="43.35843" lon="-1.66442">
        <ele>76</ele>
        <time>2026-08-23T14:47:17.000Z</time>
      </trkpt>
      <trkpt lat="43.35868" lon="-1.66434">
        <ele>77</ele>
        <time>2026-08-23T14:47:22.000Z</time>
      </trkpt>
      <trkpt lat="43.35879" lon="-1.66427">
        <ele>78</ele>
        <time>2026-08-23T14:47:24.000Z</time>
      </trkpt>
      <trkpt lat="43.35887" lon="-1.66408">
        <ele>77</ele>
        <time>2026-08-23T14:47:27.000Z</time>
      </trkpt>
      <trkpt lat="43.35891" lon="-1.6638">
        <ele>76</ele>
        <time>2026-08-23T14:47:30.000Z</time>
      </trkpt>
      <trkpt lat="43.35896" lon="-1.66356">
        <ele>75</ele>
        <time>2026-08-23T14:47:34.000Z</time>
      </trkpt>
      <trkpt lat="43.35904" lon="-1.66343">
        <ele>75</ele>
        <time>2026-08-23T14:47:36.000Z</time>
      </trkpt>
      <trkpt lat="43.35921" lon="-1.66334">
        <ele>76</ele>
        <time>2026-08-23T14:47:39.000Z</time>
      </trkpt>
      <trkpt lat="43.35958" lon="-1.66324">
        <ele>76</ele>
        <time>2026-08-23T14:47:46.000Z</time>
      </trkpt>
      <trkpt lat="43.36088" lon="-1.66134">
        <ele>83</ele>
        <time>2026-08-23T14:48:20.000Z</time>
      </trkpt>
      <trkpt lat="43.36116" lon="-1.66099">
        <ele>84</ele>
        <time>2026-08-23T14:48:26.000Z</time>
      </trkpt>
      <trkpt lat="43.36176" lon="-1.66069">
        <ele>86</ele>
        <time>2026-08-23T14:48:38.000Z</time>
      </trkpt>
      <trkpt lat="43.36203" lon="-1.66064">
        <ele>84</ele>
        <time>2026-08-23T14:48:43.000Z</time>
      </trkpt>
      <trkpt lat="43.36233" lon="-1.66076">
        <ele>81</ele>
        <time>2026-08-23T14:48:48.000Z</time>
      </trkpt>
      <trkpt lat="43.36256" lon="-1.66092">
        <ele>78</ele>
        <time>2026-08-23T14:48:53.000Z</time>
      </trkpt>
      <trkpt lat="43.3627" lon="-1.66093">
        <ele>77</ele>
        <time>2026-08-23T14:48:55.000Z</time>
      </trkpt>
      <trkpt lat="43.36327" lon="-1.66082">
        <ele>76</ele>
        <time>2026-08-23T14:49:05.000Z</time>
      </trkpt>
      <trkpt lat="43.3637" lon="-1.66054">
        <ele>75</ele>
        <time>2026-08-23T14:49:14.000Z</time>
      </trkpt>
      <trkpt lat="43.36417" lon="-1.65987">
        <ele>74</ele>
        <time>2026-08-23T14:49:26.000Z</time>
      </trkpt>
      <trkpt lat="43.36511" lon="-1.6582">
        <ele>68</ele>
        <time>2026-08-23T14:49:53.000Z</time>
      </trkpt>
      <trkpt lat="43.36524" lon="-1.65795">
        <ele>68</ele>
        <time>2026-08-23T14:49:57.000Z</time>
      </trkpt>
      <trkpt lat="43.36536" lon="-1.65765">
        <ele>68</ele>
        <time>2026-08-23T14:50:02.000Z</time>
      </trkpt>
      <trkpt lat="43.36558" lon="-1.65684">
        <ele>72</ele>
        <time>2026-08-23T14:50:13.000Z</time>
      </trkpt>
      <trkpt lat="43.36565" lon="-1.65674">
        <ele>74</ele>
        <time>2026-08-23T14:50:15.000Z</time>
      </trkpt>
      <trkpt lat="43.36584" lon="-1.65655">
        <ele>75</ele>
        <time>2026-08-23T14:50:19.000Z</time>
      </trkpt>
      <trkpt lat="43.36597" lon="-1.65644">
        <ele>73</ele>
        <time>2026-08-23T14:50:22.000Z</time>
      </trkpt>
      <trkpt lat="43.36614" lon="-1.65635">
        <ele>72</ele>
        <time>2026-08-23T14:50:25.000Z</time>
      </trkpt>
      <trkpt lat="43.36636" lon="-1.65628">
        <ele>71</ele>
        <time>2026-08-23T14:50:29.000Z</time>
      </trkpt>
      <trkpt lat="43.36653" lon="-1.65628">
        <ele>70</ele>
        <time>2026-08-23T14:50:32.000Z</time>
      </trkpt>
      <trkpt lat="43.36676" lon="-1.65632">
        <ele>69</ele>
        <time>2026-08-23T14:50:36.000Z</time>
      </trkpt>
      <trkpt lat="43.36703" lon="-1.65641">
        <ele>67</ele>
        <time>2026-08-23T14:50:41.000Z</time>
      </trkpt>
      <trkpt lat="43.36733" lon="-1.65656">
        <ele>66</ele>
        <time>2026-08-23T14:50:47.000Z</time>
      </trkpt>
      <trkpt lat="43.36766" lon="-1.6568">
        <ele>65</ele>
        <time>2026-08-23T14:50:53.000Z</time>
      </trkpt>
      <trkpt lat="43.36853" lon="-1.65724">
        <ele>63</ele>
        <time>2026-08-23T14:51:10.000Z</time>
      </trkpt>
      <trkpt lat="43.36916" lon="-1.65752">
        <ele>60</ele>
        <time>2026-08-23T14:51:21.000Z</time>
      </trkpt>
      <trkpt lat="43.36982" lon="-1.65775">
        <ele>57</ele>
        <time>2026-08-23T14:51:34.000Z</time>
      </trkpt>
      <trkpt lat="43.37" lon="-1.65784">
        <ele>56</ele>
        <time>2026-08-23T14:51:37.000Z</time>
      </trkpt>
      <trkpt lat="43.37079" lon="-1.6583">
        <ele>60</ele>
        <time>2026-08-23T14:51:52.000Z</time>
      </trkpt>
      <trkpt lat="43.37089" lon="-1.65839">
        <ele>59</ele>
        <time>2026-08-23T14:51:54.000Z</time>
      </trkpt>
      <trkpt lat="43.37097" lon="-1.65849">
        <ele>57</ele>
        <time>2026-08-23T14:51:56.000Z</time>
      </trkpt>
      <trkpt lat="43.37109" lon="-1.65882">
        <ele>52</ele>
        <time>2026-08-23T14:52:01.000Z</time>
      </trkpt>
      <trkpt lat="43.37114" lon="-1.65888">
        <ele>52</ele>
        <time>2026-08-23T14:52:02.000Z</time>
      </trkpt>
      <trkpt lat="43.37122" lon="-1.65894">
        <ele>52</ele>
        <time>2026-08-23T14:52:04.000Z</time>
      </trkpt>
      <trkpt lat="43.37138" lon="-1.65898">
        <ele>52</ele>
        <time>2026-08-23T14:52:07.000Z</time>
      </trkpt>
      <trkpt lat="43.37323" lon="-1.65911">
        <ele>39</ele>
        <time>2026-08-23T14:52:40.000Z</time>
      </trkpt>
      <trkpt lat="43.37333" lon="-1.65911">
        <ele>38</ele>
        <time>2026-08-23T14:52:41.000Z</time>
      </trkpt>
      <trkpt lat="43.37349" lon="-1.65906">
        <ele>38</ele>
        <time>2026-08-23T14:52:44.000Z</time>
      </trkpt>
      <trkpt lat="43.37401" lon="-1.65886">
        <ele>37</ele>
        <time>2026-08-23T14:52:54.000Z</time>
      </trkpt>
      <trkpt lat="43.37425" lon="-1.65876">
        <ele>37</ele>
        <time>2026-08-23T14:52:58.000Z</time>
      </trkpt>
      <trkpt lat="43.37455" lon="-1.65872">
        <ele>39</ele>
        <time>2026-08-23T14:53:04.000Z</time>
      </trkpt>
      <trkpt lat="43.37463" lon="-1.65873">
        <ele>40</ele>
        <time>2026-08-23T14:53:05.000Z</time>
      </trkpt>
      <trkpt lat="43.37461" lon="-1.65846">
        <ele>40</ele>
        <time>2026-08-23T14:53:09.000Z</time>
      </trkpt>
      <trkpt lat="43.37462" lon="-1.6584">
        <ele>40</ele>
        <time>2026-08-23T14:53:10.000Z</time>
      </trkpt>
      <trkpt lat="43.37541" lon="-1.65803">
        <ele>46</ele>
        <time>2026-08-23T14:53:24.000Z</time>
      </trkpt>
      <trkpt lat="43.3758" lon="-1.65811">
        <ele>48</ele>
        <time>2026-08-23T14:53:31.000Z</time>
      </trkpt>
      <trkpt lat="43.37634" lon="-1.65834">
        <ele>40</ele>
        <time>2026-08-23T14:53:42.000Z</time>
      </trkpt>
      <trkpt lat="43.37684" lon="-1.65844">
        <ele>33</ele>
        <time>2026-08-23T14:53:50.000Z</time>
      </trkpt>
      <trkpt lat="43.37723" lon="-1.65853">
        <ele>26</ele>
        <time>2026-08-23T14:53:58.000Z</time>
      </trkpt>
      <trkpt lat="43.3774" lon="-1.65864">
        <ele>24</ele>
        <time>2026-08-23T14:54:01.000Z</time>
      </trkpt>
      <trkpt lat="43.37752" lon="-1.65881">
        <ele>22</ele>
        <time>2026-08-23T14:54:04.000Z</time>
      </trkpt>
      <trkpt lat="43.37756" lon="-1.65879">
        <ele>22</ele>
        <time>2026-08-23T14:54:05.000Z</time>
      </trkpt>
      <trkpt lat="43.37766" lon="-1.65881">
        <ele>21</ele>
        <time>2026-08-23T14:54:06.000Z</time>
      </trkpt>
      <trkpt lat="43.37817" lon="-1.65922">
        <ele>17</ele>
        <time>2026-08-23T14:54:17.000Z</time>
      </trkpt>
      <trkpt lat="43.37834" lon="-1.65938">
        <ele>15</ele>
        <time>2026-08-23T14:54:21.000Z</time>
      </trkpt>
      <trkpt lat="43.37845" lon="-1.65954">
        <ele>14</ele>
        <time>2026-08-23T14:54:24.000Z</time>
      </trkpt>
      <trkpt lat="43.37862" lon="-1.65988">
        <ele>12</ele>
        <time>2026-08-23T14:54:29.000Z</time>
      </trkpt>
      <trkpt lat="43.37878" lon="-1.66012">
        <ele>10</ele>
        <time>2026-08-23T14:54:33.000Z</time>
      </trkpt>
      <trkpt lat="43.3789" lon="-1.66023">
        <ele>9</ele>
        <time>2026-08-23T14:54:36.000Z</time>
      </trkpt>
      <trkpt lat="43.37923" lon="-1.66042">
        <ele>8</ele>
        <time>2026-08-23T14:54:42.000Z</time>
      </trkpt>
      <trkpt lat="43.37967" lon="-1.66075">
        <ele>6</ele>
        <time>2026-08-23T14:54:51.000Z</time>
      </trkpt>
      <trkpt lat="43.37989" lon="-1.66095">
        <ele>5</ele>
        <time>2026-08-23T14:54:56.000Z</time>
      </trkpt>
      <trkpt lat="43.38005" lon="-1.66115">
        <ele>5</ele>
        <time>2026-08-23T14:54:59.000Z</time>
      </trkpt>
      <trkpt lat="43.38033" lon="-1.6614">
        <ele>6</ele>
        <time>2026-08-23T14:55:05.000Z</time>
      </trkpt>
      <trkpt lat="43.38015" lon="-1.6616">
        <ele>5</ele>
        <time>2026-08-23T14:55:10.000Z</time>
      </trkpt>
      <trkpt lat="43.38001" lon="-1.66189">
        <ele>5</ele>
        <time>2026-08-23T14:55:14.000Z</time>
      </trkpt>
      <trkpt lat="43.38012" lon="-1.66221">
        <ele>5</ele>
        <time>2026-08-23T14:55:19.000Z</time>
      </trkpt>
      <trkpt lat="43.38026" lon="-1.66242">
        <ele>4</ele>
        <time>2026-08-23T14:55:22.000Z</time>
      </trkpt>
      <trkpt lat="43.38037" lon="-1.66252">
        <ele>4</ele>
        <time>2026-08-23T14:55:25.000Z</time>
      </trkpt>
      <trkpt lat="43.38072" lon="-1.6627">
        <ele>5</ele>
        <time>2026-08-23T14:55:31.000Z</time>
      </trkpt>
      <trkpt lat="43.38085" lon="-1.66281">
        <ele>5</ele>
        <time>2026-08-23T14:55:34.000Z</time>
      </trkpt>
      <trkpt lat="43.38093" lon="-1.66296">
        <ele>5</ele>
        <time>2026-08-23T14:55:36.000Z</time>
      </trkpt>
      <trkpt lat="43.38108" lon="-1.66404">
        <ele>6</ele>
        <time>2026-08-23T14:55:51.000Z</time>
      </trkpt>
      <trkpt lat="43.38118" lon="-1.66429">
        <ele>5</ele>
        <time>2026-08-23T14:55:54.000Z</time>
      </trkpt>
      <trkpt lat="43.38129" lon="-1.66448">
        <ele>5</ele>
        <time>2026-08-23T14:55:57.000Z</time>
      </trkpt>
      <trkpt lat="43.38141" lon="-1.66462">
        <ele>4</ele>
        <time>2026-08-23T14:56:00.000Z</time>
      </trkpt>
      <trkpt lat="43.38223" lon="-1.66552">
        <ele>3</ele>
        <time>2026-08-23T14:56:19.000Z</time>
      </trkpt>
      <trkpt lat="43.38274" lon="-1.66679">
        <ele>5</ele>
        <time>2026-08-23T14:56:38.000Z</time>
      </trkpt>
      <trkpt lat="43.38286" lon="-1.66703">
        <ele>6</ele>
        <time>2026-08-23T14:56:41.000Z</time>
      </trkpt>
      <trkpt lat="43.38305" lon="-1.66747">
        <ele>7</ele>
        <time>2026-08-23T14:56:48.000Z</time>
      </trkpt>
      <trkpt lat="43.38314" lon="-1.6676">
        <ele>7</ele>
        <time>2026-08-23T14:56:50.000Z</time>
      </trkpt>
      <trkpt lat="43.38344" lon="-1.66759">
        <ele>7</ele>
        <time>2026-08-23T14:56:56.000Z</time>
      </trkpt>
      <trkpt lat="43.38366" lon="-1.66755">
        <ele>6</ele>
        <time>2026-08-23T14:57:00.000Z</time>
      </trkpt>
      <trkpt lat="43.38378" lon="-1.66744">
        <ele>5</ele>
        <time>2026-08-23T14:57:02.000Z</time>
      </trkpt>
      <trkpt lat="43.38449" lon="-1.66647">
        <ele>4</ele>
        <time>2026-08-23T14:57:20.000Z</time>
      </trkpt>
      <trkpt lat="43.38446" lon="-1.66631">
        <ele>4</ele>
        <time>2026-08-23T14:57:22.000Z</time>
      </trkpt>
      <trkpt lat="43.38411" lon="-1.66589">
        <ele>4</ele>
        <time>2026-08-23T14:57:30.000Z</time>
      </trkpt>
      <trkpt lat="43.38408" lon="-1.66568">
        <ele>4</ele>
        <time>2026-08-23T14:57:33.000Z</time>
      </trkpt>
      <trkpt lat="43.38416" lon="-1.66546">
        <ele>4</ele>
        <time>2026-08-23T14:57:36.000Z</time>
      </trkpt>
      <trkpt lat="43.38482" lon="-1.6642">
        <ele>5</ele>
        <time>2026-08-23T14:57:56.000Z</time>
      </trkpt>
      <trkpt lat="43.38517" lon="-1.66346">
        <ele>2</ele>
        <time>2026-08-23T14:58:08.000Z</time>
      </trkpt>
      <trkpt lat="43.38548" lon="-1.66274">
        <ele>3</ele>
        <time>2026-08-23T14:58:19.000Z</time>
      </trkpt>
      <trkpt lat="43.38558" lon="-1.6625">
        <ele>3</ele>
        <time>2026-08-23T14:58:22.000Z</time>
      </trkpt>
      <trkpt lat="43.38566" lon="-1.66229">
        <ele>3</ele>
        <time>2026-08-23T14:58:25.000Z</time>
      </trkpt>
      <trkpt lat="43.38574" lon="-1.66212">
        <ele>4</ele>
        <time>2026-08-23T14:58:28.000Z</time>
      </trkpt>
      <trkpt lat="43.38589" lon="-1.66194">
        <ele>4</ele>
        <time>2026-08-23T14:58:32.000Z</time>
      </trkpt>
      <trkpt lat="43.3859" lon="-1.66189">
        <ele>4</ele>
        <time>2026-08-23T14:58:32.000Z</time>
      </trkpt>
      <trkpt lat="43.38593" lon="-1.66178">
        <ele>4</ele>
        <time>2026-08-23T14:58:34.000Z</time>
      </trkpt>
      <trkpt lat="43.38598" lon="-1.66173">
        <ele>5</ele>
        <time>2026-08-23T14:58:35.000Z</time>
      </trkpt>
      <trkpt lat="43.38603" lon="-1.6617">
        <ele>5</ele>
        <time>2026-08-23T14:58:36.000Z</time>
      </trkpt>
      <trkpt lat="43.38609" lon="-1.6617">
        <ele>5</ele>
        <time>2026-08-23T14:58:37.000Z</time>
      </trkpt>
      <trkpt lat="43.38615" lon="-1.66172">
        <ele>6</ele>
        <time>2026-08-23T14:58:38.000Z</time>
      </trkpt>
      <trkpt lat="43.38623" lon="-1.66181">
        <ele>6</ele>
        <time>2026-08-23T14:58:40.000Z</time>
      </trkpt>
      <trkpt lat="43.38625" lon="-1.66195">
        <ele>5</ele>
        <time>2026-08-23T14:58:42.000Z</time>
      </trkpt>
      <trkpt lat="43.3863" lon="-1.66198">
        <ele>6</ele>
        <time>2026-08-23T14:58:43.000Z</time>
      </trkpt>
      <trkpt lat="43.38665" lon="-1.66299">
        <ele>2</ele>
        <time>2026-08-23T14:58:57.000Z</time>
      </trkpt>
      <trkpt lat="43.38674" lon="-1.66306">
        <ele>2</ele>
        <time>2026-08-23T14:58:59.000Z</time>
      </trkpt>
      <trkpt lat="43.3868" lon="-1.66306">
        <ele>2</ele>
        <time>2026-08-23T14:59:00.000Z</time>
      </trkpt>
      <trkpt lat="43.38685" lon="-1.66309">
        <ele>2</ele>
        <time>2026-08-23T14:59:01.000Z</time>
      </trkpt>
      <trkpt lat="43.38688" lon="-1.66317">
        <ele>2</ele>
        <time>2026-08-23T14:59:02.000Z</time>
      </trkpt>
      <trkpt lat="43.38687" lon="-1.66329">
        <ele>1</ele>
        <time>2026-08-23T14:59:04.000Z</time>
      </trkpt>
      <trkpt lat="43.38682" lon="-1.66334">
        <ele>1</ele>
        <time>2026-08-23T14:59:05.000Z</time>
      </trkpt>
      <trkpt lat="43.38678" lon="-1.66335">
        <ele>1</ele>
        <time>2026-08-23T14:59:05.000Z</time>
      </trkpt>
      <trkpt lat="43.3867" lon="-1.66331">
        <ele>4</ele>
        <time>2026-08-23T14:59:07.000Z</time>
      </trkpt>
      <trkpt lat="43.38668" lon="-1.66327">
        <ele>4</ele>
        <time>2026-08-23T14:59:08.000Z</time>
      </trkpt>
      <trkpt lat="43.38667" lon="-1.66317">
        <ele>1</ele>
        <time>2026-08-23T14:59:09.000Z</time>
      </trkpt>
      <trkpt lat="43.38655" lon="-1.66312">
        <ele>1</ele>
        <time>2026-08-23T14:59:11.000Z</time>
      </trkpt>
      <trkpt lat="43.38647" lon="-1.66284">
        <ele>2</ele>
        <time>2026-08-23T14:59:15.000Z</time>
      </trkpt>
    </trkseg>
  </trk>
</gpx>